| time (UTC) | temp F | wind direction | speed MPH | gust MPH | rain 1hr in | rain 24hr in | rain mn in | humidity % | barometer mb |
| 20260510023047 | 58 | 30 | 1.0 | 7.0 | 0.00 | 0.32 | 0.32 | 51 | 1007.6 |
| 20260510022826 | 59 | 341 | 2.0 | 15.0 | 0.00 | 0.32 | 0.32 | 51 | 1006.6 |
| 20260510022823 | 58 | 27 | 2.0 | 7.0 | 0.00 | 0.32 | 0.32 | 51 | 1007.6 |
| 20260510022814 | 58 | 4 | 4.0 | 7.0 | 0.00 | 0.32 | 0.32 | 51 | 1007.6 |
| 20260510022552 | 58 | 335 | 2.0 | 4.0 | 0.00 | 0.32 | 0.32 | 51 | 1007.3 |
| 20260510022542 | 58 | 25 | 2.0 | 4.0 | 0.00 | 0.32 | 0.32 | 51 | 1007.3 |
| 20260510022538 | 58 | 3 | 2.0 | 4.0 | 0.00 | 0.32 | 0.32 | 51 | 1007.3 |
| 20260510022529 | 58 | 349 | 1.0 | 4.0 | 0.00 | 0.32 | 0.32 | 51 | 1007.6 |
| 20260510022311 | 58 | 315 | 1.0 | 4.0 | 0.00 | 0.32 | 0.32 | 51 | 1007.6 |
| 20260510022306 | 58 | 321 | 2.0 | 4.0 | 0.00 | 0.32 | 0.32 | 51 | 1007.6 |
| 20260510022041 | 58 | 317 | 1.0 | 7.0 | 0.00 | 0.32 | 0.32 | 51 | 1007.3 |
| 20260510022030 | 58 | 321 | 2.0 | 7.0 | 0.00 | 0.32 | 0.32 | 50 | 1007.3 |
| 20260510022026 | 58 | 344 | 2.0 | 7.0 | 0.00 | 0.32 | 0.32 | 50 | 1007.3 |
| 20260510022017 | 58 | 325 | 1.0 | 7.0 | 0.00 | 0.32 | 0.32 | 51 | 1007.6 |
| 20260510021758 | 58 | 315 | 2.0 | 7.0 | 0.00 | 0.32 | 0.32 | 50 | 1007.3 |
| 20260510021749 | 58 | 353 | 2.0 | 7.0 | 0.00 | 0.32 | 0.32 | 50 | 1007.3 |
| 20260510021523 | 58 | 25 | 2.0 | 7.0 | 0.00 | 0.32 | 0.32 | 51 | 1007.3 |
| 20260510021515 | 58 | 332 | 1.0 | 7.0 | 0.00 | 0.32 | 0.32 | 50 | 1007.3 |
| 20260510021254 | 58 | 32 | 2.0 | 7.0 | 0.00 | 0.32 | 0.32 | 51 | 1007.3 |
| 20260510021245 | 58 | 331 | 3.0 | 7.0 | 0.00 | 0.32 | 0.32 | 50 | 1007.3 |
| 20260510021237 | 58 | 299 | 4.0 | 7.0 | 0.00 | 0.32 | 0.32 | 50 | 1007.3 |
| 20260510021011 | 58 | 328 | 2.0 | 6.0 | 0.00 | 0.32 | 0.32 | 51 | 1007.3 |
| 20260510021007 | 58 | 327 | 2.0 | 6.0 | 0.00 | 0.32 | 0.32 | 51 | 1007.3 |
| 20260510020958 | 58 | 321 | 3.0 | 7.0 | 0.00 | 0.32 | 0.32 | 51 | 1007.3 |
| 20260510020738 | 58 | 322 | 2.0 | 7.0 | 0.00 | 0.32 | 0.32 | 52 | 1007.3 |
| 20260510020730 | 58 | 281 | 1.0 | 7.0 | 0.00 | 0.32 | 0.32 | 51 | 1007.3 |
| 20260510020721 | 58 | 353 | 2.0 | 8.0 | 0.00 | 0.32 | 0.32 | 51 | 1007.3 |
| 20260510020500 | 58 | 318 | 1.0 | 8.0 | 0.00 | 0.32 | 0.32 | 51 | 1006.9 |
| 20260510020451 | 59 | 308 | 2.0 | 8.0 | 0.00 | 0.32 | 0.32 | 50 | 1006.9 |
| 20260510020229 | 59 | 10 | 2.0 | 8.0 | 0.00 | 0.32 | 0.32 | 51 | 1006.9 |
| 20260510020221 | 59 | 339 | 4.0 | 8.0 | 0.00 | 0.32 | 0.32 | 50 | 1006.9 |
| 20260510020157 | 59 | 57 | 1.0 | 8.0 | 0.00 | 0.32 | 0.32 | 50 | 1006.9 |
| 20260510015937 | 59 | 359 | 5.0 | 9.0 | 0.00 | 0.32 | 0.32 | 50 | 1006.6 |
| 20260510015928 | 58 | 8 | 4.0 | 9.0 | 0.00 | 0.32 | 0.32 | 50 | 1006.6 |
| 20260510015705 | 59 | 297 | 4.0 | 11.0 | 0.00 | 0.32 | 0.32 | 51 | 1006.9 |
| 20260510015656 | 59 | 34 | 1.0 | 11.0 | 0.00 | 0.32 | 0.32 | 51 | 1006.9 |
| 20260510015435 | 59 | 72 | 2.0 | 15.0 | 0.00 | 0.32 | 0.32 | 52 | 1006.6 |
| 20260510015426 | 59 | 321 | 3.0 | 15.0 | 0.00 | 0.32 | 0.32 | 52 | 1006.6 |
| 20260510015205 | 59 | 330 | 4.0 | 15.0 | 0.00 | 0.32 | 0.32 | 51 | 1006.6 |
| 20260510015156 | 59 | 63 | 2.0 | 15.0 | 0.00 | 0.32 | 0.32 | 50 | 1006.1 |
| 20260510015147 | 59 | 300 | 5.0 | 15.0 | 0.00 | 0.32 | 0.32 | 51 | 1006.6 |
| 20260510014922 | 59 | 24 | 6.0 | 15.0 | 0.00 | 0.32 | 0.32 | 52 | 1006.6 |
| 20260510014918 | 59 | 346 | 5.0 | 15.0 | 0.00 | 0.32 | 0.32 | 53 | 1006.6 |
| 20260510014909 | 59 | 313 | 5.0 | 15.0 | 0.00 | 0.32 | 0.32 | 55 | 1006.1 |
| 20260510014644 | 59 | 329 | 4.0 | 15.0 | 0.00 | 0.32 | 0.32 | 58 | 1006.1 |
| 20260510014636 | 59 | 59 | 4.0 | 15.0 | 0.00 | 0.32 | 0.32 | 58 | 1006.1 |
| 20260510014625 | 58 | 338 | 5.0 | 9.0 | 0.00 | 0.32 | 0.32 | 57 | 1006.1 |
| 20260510014306 | 58 | 350 | 2.0 | 9.0 | 0.00 | 0.32 | 0.32 | 58 | 1006.1 |
| 20260510014201 | 58 | 318 | 3.0 | 4.0 | 0.00 | 0.32 | 0.32 | 61 | 1005.8 |
| 20260510014054 | 58 | 343 | 1.0 | 2.0 | 0.00 | 0.32 | 0.32 | 60 | 1005.8 |
| 20260510013948 | 58 | 331 | 1.0 | 2.0 | 0.00 | 0.32 | 0.32 | 59 | 1005.8 |
| 20260510013900 | 58 | 319 | 1.0 | 2.0 | 0.00 | 0.32 | 0.32 | 59 | 1005.8 |
| 20260510013843 | 58 | 319 | 2.0 | 2.0 | 0.00 | 0.32 | 0.32 | 59 | 1006.1 |
| 20260510013737 | 58 | 315 | 0.0 | 1.0 | 0.00 | 0.32 | 0.32 | 59 | 1006.1 |
| 20260510013631 | 58 | 323 | 1.0 | 2.0 | 0.00 | 0.32 | 0.32 | 58 | 1005.8 |
| 20260510013525 | 58 | 338 | 0.0 | 2.0 | 0.00 | 0.32 | 0.32 | 59 | 1005.8 |
| 20260510013433 | 58 | 310 | 0.0 | 2.0 | 0.00 | 0.32 | 0.32 | 59 | 1005.8 |
| 20260510013354 | 58 | 310 | 0.0 | 2.0 | 0.00 | 0.32 | 0.32 | 59 | 1005.8 |
| 20260510013314 | 58 | 311 | 1.0 | 2.0 | 0.00 | 0.32 | 0.32 | 59 | 1005.8 |
| 20260510013208 | 59 | 287 | 0.0 | 2.0 | 0.00 | 0.32 | 0.32 | 58 | 1005.8 |
| 20260510013102 | 59 | 286 | 0.0 | 2.0 | 0.00 | 0.32 | 0.32 | 58 | 1005.8 |
| 20260510012958 | 59 | 344 | 0.0 | 2.0 | 0.00 | 0.32 | 0.32 | 58 | 1005.8 |
| 20260510012851 | 59 | 354 | 1.0 | 2.0 | 0.00 | 0.32 | 0.32 | 57 | 1005.5 |
| 20260510012746 | 59 | 26 | 0.0 | 2.0 | 0.00 | 0.32 | 0.32 | 57 | 1005.5 |
| 20260510012640 | 59 | 338 | 1.0 | 2.0 | 0.00 | 0.32 | 0.32 | 57 | 1005.5 |
| 20260510012534 | 59 | 337 | 0.0 | 2.0 | 0.00 | 0.32 | 0.32 | 58 | 1005.8 |
| 20260510012428 | 59 | 337 | 0.0 | 2.0 | 0.00 | 0.32 | 0.32 | 57 | 1005.5 |
| 20260510012341 | 59 | 337 | 0.0 | 2.0 | 0.00 | 0.32 | 0.32 | 57 | 1005.5 |
| 20260510012323 | 59 | 337 | 1.0 | 2.0 | 0.00 | 0.32 | 0.32 | 57 | 1005.5 |
| 20260510012217 | 59 | 337 | 0.0 | 2.0 | 0.00 | 0.32 | 0.32 | 57 | 1005.5 |
| 20260510012111 | 59 | 338 | 0.0 | 2.0 | 0.00 | 0.32 | 0.32 | 57 | 1005.1 |
| 20260510012005 | 58 | 337 | 1.0 | 2.0 | 0.00 | 0.32 | 0.32 | 57 | 1005.1 |
| 20260510011859 | 58 | 327 | 0.0 | 1.0 | 0.00 | 0.32 | 0.32 | 58 | 1005.5 |
| 20260510011834 | 58 | 326 | 1.0 | 1.0 | 0.00 | 0.32 | 0.32 | 57 | 1005.5 |
| 20260510011755 | 59 | 335 | 1.0 | 1.0 | 0.00 | 0.32 | 0.32 | 58 | 1005.5 |
| 20260510011648 | 59 | 334 | 0.0 | 1.0 | 0.00 | 0.32 | 0.32 | 57 | 1005.5 |
| 20260510011543 | 59 | 354 | 1.0 | 1.0 | 0.00 | 0.32 | 0.32 | 57 | 1005.1 |
| 20260510011437 | 59 | 354 | 0.0 | 1.0 | 0.00 | 0.32 | 0.32 | 57 | 1005.5 |
| 20260510011330 | 59 | 354 | 0.0 | 1.0 | 0.00 | 0.32 | 0.32 | 57 | 1005.1 |
| 20260510011225 | 59 | 357 | 1.0 | 1.0 | 0.00 | 0.32 | 0.32 | 57 | 1005.1 |
| 20260510011119 | 59 | 4 | 1.0 | 1.0 | 0.00 | 0.32 | 0.32 | 57 | 1005.1 |
| 20260510011013 | 59 | 354 | 0.0 | 1.0 | 0.00 | 0.32 | 0.32 | 57 | 1005.1 |
| 20260510010907 | 59 | 354 | 0.0 | 1.0 | 0.00 | 0.32 | 0.32 | 56 | 1005.1 |
| 20260510010820 | 59 | 354 | 0.0 | 1.0 | 0.00 | 0.32 | 0.32 | 56 | 1005.1 |
| 20260510010802 | 59 | 354 | 0.0 | 1.0 | 0.00 | 0.32 | 0.32 | 56 | 1005.1 |
| 20260510010656 | 60 | 355 | 0.0 | 1.0 | 0.00 | 0.32 | 0.32 | 56 | 1005.1 |
| 20260510010552 | 60 | 355 | 0.0 | 1.0 | 0.00 | 0.32 | 0.32 | 55 | 1005.1 |
| 20260510010446 | 60 | 355 | 0.0 | 1.0 | 0.00 | 0.32 | 0.32 | 55 | 1005.1 |
| 20260510010340 | 60 | 354 | 0.0 | 1.0 | 0.00 | 0.32 | 0.32 | 55 | 1004.8 |
| 20260510010314 | 60 | 354 | 0.0 | 2.0 | 0.00 | 0.32 | 0.32 | 55 | 1004.8 |
| 20260510010234 | 60 | 355 | 1.0 | 2.0 | 0.00 | 0.32 | 0.32 | 55 | 1004.8 |
| 20260510010141 | 60 | 14 | 0.0 | 2.0 | 0.00 | 0.32 | 0.32 | 55 | 1005.1 |
| 20260510010024 | 60 | 15 | 0.0 | 2.0 | 0.00 | 0.32 | 0.32 | 55 | 1004.8 |
| 20260510005918 | 60 | 19 | 0.0 | 2.0 | 0.00 | 0.32 | 0.32 | 55 | 1004.8 |
| 20260510005811 | 60 | 6 | 0.0 | 2.0 | 0.00 | 0.32 | 0.32 | 55 | 1004.8 |
| 20260510005706 | 60 | 101 | 0.0 | 2.0 | 0.00 | 0.32 | 0.32 | 54 | 1005.1 |
| 20260510005601 | 60 | 8 | 0.0 | 3.0 | 0.00 | 0.32 | 0.32 | 54 | 1005.1 |
| 20260510005455 | 60 | 6 | 0.0 | 3.0 | 0.00 | 0.32 | 0.32 | 54 | 1004.8 |
| 20260510005349 | 60 | 345 | 1.0 | 3.0 | 0.00 | 0.32 | 0.32 | 54 | 1004.8 |
| 20260510005301 | 60 | 310 | 0.0 | 3.0 | 0.00 | 0.32 | 0.32 | 54 | 1005.1 |
| 20260510005244 | 60 | 310 | 0.0 | 3.0 | 0.00 | 0.32 | 0.32 | 54 | 1004.8 |
| 20260510005138 | 60 | 312 | 1.0 | 3.0 | 0.00 | 0.32 | 0.32 | 54 | 1004.8 |
| 20260510005032 | 61 | 306 | 1.0 | 3.0 | 0.00 | 0.32 | 0.32 | 54 | 1005.1 |
| 20260510004926 | 61 | 333 | 1.0 | 3.0 | 0.00 | 0.32 | 0.32 | 54 | 1004.8 |
| 20260510004820 | 61 | 305 | 0.0 | 3.0 | 0.00 | 0.32 | 0.32 | 54 | 1004.8 |
| 20260510004754 | 61 | 315 | 1.0 | 3.0 | 0.00 | 0.32 | 0.32 | 53 | 1004.8 |
| 20260510004715 | 61 | 315 | 1.0 | 3.0 | 0.00 | 0.32 | 0.32 | 53 | 1004.8 |
| 20260510004610 | 61 | 321 | 2.0 | 2.0 | 0.00 | 0.32 | 0.32 | 53 | 1004.8 |
| 20260510004504 | 61 | 316 | 2.0 | 2.0 | 0.00 | 0.32 | 0.32 | 53 | 1004.5 |
| 20260510004358 | 61 | 347 | 1.0 | 3.0 | 0.00 | 0.32 | 0.32 | 53 | 1004.8 |
| 20260510004252 | 61 | 315 | 0.0 | 3.0 | 0.00 | 0.32 | 0.32 | 54 | 1004.8 |
| 20260510004147 | 61 | 315 | 1.0 | 3.0 | 0.00 | 0.32 | 0.32 | 54 | 1004.8 |
| 20260510004040 | 61 | 339 | 1.0 | 3.0 | 0.00 | 0.32 | 0.32 | 53 | 1004.8 |
| 20260510003934 | 61 | 331 | 2.0 | 3.0 | 0.00 | 0.32 | 0.32 | 53 | 1004.8 |
| 20260510003830 | 61 | 355 | 1.0 | 3.0 | 0.00 | 0.32 | 0.32 | 53 | 1004.5 |
| 20260510003741 | 61 | 328 | 0.0 | 3.0 | 0.00 | 0.32 | 0.32 | 53 | 1004.8 |
| 20260510003723 | 61 | 328 | 0.0 | 3.0 | 0.00 | 0.32 | 0.32 | 53 | 1004.8 |
| 20260510003618 | 61 | 329 | 0.0 | 3.0 | 0.00 | 0.32 | 0.32 | 53 | 1004.5 |
| 20260510003513 | 61 | 326 | 1.0 | 3.0 | 0.00 | 0.32 | 0.32 | 53 | 1004.8 |
| 20260510003407 | 61 | 0 | 2.0 | 3.0 | 0.00 | 0.32 | 0.32 | 53 | 1004.8 |
| 20260510003301 | 61 | 306 | 1.0 | 3.0 | 0.00 | 0.32 | 0.32 | 52 | 1004.5 |
| 20260510003234 | 61 | 309 | 1.0 | 3.0 | 0.00 | 0.32 | 0.32 | 53 | 1004.5 |
| 20260510003154 | 61 | 314 | 1.0 | 3.0 | 0.00 | 0.32 | 0.32 | 52 | 1004.5 |
| 20260510003049 | 61 | 315 | 1.0 | 3.0 | 0.00 | 0.32 | 0.32 | 52 | 1004.5 |
| 20260510002943 | 61 | 298 | 1.0 | 3.0 | 0.00 | 0.32 | 0.32 | 52 | 1004.8 |
| 20260510002837 | 61 | 327 | 0.0 | 3.0 | 0.00 | 0.32 | 0.32 | 52 | 1004.5 |
| 20260510002731 | 61 | 306 | 1.0 | 3.0 | 0.00 | 0.32 | 0.32 | 52 | 1004.5 |
| 20260510002626 | 61 | 347 | 0.0 | 3.0 | 0.00 | 0.32 | 0.32 | 52 | 1004.5 |
| 20260510002519 | 61 | 237 | 1.0 | 3.0 | 0.00 | 0.32 | 0.32 | 52 | 1004.5 |
| 20260510002414 | 61 | 276 | 2.0 | 3.0 | 0.00 | 0.32 | 0.32 | 51 | 1004.5 |
| 20260510002308 | 61 | 314 | 1.0 | 2.0 | 0.00 | 0.32 | 0.32 | 53 | 1004.5 |
| 20260510002219 | 61 | 231 | 1.0 | 2.0 | 0.00 | 0.32 | 0.32 | 52 | 1004.5 |
| 20260510002202 | 61 | 301 | 2.0 | 2.0 | 0.00 | 0.32 | 0.32 | 52 | 1004.5 |
| 20260510002055 | 62 | 124 | 1.0 | 4.0 | 0.00 | 0.32 | 0.32 | 52 | 1004.5 |
| 20260510001950 | 62 | 283 | 0.0 | 4.0 | 0.00 | 0.32 | 0.32 | 52 | 1004.5 |
| 20260510001844 | 62 | 308 | 0.0 | 4.0 | 0.00 | 0.32 | 0.32 | 51 | 1004.5 |
| 20260510001739 | 62 | 326 | 1.0 | 4.0 | 0.00 | 0.32 | 0.32 | 51 | 1004.5 |
| 20260510001712 | 62 | 313 | 1.0 | 4.0 | 0.00 | 0.32 | 0.32 | 51 | 1004.5 |
| 20260510001645 | 62 | 251 | 2.0 | 4.0 | 0.00 | 0.32 | 0.32 | 51 | 1004.5 |
| 20260510001526 | 62 | 316 | 1.0 | 8.0 | 0.00 | 0.32 | 0.32 | 51 | 1004.5 |
| 20260510001422 | 62 | 351 | 0.0 | 8.0 | 0.00 | 0.32 | 0.32 | 52 | 1004.5 |
| 20260510001316 | 62 | 339 | 2.0 | 8.0 | 0.00 | 0.32 | 0.32 | 50 | 1004.5 |
| 20260510001209 | 62 | 320 | 2.0 | 8.0 | 0.00 | 0.32 | 0.32 | 50 | 1004.5 |
| 20260510001104 | 62 | 300 | 1.0 | 8.0 | 0.00 | 0.32 | 0.32 | 50 | 1004.5 |
| 20260510000959 | 62 | 283 | 2.0 | 8.0 | 0.00 | 0.32 | 0.32 | 50 | 1004.1 |
| 20260510000853 | 62 | 309 | 2.0 | 8.0 | 0.00 | 0.32 | 0.32 | 50 | 1004.5 |
| 20260510000747 | 62 | 247 | 1.0 | 8.0 | 0.00 | 0.32 | 0.32 | 50 | 1004.1 |
| 20260510000659 | 62 | 282 | 1.0 | 8.0 | 0.00 | 0.32 | 0.32 | 50 | 1004.1 |
| 20260510000642 | 62 | 315 | 2.0 | 8.0 | 0.00 | 0.32 | 0.32 | 50 | 1004.1 |
| 20260510000548 | 62 | 241 | 2.0 | 8.0 | 0.00 | 0.32 | 0.32 | 49 | 1004.1 |
| 20260510000433 | 63 | 224 | 2.0 | 8.0 | 0.00 | 0.32 | 0.32 | 50 | 1004.1 |
| 20260510000326 | 63 | 142 | 1.0 | 8.0 | 0.00 | 0.32 | 0.32 | 50 | 1004.1 |
| 20260510000219 | 63 | 272 | 1.0 | 8.0 | 0.00 | 0.32 | 0.32 | 49 | 1004.5 |
| 20260510000152 | 63 | 274 | 1.0 | 8.0 | 0.00 | 0.32 | 0.32 | 49 | 1004.5 |
| 20260510000112 | 63 | 325 | 2.0 | 8.0 | 0.00 | 0.32 | 0.32 | 49 | 1004.1 |
| 20260510000007 | 63 | 291 | 1.0 | 8.0 | 0.00 | 0.32 | 0.32 | 49 | 1004.1 |
| 20260509235901 | 63 | 312 | 5.0 | 8.0 | 0.00 | 0.32 | 0.32 | 48 | 1004.1 |
| 20260509235756 | 63 | 341 | 3.0 | 7.0 | 0.00 | 0.32 | 0.32 | 49 | 1004.1 |
| 20260509235649 | 63 | 302 | 1.0 | 9.0 | 0.00 | 0.32 | 0.32 | 48 | 1004.1 |
| 20260509235544 | 63 | 283 | 2.0 | 9.0 | 0.00 | 0.32 | 0.32 | 49 | 1004.1 |
| 20260509235439 | 63 | 274 | 4.0 | 9.0 | 0.00 | 0.32 | 0.32 | 48 | 1004.1 |
| 20260509235333 | 63 | 301 | 2.0 | 9.0 | 0.00 | 0.32 | 0.32 | 49 | 1003.8 |
| 20260509235227 | 63 | 217 | 2.0 | 9.0 | 0.00 | 0.32 | 0.32 | 49 | 1003.8 |
| 20260509235138 | 63 | 355 | 1.0 | 9.0 | 0.00 | 0.32 | 0.32 | 48 | 1004.1 |
| 20260509235122 | 63 | 335 | 2.0 | 9.0 | 0.00 | 0.32 | 0.32 | 48 | 1004.1 |
| 20260509235016 | 63 | 299 | 2.0 | 9.0 | 0.00 | 0.32 | 0.32 | 48 | 1004.1 |
| 20260509234911 | 64 | 0 | 0.0 | 9.0 | 0.00 | 0.32 | 0.32 | 48 | 1004.1 |
| 20260509234805 | 64 | 223 | 1.0 | 9.0 | 0.00 | 0.32 | 0.32 | 48 | 1004.1 |
| 20260509234659 | 64 | 285 | 4.0 | 6.0 | 0.00 | 0.32 | 0.32 | 47 | 1003.8 |
| 20260509234633 | 64 | 295 | 2.0 | 6.0 | 0.00 | 0.32 | 0.32 | 47 | 1004.1 |
| 20260509234553 | 64 | 8 | 2.0 | 6.0 | 0.00 | 0.32 | 0.32 | 48 | 1004.1 |
| 20260509234447 | 64 | 358 | 1.0 | 7.0 | 0.00 | 0.32 | 0.32 | 48 | 1003.8 |
| 20260509234342 | 64 | 327 | 3.0 | 7.0 | 0.00 | 0.32 | 0.32 | 47 | 1003.8 |
| 20260509234237 | 64 | 303 | 4.0 | 7.0 | 0.00 | 0.32 | 0.32 | 47 | 1004.1 |
| 20260509234131 | 64 | 235 | 1.0 | 7.0 | 0.00 | 0.32 | 0.32 | 47 | 1003.8 |
| 20260509234121 | 64 | 336 | 3.0 | 7.0 | 0.00 | 0.32 | 0.32 | 46 | 1003.8 |
| 20260509234117 | 64 | 290 | 2.0 | 7.0 | 0.00 | 0.32 | 0.32 | 47 | 1004.1 |
| 20260509234108 | 64 | 345 | 2.0 | 7.0 | 0.00 | 0.32 | 0.32 | 47 | 1004.1 |
| 20260509233845 | 64 | 297 | 2.0 | 7.0 | 0.00 | 0.32 | 0.32 | 47 | 1003.8 |
| 20260509233836 | 64 | 129 | 4.0 | 7.0 | 0.00 | 0.32 | 0.32 | 46 | 1003.8 |
| 20260509233602 | 64 | 330 | 3.0 | 7.0 | 0.00 | 0.32 | 0.32 | 46 | 1003.8 |
| 20260509233457 | 64 | 138 | 2.0 | 8.0 | 0.00 | 0.32 | 0.32 | 46 | 1003.4 |
| 20260509233415 | 65 | 79 | 3.0 | 11.0 | 0.00 | 0.32 | 0.32 | 45 | 1003.8 |
| 20260509233411 | 65 | 256 | 3.0 | 16.0 | 0.00 | 0.32 | 0.32 | 44 | 1003.4 |
| 20260509233407 | 64 | 51 | 1.0 | 8.0 | 0.00 | 0.32 | 0.32 | 45 | 1003.8 |
| 20260509233358 | 64 | 329 | 3.0 | 16.0 | 0.00 | 0.32 | 0.32 | 45 | 1003.8 |
| 20260509233350 | 65 | 299 | 5.0 | 16.0 | 0.00 | 0.32 | 0.32 | 44 | 1003.8 |
| 20260509233128 | 65 | 302 | 4.0 | 16.0 | 0.00 | 0.32 | 0.32 | 44 | 1003.8 |
| 20260509233119 | 65 | 309 | 2.0 | 16.0 | 0.00 | 0.32 | 0.32 | 46 | 1003.4 |
| 20260509232900 | 65 | 295 | 3.0 | 16.0 | 0.00 | 0.32 | 0.32 | 44 | 1003.8 |
| 20260509232852 | 65 | 191 | 1.0 | 16.0 | 0.00 | 0.32 | 0.32 | 44 | 1003.8 |
| 20260509232842 | 65 | 256 | 3.0 | 16.0 | 0.00 | 0.32 | 0.32 | 44 | 1003.4 |
| 20260509232622 | 65 | 303 | 7.0 | 16.0 | 0.00 | 0.32 | 0.32 | 43 | 1003.4 |
| 20260509232402 | 65 | 324 | 9.0 | 16.0 | 0.00 | 0.32 | 0.32 | 43 | 1003.8 |
| 20260509232354 | 65 | 216 | 4.0 | 18.0 | 0.00 | 0.32 | 0.32 | 43 | 1003.4 |
| 20260509232349 | 65 | 302 | 4.0 | 11.0 | 0.00 | 0.32 | 0.32 | 43 | 1003.8 |
| 20260509232341 | 65 | 276 | 4.0 | 11.0 | 0.00 | 0.32 | 0.32 | 44 | 1003.8 |
| 20260509232119 | 65 | 223 | 3.0 | 11.0 | 0.00 | 0.32 | 0.32 | 44 | 1003.8 |
| 20260509232110 | 65 | 359 | 5.0 | 11.0 | 0.00 | 0.32 | 0.32 | 44 | 1003.8 |
| 20260509231851 | 65 | 266 | 7.0 | 18.0 | 0.00 | 0.32 | 0.32 | 43 | 1003.8 |
| 20260509231842 | 65 | 251 | 5.0 | 18.0 | 0.00 | 0.32 | 0.32 | 43 | 1003.4 |
| 20260509231834 | 65 | 246 | 4.0 | 18.0 | 0.00 | 0.32 | 0.32 | 45 | 1003.8 |
| 20260509231600 | 65 | 267 | 4.0 | 18.0 | 0.00 | 0.32 | 0.32 | 45 | 1003.8 |
| 20260509231556 | 65 | 263 | 4.0 | 18.0 | 0.00 | 0.32 | 0.32 | 43 | 1003.8 |
| 20260509231548 | 65 | 236 | 1.0 | 18.0 | 0.00 | 0.32 | 0.32 | 44 | 1003.4 |
| 20260509231323 | 65 | 79 | 4.0 | 18.0 | 0.00 | 0.32 | 0.32 | 42 | 1003.8 |
| 20260509231315 | 65 | 21 | 6.0 | 18.0 | 0.00 | 0.32 | 0.32 | 42 | 1003.4 |
| 20260509231305 | 65 | 216 | 4.0 | 18.0 | 0.00 | 0.32 | 0.32 | 43 | 1003.4 |
| 20260509231043 | 66 | 207 | 6.0 | 16.0 | 0.00 | 0.32 | 0.32 | 41 | 1003.4 |
| 20260509231039 | 65 | 221 | 8.0 | 18.0 | 0.00 | 0.32 | 0.32 | 41 | 1003.4 |
| 20260509231030 | 66 | 335 | 7.0 | 16.0 | 0.00 | 0.32 | 0.32 | 42 | 1003.8 |
| 20260509230807 | 66 | 233 | 6.0 | 16.0 | 0.00 | 0.32 | 0.32 | 42 | 1003.4 |
| 20260509230758 | 66 | 242 | 5.0 | 16.0 | 0.00 | 0.32 | 0.32 | 41 | 1003.4 |
| 20260509230522 | 66 | 150 | 4.0 | 16.0 | 0.00 | 0.32 | 0.32 | 41 | 1003.4 |
| 20260509230417 | 67 | 234 | 11.0 | 16.0 | 0.00 | 0.32 | 0.32 | 40 | 1003.4 |
| 20260509230310 | 67 | 267 | 7.0 | 16.0 | 0.00 | 0.32 | 0.32 | 40 | 1003.8 |
| 20260509230300 | 67 | 277 | 6.0 | 16.0 | 0.00 | 0.32 | 0.32 | 41 | 1003.4 |
| 20260509230251 | 67 | 182 | 3.0 | 16.0 | 0.00 | 0.32 | 0.32 | 41 | 1003.4 |
| 20260509225954 | 67 | 290 | 2.0 | 16.0 | 0.00 | 0.32 | 0.32 | 41 | 1003.4 |
| 20260509225849 | 67 | 330 | 8.0 | 16.0 | 0.00 | 0.32 | 0.32 | 41 | 1003.4 |
| 20260509225741 | 67 | 206 | 6.0 | 16.0 | 0.00 | 0.32 | 0.32 | 41 | 1003.4 |
| 20260509225635 | 67 | 0 | 2.0 | 16.0 | 0.00 | 0.32 | 0.32 | 41 | 1003.4 |
| 20260509225529 | 66 | 337 | 2.0 | 16.0 | 0.00 | 0.32 | 0.32 | 42 | 1003.1 |
| 20260509225424 | 66 | 284 | 8.0 | 16.0 | 0.00 | 0.32 | 0.32 | 41 | 1003.4 |
| 20260509225318 | 66 | 313 | 3.0 | 13.0 | 0.00 | 0.32 | 0.32 | 43 | 1003.4 |
| 20260509225212 | 66 | 289 | 3.0 | 13.0 | 0.00 | 0.32 | 0.32 | 42 | 1003.4 |
| 20260509225106 | 66 | 328 | 4.0 | 13.0 | 0.00 | 0.32 | 0.32 | 41 | 1003.4 |
| 20260509225018 | 66 | 303 | 5.0 | 13.0 | 0.00 | 0.32 | 0.32 | 42 | 1003.1 |
| 20260509225001 | 66 | 118 | 4.0 | 13.0 | 0.00 | 0.32 | 0.32 | 41 | 1003.1 |
| 20260509224855 | 66 | 242 | 6.0 | 13.0 | 0.00 | 0.32 | 0.32 | 42 | 1003.4 |
| 20260509224749 | 66 | 318 | 5.0 | 13.0 | 0.00 | 0.32 | 0.32 | 41 | 1003.1 |
| 20260509224644 | 66 | 133 | 3.0 | 13.0 | 0.00 | 0.32 | 0.32 | 43 | 1003.4 |
| 20260509224536 | 66 | 303 | 1.0 | 13.0 | 0.00 | 0.32 | 0.32 | 44 | 1003.1 |
| 20260509224510 | 66 | 242 | 3.0 | 13.0 | 0.00 | 0.32 | 0.32 | 44 | 1003.1 |
| 20260509224430 | 66 | 270 | 4.0 | 13.0 | 0.00 | 0.32 | 0.32 | 43 | 1003.1 |
| 20260509224324 | 66 | 292 | 5.0 | 13.0 | 0.00 | 0.32 | 0.32 | 42 | 1003.1 |
| 20260509224219 | 66 | 223 | 3.0 | 14.0 | 0.00 | 0.32 | 0.32 | 43 | 1003.1 |
| 20260509224113 | 66 | 63 | 0.0 | 14.0 | 0.00 | 0.32 | 0.32 | 42 | 1003.1 |
| 20260509224007 | 66 | 195 | 3.0 | 14.0 | 0.00 | 0.32 | 0.32 | 44 | 1003.1 |
| 20260509223901 | 66 | 277 | 1.0 | 14.0 | 0.00 | 0.32 | 0.32 | 45 | 1003.1 |
| 20260509223756 | 66 | 283 | 2.0 | 14.0 | 0.00 | 0.32 | 0.32 | 43 | 1002.8 |
| 20260509223650 | 66 | 261 | 2.0 | 14.0 | 0.00 | 0.32 | 0.32 | 44 | 1003.1 |
| 20260509223544 | 66 | 282 | 4.0 | 14.0 | 0.00 | 0.32 | 0.32 | 42 | 1002.8 |
| 20260509223455 | 66 | 307 | 2.0 | 14.0 | 0.00 | 0.32 | 0.32 | 44 | 1002.8 |
| 20260509223438 | 66 | 313 | 3.0 | 14.0 | 0.00 | 0.32 | 0.32 | 42 | 1002.8 |
| 20260509223332 | 66 | 245 | 4.0 | 14.0 | 0.00 | 0.32 | 0.32 | 42 | 1003.1 |
| 20260509223227 | 67 | 226 | 8.0 | 14.0 | 0.00 | 0.32 | 0.32 | 42 | 1003.1 |
| 20260509223122 | 67 | 98 | 4.0 | 14.0 | 0.00 | 0.32 | 0.32 | 42 | 1002.8 |
| 20260509223016 | 67 | 213 | 6.0 | 14.0 | 0.00 | 0.32 | 0.32 | 40 | 1002.8 |
| 20260509222949 | 67 | 270 | 10.0 | 14.0 | 0.00 | 0.32 | 0.32 | 41 | 1002.8 |
| 20260509222910 | 67 | 189 | 2.0 | 11.0 | 0.00 | 0.32 | 0.32 | 42 | 1002.8 |
| 20260509222804 | 67 | 252 | 7.0 | 11.0 | 0.00 | 0.32 | 0.32 | 41 | 1002.8 |
| 20260509222659 | 67 | 112 | 4.0 | 11.0 | 0.00 | 0.32 | 0.32 | 42 | 1002.8 |
| 20260509222553 | 68 | 134 | 5.0 | 11.0 | 0.00 | 0.32 | 0.32 | 42 | 1002.8 |
| 20260509222447 | 68 | 293 | 5.0 | 7.0 | 0.00 | 0.32 | 0.32 | 41 | 1002.8 |
| 20260509222341 | 68 | 224 | 2.0 | 14.0 | 0.00 | 0.32 | 0.32 | 42 | 1002.8 |
| 20260509222236 | 68 | 345 | 1.0 | 16.0 | 0.00 | 0.32 | 0.32 | 43 | 1002.8 |
| 20260509222131 | 68 | 229 | 3.0 | 16.0 | 0.00 | 0.32 | 0.32 | 43 | 1002.8 |
| 20260509222024 | 69 | 207 | 3.0 | 16.0 | 0.00 | 0.32 | 0.32 | 42 | 1002.8 |
| 20260509221937 | 68 | 232 | 1.0 | 16.0 | 0.00 | 0.32 | 0.32 | 43 | 1002.8 |
| 20260509221919 | 68 | 251 | 1.0 | 16.0 | 0.00 | 0.32 | 0.32 | 43 | 1002.8 |
| 20260509221814 | 68 | 309 | 1.0 | 16.0 | 0.00 | 0.32 | 0.32 | 43 | 1002.8 |
| 20260509221709 | 68 | 254 | 4.0 | 16.0 | 0.00 | 0.32 | 0.32 | 42 | 1002.8 |
| 20260509221601 | 68 | 138 | 1.0 | 16.0 | 0.00 | 0.32 | 0.32 | 42 | 1002.8 |
| 20260509221455 | 68 | 257 | 4.0 | 16.0 | 0.00 | 0.32 | 0.32 | 42 | 1002.8 |
| 20260509221429 | 68 | 297 | 6.0 | 16.0 | 0.00 | 0.32 | 0.32 | 42 | 1002.3 |
| 20260509221350 | 68 | 260 | 9.0 | 16.0 | 0.00 | 0.32 | 0.32 | 42 | 1002.3 |
| 20260509221244 | 68 | 315 | 10.0 | 14.0 | 0.00 | 0.32 | 0.32 | 42 | 1002.3 |
| 20260509221138 | 68 | 278 | 2.0 | 11.0 | 0.00 | 0.32 | 0.32 | 45 | 1002.3 |
| 20260509221032 | 68 | 285 | 3.0 | 11.0 | 0.00 | 0.32 | 0.32 | 43 | 1002.3 |
| 20260509220926 | 68 | 234 | 4.0 | 11.0 | 0.00 | 0.32 | 0.32 | 43 | 1002.3 |
| 20260509220821 | 68 | 359 | 2.0 | 11.0 | 0.00 | 0.32 | 0.32 | 45 | 1002.3 |
| 20260509220716 | 67 | 118 | 2.0 | 11.0 | 0.00 | 0.32 | 0.32 | 43 | 1002.3 |
| 20260509220611 | 67 | 211 | 2.0 | 11.0 | 0.00 | 0.32 | 0.32 | 44 | 1002.3 |
| 20260509220505 | 67 | 259 | 2.0 | 11.0 | 0.00 | 0.32 | 0.32 | 43 | 1002.3 |
| 20260509220417 | 67 | 281 | 3.0 | 11.0 | 0.00 | 0.32 | 0.32 | 43 | 1002.3 |
| 20260509220358 | 67 | 274 | 4.0 | 7.0 | 0.00 | 0.32 | 0.32 | 44 | 1002.3 |
| 20260509220253 | 68 | 311 | 6.0 | 13.0 | 0.00 | 0.32 | 0.32 | 44 | 1002.3 |
| 20260509220147 | 68 | 272 | 2.0 | 13.0 | 0.00 | 0.32 | 0.32 | 43 | 1002.3 |
| 20260509220041 | 67 | 134 | 1.0 | 16.0 | 0.00 | 0.32 | 0.32 | 44 | 1002.0 |
| 20260509215936 | 67 | 219 | 1.0 | 16.0 | 0.00 | 0.32 | 0.32 | 44 | 1002.0 |
| 20260509215909 | 67 | 323 | 1.0 | 16.0 | 0.00 | 0.32 | 0.32 | 45 | 1002.0 |
| 20260509215828 | 67 | 164 | 1.0 | 16.0 | 0.00 | 0.32 | 0.32 | 43 | 1002.3 |
| 20260509215724 | 66 | 287 | 2.0 | 16.0 | 0.00 | 0.32 | 0.32 | 44 | 1002.3 |
| 20260509215617 | 66 | 91 | 1.0 | 16.0 | 0.00 | 0.32 | 0.32 | 44 | 1002.3 |
| 20260509215512 | 66 | 243 | 3.0 | 16.0 | 0.00 | 0.32 | 0.32 | 43 | 1002.3 |
| 20260509215405 | 66 | 253 | 6.0 | 16.0 | 0.00 | 0.32 | 0.32 | 43 | 1002.3 |
| 20260509215300 | 66 | 90 | 2.0 | 16.0 | 0.00 | 0.32 | 0.32 | 45 | 1002.3 |
| 20260509215155 | 67 | 240 | 7.0 | 16.0 | 0.00 | 0.32 | 0.32 | 43 | 1002.3 |
| 20260509215128 | 67 | 259 | 8.0 | 15.0 | 0.00 | 0.32 | 0.32 | 43 | 1002.3 |
| 20260509215124 | 67 | 236 | 3.0 | 15.0 | 0.00 | 0.32 | 0.32 | 45 | 1002.0 |
| 20260509215116 | 67 | 230 | 5.0 | 15.0 | 0.00 | 0.32 | 0.32 | 45 | 1002.3 |
| 20260509214837 | 67 | 197 | 8.0 | 15.0 | 0.00 | 0.32 | 0.32 | 44 | 1002.3 |
| 20260509214732 | 67 | 154 | 4.0 | 15.0 | 0.00 | 0.32 | 0.32 | 43 | 1002.0 |
| 20260509214627 | 68 | 325 | 3.0 | 15.0 | 0.00 | 0.32 | 0.32 | 42 | 1002.0 |
| 20260509214521 | 68 | 311 | 6.0 | 15.0 | 0.00 | 0.32 | 0.32 | 41 | 1002.0 |
| 20260509214415 | 68 | 266 | 7.0 | 22.0 | 0.00 | 0.32 | 0.32 | 41 | 1001.6 |
| 20260509214350 | 68 | 195 | 11.0 | 22.0 | 0.00 | 0.32 | 0.32 | 40 | 1001.6 |
| 20260509214311 | 68 | 211 | 7.0 | 22.0 | 0.00 | 0.32 | 0.32 | 42 | 1002.0 |
| 20260509214205 | 68 | 261 | 9.0 | 22.0 | 0.00 | 0.32 | 0.32 | 41 | 1002.0 |
| 20260509214101 | 68 | 325 | 2.0 | 22.0 | 0.00 | 0.32 | 0.32 | 42 | 1002.0 |
| 20260509213954 | 68 | 244 | 4.0 | 22.0 | 0.00 | 0.32 | 0.32 | 42 | 1002.0 |
| 20260509213848 | 68 | 242 | 3.0 | 22.0 | 0.00 | 0.32 | 0.32 | 43 | 1001.6 |
| 20260509213742 | 68 | 130 | 2.0 | 22.0 | 0.00 | 0.32 | 0.32 | 41 | 1001.6 |
| 20260509213637 | 68 | 271 | 2.0 | 22.0 | 0.00 | 0.32 | 0.32 | 42 | 1001.6 |
| 20260509213531 | 68 | 269 | 3.0 | 22.0 | 0.00 | 0.32 | 0.32 | 42 | 1001.6 |
| 20260509213426 | 67 | 224 | 10.0 | 22.0 | 0.00 | 0.32 | 0.32 | 41 | 1002.0 |
| 20260509213337 | 67 | 228 | 5.0 | 18.0 | 0.00 | 0.32 | 0.32 | 41 | 1002.0 |
| 20260509213322 | 67 | 245 | 3.0 | 18.0 | 0.00 | 0.32 | 0.32 | 41 | 1002.0 |
| 20260509213215 | 67 | 160 | 4.0 | 18.0 | 0.00 | 0.32 | 0.32 | 42 | 1002.0 |
| 20260509213110 | 67 | 276 | 11.0 | 18.0 | 0.00 | 0.32 | 0.32 | 40 | 1002.3 |
| 20260509213003 | 67 | 232 | 8.0 | 18.0 | 0.00 | 0.32 | 0.32 | 40 | 1002.0 |
| 20260509212859 | 67 | 89 | 6.0 | 18.0 | 0.00 | 0.32 | 0.32 | 40 | 1002.0 |
| 20260509212831 | 67 | 252 | 8.0 | 18.0 | 0.00 | 0.32 | 0.32 | 40 | 1001.6 |
| 20260509212752 | 67 | 248 | 9.0 | 18.0 | 0.00 | 0.32 | 0.32 | 40 | 1001.6 |
| 20260509212647 | 67 | 217 | 6.0 | 18.0 | 0.00 | 0.32 | 0.32 | 40 | 1002.0 |
| 20260509212539 | 67 | 243 | 5.0 | 18.0 | 0.00 | 0.32 | 0.32 | 40 | 1001.6 |
| 20260509212433 | 68 | 251 | 8.0 | 18.0 | 0.00 | 0.32 | 0.32 | 40 | 1002.0 |
| 20260509212327 | 68 | 241 | 12.0 | 18.0 | 0.00 | 0.32 | 0.32 | 40 | 1002.0 |
| 20260509212221 | 68 | 272 | 5.0 | 13.0 | 0.00 | 0.32 | 0.32 | 42 | 1002.0 |
| 20260509212116 | 68 | 228 | 6.0 | 13.0 | 0.00 | 0.32 | 0.32 | 40 | 1002.0 |
| 20260509212010 | 68 | 214 | 5.0 | 15.0 | 0.00 | 0.32 | 0.32 | 43 | 1002.0 |
| 20260509211904 | 68 | 212 | 6.0 | 15.0 | 0.00 | 0.32 | 0.32 | 42 | 1002.0 |
| 20260509211816 | 68 | 156 | 3.0 | 15.0 | 0.00 | 0.32 | 0.32 | 44 | 1001.6 |
| 20260509211759 | 68 | 284 | 3.0 | 15.0 | 0.00 | 0.32 | 0.32 | 44 | 1001.6 |
| 20260509211653 | 68 | 241 | 4.0 | 15.0 | 0.00 | 0.32 | 0.32 | 42 | 1001.6 |
| 20260509211547 | 68 | 236 | 3.0 | 16.0 | 0.00 | 0.32 | 0.32 | 41 | 1002.0 |
| 20260509211443 | 68 | 197 | 5.0 | 16.0 | 0.00 | 0.32 | 0.32 | 42 | 1001.6 |
| 20260509211336 | 68 | 273 | 6.0 | 16.0 | 0.00 | 0.32 | 0.32 | 41 | 1001.6 |
| 20260509211310 | 68 | 168 | 5.0 | 16.0 | 0.00 | 0.32 | 0.32 | 42 | 1001.6 |
| 20260509211244 | 68 | 299 | 6.0 | 16.0 | 0.00 | 0.32 | 0.32 | 42 | 1002.0 |
| 20260509211122 | 66 | 218 | 2.0 | 14.0 | 0.00 | 0.32 | 0.32 | 50 | 1002.8 |
| 20260509211117 | 67 | 225 | 5.0 | 16.0 | 0.00 | 0.32 | 0.32 | 45 | 1002.0 |
| 20260509211056 | 67 | 229 | 4.0 | 16.0 | 0.00 | 0.32 | 0.32 | 45 | 1002.0 |
| 20260509211047 | 67 | 284 | 4.0 | 16.0 | 0.00 | 0.32 | 0.32 | 42 | 1002.0 |
| 20260509210826 | 67 | 160 | 3.0 | 16.0 | 0.00 | 0.32 | 0.32 | 44 | 1002.0 |
| 20260509210822 | 67 | 197 | 6.0 | 16.0 | 0.00 | 0.32 | 0.32 | 42 | 1002.0 |
| 20260509210813 | 67 | 216 | 11.0 | 16.0 | 0.00 | 0.32 | 0.32 | 41 | 1002.0 |
| 20260509210554 | 67 | 120 | 6.0 | 14.0 | 0.00 | 0.32 | 0.32 | 42 | 1002.0 |
| 20260509210545 | 67 | 215 | 6.0 | 14.0 | 0.00 | 0.32 | 0.32 | 43 | 1002.0 |
| 20260509210324 | 67 | 214 | 6.0 | 13.0 | 0.00 | 0.32 | 0.32 | 44 | 1002.0 |
| 20260509210314 | 67 | 226 | 4.0 | 13.0 | 0.00 | 0.32 | 0.32 | 43 | 1002.0 |
| 20260509210310 | 67 | 238 | 7.0 | 13.0 | 0.00 | 0.32 | 0.32 | 42 | 1001.6 |
| 20260509210301 | 67 | 259 | 7.0 | 13.0 | 0.00 | 0.32 | 0.32 | 43 | 1001.6 |
| 20260509210041 | 66 | 244 | 4.0 | 14.0 | 0.00 | 0.32 | 0.32 | 48 | 1002.0 |
| 20260509210037 | 67 | 149 | 4.0 | 13.0 | 0.00 | 0.32 | 0.32 | 44 | 1002.0 |
| 20260509210028 | 67 | 201 | 8.0 | 13.0 | 0.00 | 0.32 | 0.32 | 43 | 1002.0 |
| 20260509205805 | 67 | 146 | 6.0 | 13.0 | 0.00 | 0.32 | 0.32 | 45 | 1002.0 |
| 20260509205801 | 67 | 256 | 5.0 | 13.0 | 0.00 | 0.32 | 0.32 | 47 | 1002.0 |
| 20260509205753 | 67 | 173 | 2.0 | 13.0 | 0.00 | 0.32 | 0.32 | 45 | 1002.0 |
| 20260509205744 | 67 | 268 | 6.0 | 13.0 | 0.00 | 0.32 | 0.32 | 45 | 1002.0 |
| 20260509205524 | 67 | 261 | 6.0 | 11.0 | 0.00 | 0.32 | 0.32 | 43 | 1002.0 |
| 20260509205515 | 67 | 234 | 4.0 | 13.0 | 0.00 | 0.32 | 0.32 | 45 | 1002.0 |
| 20260509205254 | 67 | 289 | 6.0 | 13.0 | 0.00 | 0.32 | 0.32 | 47 | 1002.0 |
| 20260509205250 | 67 | 206 | 2.0 | 13.0 | 0.00 | 0.32 | 0.32 | 46 | 1002.0 |
| 20260509205242 | 67 | 272 | 4.0 | 13.0 | 0.00 | 0.32 | 0.32 | 47 | 1002.0 |
| 20260509205022 | 67 | 196 | 3.0 | 13.0 | 0.00 | 0.32 | 0.32 | 46 | 1002.3 |
| 20260509205013 | 67 | 277 | 4.0 | 14.0 | 0.00 | 0.32 | 0.32 | 47 | 1002.0 |
| 20260509205005 | 66 | 220 | 8.0 | 14.0 | 0.00 | 0.32 | 0.32 | 46 | 1002.0 |
| 20260509204743 | 66 | 253 | 3.0 | 14.0 | 0.00 | 0.32 | 0.32 | 46 | 1002.0 |
| 20260509204734 | 66 | 265 | 5.0 | 14.0 | 0.00 | 0.32 | 0.32 | 45 | 1002.0 |
| 20260509204515 | 66 | 337 | 5.0 | 14.0 | 0.00 | 0.32 | 0.32 | 48 | 1002.3 |
| 20260509204511 | 66 | 189 | 5.0 | 14.0 | 0.00 | 0.32 | 0.32 | 46 | 1002.0 |
| 20260509204502 | 66 | 273 | 10.0 | 14.0 | 0.00 | 0.32 | 0.32 | 45 | 1002.3 |
| 20260509204239 | 66 | 337 | 5.0 | 14.0 | 0.00 | 0.32 | 0.32 | 48 | 1002.3 |
| 20260509204230 | 67 | 239 | 4.0 | 14.0 | 0.00 | 0.32 | 0.32 | 47 | 1002.3 |
| 20260509204222 | 67 | 253 | 9.0 | 14.0 | 0.00 | 0.32 | 0.32 | 46 | 1002.3 |
| 20260509203957 | 67 | 228 | 4.0 | 14.0 | 0.00 | 0.32 | 0.32 | 50 | 1002.8 |
| 20260509203948 | 67 | 259 | 2.0 | 14.0 | 0.00 | 0.32 | 0.32 | 51 | 1002.8 |
| 20260509203727 | 66 | 273 | 4.0 | 14.0 | 0.00 | 0.32 | 0.32 | 49 | 1002.3 |
| 20260509203723 | 66 | 252 | 4.0 | 14.0 | 0.00 | 0.32 | 0.32 | 50 | 1002.3 |
| 20260509203715 | 66 | 231 | 3.0 | 14.0 | 0.00 | 0.32 | 0.32 | 50 | 1002.3 |
| 20260509203455 | 66 | 273 | 2.0 | 14.0 | 0.00 | 0.32 | 0.32 | 53 | 1002.3 |
| 20260509203446 | 66 | 277 | 3.0 | 14.0 | 0.00 | 0.32 | 0.32 | 51 | 1002.3 |
| 20260509203438 | 66 | 218 | 2.0 | 14.0 | 0.00 | 0.32 | 0.32 | 50 | 1002.8 |
| 20260509203128 | 66 | 223 | 6.0 | 14.0 | 0.00 | 0.32 | 0.32 | 50 | 1002.8 |
| 20260509203022 | 66 | 228 | 7.0 | 14.0 | 0.00 | 0.32 | 0.32 | 50 | 1002.3 |
| 20260509202943 | 66 | 239 | 7.0 | 13.0 | 0.00 | 0.32 | 0.32 | 49 | 1002.8 |
| 20260509202939 | 66 | 247 | 4.0 | 14.0 | 0.00 | 0.32 | 0.32 | 51 | 1002.3 |
| 20260509202930 | 65 | 247 | 5.0 | 14.0 | 0.00 | 0.32 | 0.32 | 49 | 1002.8 |
| 20260509202705 | 66 | 223 | 6.0 | 13.0 | 0.00 | 0.32 | 0.32 | 51 | 1002.8 |
| 20260509202559 | 65 | 178 | 6.0 | 13.0 | 0.00 | 0.32 | 0.32 | 49 | 1002.8 |
| 20260509202453 | 65 | 208 | 4.0 | 13.0 | 0.00 | 0.32 | 0.32 | 53 | 1002.8 |
| 20260509202436 | 65 | 213 | 4.0 | 14.0 | 0.00 | 0.32 | 0.32 | 51 | 1002.8 |
| 20260509202432 | 65 | 16 | 8.0 | 14.0 | 0.00 | 0.32 | 0.32 | 51 | 1002.8 |
| 20260509202423 | 65 | 206 | 6.0 | 14.0 | 0.00 | 0.32 | 0.32 | 51 | 1002.8 |
| 20260509202137 | 66 | 278 | 8.0 | 14.0 | 0.00 | 0.32 | 0.32 | 50 | 1002.3 |
| 20260509202031 | 65 | 229 | 4.0 | 14.0 | 0.00 | 0.32 | 0.32 | 52 | 1002.8 |
| 20260509201938 | 66 | 289 | 5.0 | 14.0 | 0.00 | 0.32 | 0.32 | 54 | 1002.8 |
| 20260509201934 | 65 | 217 | 2.0 | 14.0 | 0.00 | 0.32 | 0.32 | 53 | 1002.8 |
| 20260509201925 | 66 | 345 | 4.0 | 14.0 | 0.00 | 0.32 | 0.32 | 49 | 1002.3 |
| 20260509201917 | 66 | 328 | 10.0 | 14.0 | 0.00 | 0.32 | 0.32 | 52 | 1002.8 |
| 20260509201609 | 66 | 156 | 10.0 | 14.0 | 0.00 | 0.32 | 0.32 | 52 | 1002.8 |
| 20260509201503 | 66 | 322 | 10.0 | 14.0 | 0.00 | 0.32 | 0.32 | 51 | 1002.8 |
| 20260509201358 | 66 | 226 | 6.0 | 14.0 | 0.00 | 0.32 | 0.32 | 53 | 1002.8 |
| 20260509201252 | 66 | 258 | 6.0 | 14.0 | 0.00 | 0.32 | 0.32 | 53 | 1002.3 |
| 20260509201146 | 67 | 214 | 7.0 | 10.0 | 0.00 | 0.32 | 0.32 | 54 | 1002.8 |
| 20260509201040 | 67 | 107 | 4.0 | 11.0 | 0.00 | 0.32 | 0.32 | 61 | 1002.8 |
| 20260509200934 | 66 | 240 | 5.0 | 11.0 | 0.00 | 0.32 | 0.32 | 60 | 1002.8 |
| 20260509200828 | 66 | 336 | 1.0 | 11.0 | 0.00 | 0.32 | 0.32 | 65 | 1002.8 |
| 20260509200723 | 66 | 324 | 2.0 | 11.0 | 0.00 | 0.32 | 0.32 | 65 | 1002.8 |
| 20260509200646 | 65 | 246 | 1.0 | 11.0 | 0.00 | 0.32 | 0.32 | 65 | 1002.8 |
| 20260509200631 | 65 | 352 | 3.0 | 11.0 | 0.00 | 0.32 | 0.32 | 66 | 1002.8 |
| 20260509200511 | 65 | 244 | 4.0 | 11.0 | 0.00 | 0.32 | 0.32 | 66 | 1002.8 |
| 20260509200405 | 65 | 303 | 2.0 | 11.0 | 0.00 | 0.32 | 0.32 | 68 | 1002.8 |
| 20260509200300 | 64 | 275 | 2.0 | 11.0 | 0.00 | 0.32 | 0.32 | 67 | 1002.8 |
| 20260509200154 | 64 | 243 | 2.0 | 11.0 | 0.00 | 0.32 | 0.32 | 67 | 1002.8 |
| 20260509200139 | 64 | 100 | 1.0 | 11.0 | 0.00 | 0.32 | 0.32 | 67 | 1002.8 |
| 20260509195942 | 64 | 236 | 2.0 | 9.0 | 0.00 | 0.32 | 0.32 | 68 | 1002.8 |
| 20260509195837 | 64 | 241 | 5.0 | 9.0 | 0.00 | 0.32 | 0.32 | 68 | 1002.8 |
| 20260509195732 | 64 | 233 | 6.0 | 9.0 | 0.00 | 0.32 | 0.32 | 66 | 1002.8 |
| 20260509195632 | 64 | 266 | 4.0 | 7.0 | 0.00 | 0.32 | 0.32 | 70 | 1003.1 |
| 20260509195625 | 64 | 268 | 3.0 | 7.0 | 0.00 | 0.32 | 0.32 | 71 | 1003.1 |
| 20260509195519 | 64 | 249 | 5.0 | 7.0 | 0.01 | 0.32 | 0.32 | 68 | 1002.8 |
| 20260509195413 | 63 | 309 | 2.0 | 7.0 | 0.01 | 0.32 | 0.32 | 69 | 1002.8 |
| 20260509195308 | 63 | 271 | 4.0 | 7.0 | 0.01 | 0.32 | 0.32 | 70 | 1002.8 |
| 20260509195203 | 63 | 247 | 2.0 | 7.0 | 0.02 | 0.32 | 0.32 | 72 | 1002.8 |
| 20260509195124 | 63 | 332 | 2.0 | 7.0 | 0.03 | 0.32 | 0.32 | 71 | 1002.8 |
| 20260509195056 | 62 | 271 | 3.0 | 7.0 | 0.03 | 0.32 | 0.32 | 70 | 1002.8 |
| 20260509194951 | 62 | 261 | 2.0 | 7.0 | 0.05 | 0.32 | 0.32 | 72 | 1002.3 |
| 20260509194845 | 62 | 295 | 2.0 | 7.0 | 0.08 | 0.32 | 0.32 | 72 | 1002.3 |
| 20260509194740 | 62 | 231 | 3.0 | 6.0 | 0.11 | 0.32 | 0.32 | 76 | 1002.8 |
| 20260509194634 | 62 | 227 | 1.0 | 4.0 | 0.13 | 0.32 | 0.32 | 75 | 1002.8 |
| 20260509194618 | 62 | 226 | 1.0 | 4.0 | 0.13 | 0.32 | 0.32 | 75 | 1002.8 |
| 20260509194529 | 62 | 277 | 3.0 | 4.0 | 0.15 | 0.32 | 0.32 | 76 | 1002.8 |
| 20260509194423 | 62 | 280 | 4.0 | 4.0 | 0.23 | 0.32 | 0.32 | 78 | 1002.8 |
| 20260509194317 | 62 | 259 | 2.0 | 4.0 | 0.28 | 0.32 | 0.32 | 78 | 1002.8 |
| 20260509194211 | 62 | 290 | 1.0 | 3.0 | 0.31 | 0.32 | 0.32 | 82 | 1002.8 |
| 20260509194114 | 61 | 315 | 2.0 | 3.0 | 0.32 | 0.32 | 0.32 | 81 | 1002.8 |
| 20260509194000 | 61 | 290 | 1.0 | 4.0 | 0.32 | 0.32 | 0.32 | 82 | 1002.8 |
| 20260509193854 | 61 | 322 | 2.0 | 4.0 | 0.32 | 0.32 | 0.32 | 80 | 1002.8 |
| 20260509193748 | 61 | 89 | 2.0 | 4.0 | 0.32 | 0.32 | 0.32 | 81 | 1002.8 |
| 20260509193642 | 61 | 224 | 2.0 | 6.0 | 0.32 | 0.32 | 0.32 | 82 | 1002.8 |
| 20260509193605 | 60 | 189 | 1.0 | 6.0 | 0.32 | 0.32 | 0.32 | 83 | 1002.8 |
| 20260509193537 | 60 | 245 | 1.0 | 6.0 | 0.32 | 0.32 | 0.32 | 83 | 1002.8 |
| 20260509193431 | 60 | 235 | 3.0 | 6.0 | 0.32 | 0.32 | 0.32 | 82 | 1002.8 |
| 20260509193325 | 59 | 219 | 0.0 | 6.0 | 0.32 | 0.32 | 0.32 | 85 | 1002.8 |
| 20260509193220 | 59 | 209 | 1.0 | 6.0 | 0.32 | 0.32 | 0.32 | 84 | 1002.8 |
| 20260509193114 | 59 | 224 | 2.0 | 6.0 | 0.32 | 0.32 | 0.32 | 84 | 1002.8 |
| 20260509193058 | 58 | 288 | 3.0 | 6.0 | 0.32 | 0.32 | 0.32 | 84 | 1002.8 |
| 20260509193008 | 58 | 224 | 2.0 | 6.0 | 0.32 | 0.32 | 0.32 | 86 | 1002.8 |
| 20260509192904 | 58 | 219 | 2.0 | 6.0 | 0.32 | 0.32 | 0.32 | 86 | 1002.8 |
| 20260509192757 | 58 | 254 | 3.0 | 6.0 | 0.32 | 0.32 | 0.32 | 87 | 1002.8 |
| 20260509192652 | 58 | 223 | 1.0 | 3.0 | 0.32 | 0.32 | 0.32 | 90 | 1002.8 |
| 20260509192552 | 58 | 220 | 2.0 | 3.0 | 0.32 | 0.32 | 0.32 | 90 | 1003.1 |
| 20260509192546 | 58 | 173 | 2.0 | 3.0 | 0.32 | 0.32 | 0.32 | 90 | 1002.8 |
| 20260509192440 | 58 | 291 | 2.0 | 3.0 | 0.32 | 0.32 | 0.32 | 90 | 1002.8 |
| 20260509192334 | 57 | 222 | 0.0 | 3.0 | 0.32 | 0.32 | 0.32 | 91 | 1003.1 |
| 20260509192229 | 57 | 237 | 1.0 | 3.0 | 0.32 | 0.32 | 0.32 | 90 | 1003.1 |
| 20260509192124 | 57 | 241 | 1.0 | 3.0 | 0.32 | 0.32 | 0.32 | 91 | 1003.1 |
| 20260509192045 | 57 | 154 | 0.0 | 3.0 | 0.32 | 0.32 | 0.32 | 91 | 1003.1 |
| 20260509192018 | 56 | 171 | 2.0 | 3.0 | 0.32 | 0.32 | 0.32 | 91 | 1003.1 |
| 20260509191912 | 56 | 236 | 2.0 | 3.0 | 0.32 | 0.32 | 0.32 | 91 | 1003.1 |
| 20260509191806 | 56 | 225 | 1.0 | 3.0 | 0.32 | 0.32 | 0.32 | 91 | 1003.4 |
| 20260509191659 | 55 | 134 | 1.0 | 3.0 | 0.32 | 0.32 | 0.32 | 92 | 1003.1 |
| 20260509191553 | 55 | 229 | 1.0 | 3.0 | 0.32 | 0.32 | 0.32 | 91 | 1003.4 |
| 20260509191537 | 55 | 197 | 1.0 | 3.0 | 0.32 | 0.32 | 0.32 | 92 | 1003.4 |
| 20260509191447 | 55 | 240 | 2.0 | 3.0 | 0.32 | 0.32 | 0.32 | 91 | 1003.4 |
| 20260509191341 | 54 | 216 | 1.0 | 3.0 | 0.32 | 0.32 | 0.32 | 91 | 1003.1 |
| 20260509191236 | 54 | 234 | 2.0 | 3.0 | 0.32 | 0.32 | 0.32 | 91 | 1003.1 |
| 20260509191130 | 53 | 174 | 2.0 | 3.0 | 0.32 | 0.32 | 0.32 | 92 | 1003.1 |
| 20260509191031 | 53 | 228 | 1.0 | 3.0 | 0.32 | 0.32 | 0.32 | 91 | 1003.4 |
| 20260509191025 | 53 | 231 | 1.0 | 3.0 | 0.32 | 0.32 | 0.32 | 91 | 1003.4 |
| 20260509190919 | 52 | 184 | 2.0 | 3.0 | 0.32 | 0.32 | 0.32 | 91 | 1003.4 |
| 20260509190813 | 52 | 228 | 1.0 | 3.0 | 0.32 | 0.32 | 0.32 | 91 | 1003.1 |
| 20260509190708 | 52 | 212 | 1.0 | 3.0 | 0.32 | 0.32 | 0.32 | 91 | 1003.1 |
| 20260509190603 | 52 | 194 | 2.0 | 3.0 | 0.32 | 0.32 | 0.32 | 91 | 1003.4 |
| 20260509190525 | 52 | 221 | 1.0 | 3.0 | 0.32 | 0.32 | 0.32 | 91 | 1003.4 |
| 20260509190457 | 52 | 232 | 2.0 | 6.0 | 0.32 | 0.32 | 0.32 | 91 | 1003.4 |
| 20260509190351 | 52 | 211 | 2.0 | 9.0 | 0.32 | 0.32 | 0.32 | 91 | 1003.4 |
| 20260509190246 | 51 | 265 | 1.0 | 10.0 | 0.32 | 0.32 | 0.32 | 91 | 1003.4 |
| 20260509190140 | 51 | 221 | 2.0 | 10.0 | 0.32 | 0.32 | 0.32 | 90 | 1003.4 |
| 20260509190034 | 51 | 211 | 1.0 | 10.0 | 0.32 | 0.32 | 0.32 | 90 | 1003.4 |
| 20260509190019 | 51 | 191 | 2.0 | 10.0 | 0.32 | 0.32 | 0.32 | 90 | 1003.4 |
| 20260509185929 | 51 | 227 | 2.0 | 10.0 | 0.32 | 0.32 | 0.32 | 90 | 1003.4 |
| 20260509185823 | 51 | 261 | 2.0 | 10.0 | 0.32 | 0.32 | 0.32 | 90 | 1003.4 |
| 20260509185717 | 50 | 189 | 2.0 | 10.0 | 0.32 | 0.32 | 0.32 | 90 | 1003.4 |
| 20260509185612 | 50 | 232 | 1.0 | 10.0 | 0.31 | 0.31 | 0.31 | 90 | 1003.4 |
| 20260509185511 | 51 | 221 | 4.0 | 10.0 | 0.31 | 0.31 | 0.31 | 89 | 1003.4 |
| 20260509185505 | 51 | 227 | 2.0 | 10.0 | 0.31 | 0.31 | 0.31 | 89 | 1003.4 |
| 20260509185359 | 51 | 242 | 2.0 | 10.0 | 0.31 | 0.31 | 0.31 | 89 | 1003.4 |
| 20260509185254 | 51 | 143 | 5.0 | 14.0 | 0.30 | 0.30 | 0.31 | 89 | 1003.4 |
| 20260509185148 | 51 | 216 | 4.0 | 21.0 | 0.29 | 0.29 | 0.30 | 89 | 1003.8 |
| 20260509185043 | 51 | 196 | 3.0 | 21.0 | 0.27 | 0.27 | 0.29 | 89 | 1003.4 |
| 20260509185006 | 51 | 241 | 2.0 | 21.0 | 0.27 | 0.27 | 0.29 | 89 | 1003.4 |
| 20260509184937 | 51 | 121 | 2.0 | 21.0 | 0.24 | 0.24 | 0.27 | 88 | 1003.4 |
| 20260509184831 | 51 | 169 | 2.0 | 23.0 | 0.21 | 0.21 | 0.23 | 88 | 1003.8 |
| 20260509184727 | 51 | 217 | 5.0 | 23.0 | 0.19 | 0.19 | 0.20 | 87 | 1003.8 |
| 20260509184621 | 53 | 229 | 2.0 | 23.0 | 0.17 | 0.17 | 0.19 | 86 | 1003.8 |
| 20260509184515 | 55 | 91 | 3.0 | 23.0 | 0.09 | 0.09 | 0.16 | 84 | 1003.4 |
| 20260509184459 | 55 | 120 | 7.0 | 23.0 | 0.09 | 0.09 | 0.13 | 83 | 1003.4 |
| 20260509184409 | 57 | 253 | 8.0 | 23.0 | 0.04 | 0.04 | 0.08 | 80 | 1003.8 |
| 20260509184304 | 59 | 315 | 5.0 | 23.0 | 0.01 | 0.01 | 0.03 | 75 | 1003.8 |
| 20260509184158 | 61 | 263 | 14.0 | 23.0 | 0.00 | 0.00 | 0.01 | 69 | 1003.4 |
| 20260509184052 | 62 | 227 | 6.0 | 23.0 | 0.00 | 0.00 | 0.00 | 64 | 1003.4 |
| 20260509183950 | 64 | 302 | 10.0 | 23.0 | 0.00 | 0.00 | 0.00 | 58 | 1003.4 |
| 20260509183945 | 65 | 337 | 13.0 | 23.0 | 0.00 | 0.00 | 0.00 | 56 | 1002.3 |
| 20260509183840 | 65 | 23 | 4.0 | 13.0 | 0.00 | 0.00 | 0.00 | 56 | 1002.3 |
| 20260509183733 | 65 | 279 | 8.0 | 13.0 | 0.00 | 0.00 | 0.00 | 55 | 1002.3 |
| 20260509183627 | 66 | 273 | 4.0 | 13.0 | 0.00 | 0.00 | 0.00 | 56 | 1002.0 |
| 20260509183523 | 66 | 304 | 3.0 | 13.0 | 0.00 | 0.00 | 0.00 | 54 | 1002.3 |
| 20260509183444 | 66 | 221 | 3.0 | 13.0 | 0.00 | 0.00 | 0.00 | 54 | 1002.3 |
| 20260509183416 | 66 | 271 | 6.0 | 13.0 | 0.00 | 0.00 | 0.00 | 53 | 1002.0 |
| 20260509183311 | 66 | 243 | 3.0 | 13.0 | 0.00 | 0.00 | 0.00 | 53 | 1002.0 |
| 20260509183205 | 66 | 219 | 7.0 | 13.0 | 0.00 | 0.00 | 0.00 | 53 | 1002.0 |
| 20260509183059 | 66 | 218 | 4.0 | 11.0 | 0.00 | 0.00 | 0.00 | 54 | 1002.0 |
| 20260509182938 | 66 | 228 | 6.0 | 13.0 | 0.00 | 0.00 | 0.00 | 54 | 1002.0 |
| 20260509182848 | 66 | 229 | 3.0 | 13.0 | 0.00 | 0.00 | 0.00 | 54 | 1002.0 |
| 20260509182742 | 66 | 249 | 3.0 | 13.0 | 0.00 | 0.00 | 0.00 | 54 | 1002.0 |
| 20260509182637 | 66 | 256 | 6.0 | 13.0 | 0.00 | 0.00 | 0.00 | 54 | 1001.6 |
| 20260509182531 | 66 | 238 | 4.0 | 13.0 | 0.00 | 0.00 | 0.00 | 55 | 1001.6 |
| 20260509182432 | 66 | 201 | 3.0 | 13.0 | 0.00 | 0.00 | 0.00 | 55 | 1002.0 |
| 20260509182426 | 66 | 308 | 4.0 | 13.0 | 0.00 | 0.00 | 0.00 | 55 | 1002.0 |
| 20260509182320 | 66 | 206 | 7.0 | 13.0 | 0.00 | 0.00 | 0.00 | 55 | 1001.6 |
| 20260509182215 | 66 | 242 | 4.0 | 17.0 | 0.00 | 0.00 | 0.00 | 55 | 1001.6 |
| 20260509182121 | 66 | 197 | 4.0 | 17.0 | 0.00 | 0.00 | 0.00 | 55 | 1001.6 |
| 20260509182002 | 66 | 281 | 7.0 | 17.0 | 0.00 | 0.00 | 0.00 | 55 | 1001.6 |
| 20260509181925 | 66 | 246 | 6.0 | 17.0 | 0.00 | 0.00 | 0.00 | 56 | 1001.6 |
| 20260509181857 | 66 | 197 | 7.0 | 17.0 | 0.00 | 0.00 | 0.00 | 55 | 1001.6 |
| 20260509181751 | 66 | 221 | 5.0 | 18.0 | 0.00 | 0.00 | 0.00 | 56 | 1001.6 |
| 20260509181645 | 66 | 232 | 9.0 | 18.0 | 0.00 | 0.00 | 0.00 | 55 | 1001.6 |
| 20260509181538 | 66 | 205 | 10.0 | 18.0 | 0.00 | 0.00 | 0.00 | 55 | 1001.3 |
| 20260509181433 | 66 | 201 | 9.0 | 18.0 | 0.00 | 0.00 | 0.00 | 55 | 1001.6 |
| 20260509181418 | 67 | 194 | 7.0 | 18.0 | 0.00 | 0.00 | 0.00 | 55 | 1001.6 |
| 20260509181327 | 67 | 205 | 12.0 | 18.0 | 0.00 | 0.00 | 0.00 | 54 | 1001.6 |
| 20260509181221 | 66 | 153 | 5.0 | 18.0 | 0.00 | 0.00 | 0.00 | 56 | 1001.6 |
| 20260509181117 | 67 | 186 | 8.0 | 18.0 | 0.00 | 0.00 | 0.00 | 55 | 1001.6 |
| 20260509181011 | 67 | 228 | 6.0 | 18.0 | 0.00 | 0.00 | 0.00 | 55 | 1001.6 |
| 20260509180911 | 67 | 248 | 9.0 | 23.0 | 0.00 | 0.00 | 0.00 | 55 | 1001.6 |
| 20260509180905 | 67 | 231 | 8.0 | 23.0 | 0.00 | 0.00 | 0.00 | 55 | 1001.6 |
| 20260509180759 | 67 | 223 | 4.0 | 23.0 | 0.00 | 0.00 | 0.00 | 55 | 1001.6 |
| 20260509180654 | 67 | 218 | 6.0 | 23.0 | 0.00 | 0.00 | 0.00 | 55 | 1001.6 |
| 20260509180548 | 67 | 216 | 6.0 | 23.0 | 0.00 | 0.00 | 0.00 | 55 | 1001.6 |
| 20260509180442 | 66 | 243 | 8.0 | 23.0 | 0.00 | 0.00 | 0.00 | 54 | 1001.6 |
| 20260509180404 | 66 | 220 | 3.0 | 23.0 | 0.00 | 0.00 | 0.00 | 56 | 1001.6 |
| 20260509180337 | 66 | 191 | 6.0 | 23.0 | 0.00 | 0.00 | 0.00 | 55 | 1001.6 |
| 20260509180231 | 66 | 123 | 11.0 | 23.0 | 0.00 | 0.00 | 0.00 | 55 | 1001.6 |
| 20260509180125 | 66 | 248 | 6.0 | 23.0 | 0.00 | 0.00 | 0.00 | 55 | 1001.6 |
| 20260509180019 | 66 | 160 | 11.0 | 23.0 | 0.00 | 0.00 | 0.00 | 55 | 1001.6 |
| 20260509175913 | 67 | 205 | 9.0 | 14.0 | 0.00 | 0.00 | 0.00 | 55 | 1001.3 |
| 20260509175857 | 67 | 205 | 9.0 | 14.0 | 0.00 | 0.00 | 0.00 | 55 | 1001.3 |
| 20260509175806 | 67 | 214 | 8.0 | 14.0 | 0.00 | 0.00 | 0.00 | 55 | 1001.6 |
| 20260509175701 | 67 | 258 | 4.0 | 19.0 | 0.00 | 0.00 | 0.00 | 55 | 1001.6 |
| 20260509175556 | 67 | 263 | 6.0 | 19.0 | 0.00 | 0.00 | 0.00 | 55 | 1001.6 |
| 20260509175450 | 67 | 229 | 5.0 | 19.0 | 0.00 | 0.00 | 0.00 | 55 | 1001.6 |
| 20260509175350 | 67 | 152 | 4.0 | 19.0 | 0.00 | 0.00 | 0.00 | 55 | 1001.6 |
| 20260509175344 | 67 | 210 | 4.0 | 19.0 | 0.00 | 0.00 | 0.00 | 55 | 1001.6 |
| 20260509175238 | 67 | 231 | 6.0 | 19.0 | 0.00 | 0.00 | 0.00 | 55 | 1001.6 |
| 20260509175132 | 67 | 228 | 7.0 | 19.0 | 0.00 | 0.00 | 0.00 | 55 | 1001.6 |
| 20260509175026 | 67 | 187 | 11.0 | 19.0 | 0.00 | 0.00 | 0.00 | 54 | 1001.6 |
| 20260509174920 | 67 | 124 | 9.0 | 19.0 | 0.00 | 0.00 | 0.00 | 55 | 1001.6 |
| 20260509174843 | 67 | 178 | 6.0 | 19.0 | 0.00 | 0.00 | 0.00 | 55 | 1001.6 |
| 20260509174815 | 67 | 229 | 14.0 | 19.0 | 0.00 | 0.00 | 0.00 | 55 | 1001.6 |
| 20260509174709 | 67 | 235 | 7.0 | 17.0 | 0.00 | 0.00 | 0.00 | 54 | 1001.6 |
| 20260509174603 | 67 | 238 | 5.0 | 17.0 | 0.00 | 0.00 | 0.00 | 54 | 1002.0 |
| 20260509174458 | 67 | 236 | 7.0 | 17.0 | 0.00 | 0.00 | 0.00 | 55 | 1001.6 |
| 20260509174352 | 67 | 164 | 14.0 | 17.0 | 0.00 | 0.00 | 0.00 | 53 | 1001.6 |
| 20260509174336 | 67 | 188 | 10.0 | 17.0 | 0.00 | 0.00 | 0.00 | 53 | 1001.6 |
| 20260509174259 | 67 | 252 | 6.0 | 17.0 | 0.00 | 0.00 | 0.00 | 54 | 1001.6 |
| 20260509174140 | 67 | 234 | 11.0 | 17.0 | 0.00 | 0.00 | 0.00 | 54 | 1001.6 |
| 20260509174036 | 68 | 177 | 7.0 | 17.0 | 0.00 | 0.00 | 0.00 | 54 | 1001.6 |
| 20260509173930 | 68 | 231 | 11.0 | 19.0 | 0.00 | 0.00 | 0.00 | 54 | 1001.6 |
| 20260509173829 | 68 | 237 | 9.0 | 19.0 | 0.00 | 0.00 | 0.00 | 53 | 1002.0 |
| 20260509173823 | 68 | 273 | 5.0 | 19.0 | 0.00 | 0.00 | 0.00 | 53 | 1002.0 |
| 20260509173719 | 68 | 263 | 5.0 | 19.0 | 0.00 | 0.00 | 0.00 | 54 | 1002.0 |
| 20260509173613 | 67 | 115 | 4.0 | 19.0 | 0.00 | 0.00 | 0.00 | 56 | 1002.0 |
| 20260509173507 | 67 | 232 | 5.0 | 19.0 | 0.00 | 0.00 | 0.00 | 55 | 1002.0 |
| 20260509173401 | 67 | 251 | 6.0 | 19.0 | 0.00 | 0.00 | 0.00 | 54 | 1002.0 |
| 20260509173324 | 67 | 94 | 6.0 | 19.0 | 0.00 | 0.00 | 0.00 | 54 | 1002.0 |
| 20260509173256 | 67 | 249 | 8.0 | 19.0 | 0.00 | 0.00 | 0.00 | 54 | 1002.0 |
| 20260509173150 | 67 | 198 | 5.0 | 19.0 | 0.00 | 0.00 | 0.00 | 56 | 1002.0 |
| 20260509173042 | 67 | 224 | 7.0 | 19.0 | 0.00 | 0.00 | 0.00 | 56 | 1001.6 |
| 20260509172937 | 67 | 205 | 7.0 | 17.0 | 0.00 | 0.00 | 0.00 | 56 | 1001.6 |
| 20260509172815 | 67 | 228 | 13.0 | 17.0 | 0.00 | 0.00 | 0.00 | 55 | 1002.0 |
| 20260509172725 | 67 | 237 | 4.0 | 17.0 | 0.00 | 0.00 | 0.00 | 59 | 1001.6 |
| 20260509172620 | 67 | 182 | 8.0 | 17.0 | 0.00 | 0.00 | 0.00 | 59 | 1002.0 |
| 20260509172520 | 67 | 180 | 11.0 | 16.0 | 0.00 | 0.00 | 0.00 | 58 | 1002.0 |
| 20260509172408 | 67 | 230 | 3.0 | 16.0 | 0.00 | 0.00 | 0.00 | 58 | 1002.0 |
| 20260509172309 | 67 | 208 | 8.0 | 16.0 | 0.00 | 0.00 | 0.00 | 58 | 1002.0 |
| 20260509172306 | 67 | 208 | 8.0 | 16.0 | 0.00 | 0.00 | 0.00 | 58 | 1002.0 |
| 20260509172157 | 67 | 214 | 9.0 | 16.0 | 0.00 | 0.00 | 0.00 | 58 | 1002.0 |
| 20260509172051 | 66 | 200 | 9.0 | 16.0 | 0.00 | 0.00 | 0.00 | 58 | 1002.0 |
| 20260509171946 | 67 | 243 | 7.0 | 22.0 | 0.00 | 0.00 | 0.00 | 58 | 1002.0 |
| 20260509171840 | 67 | 204 | 11.0 | 22.0 | 0.00 | 0.00 | 0.00 | 58 | 1001.6 |
| 20260509171802 | 67 | 166 | 8.0 | 22.0 | 0.00 | 0.00 | 0.00 | 58 | 1001.6 |
| 20260509171734 | 67 | 129 | 3.0 | 22.0 | 0.00 | 0.00 | 0.00 | 58 | 1002.0 |
| 20260509171629 | 67 | 108 | 6.0 | 22.0 | 0.00 | 0.00 | 0.00 | 58 | 1001.6 |
| 20260509171523 | 67 | 218 | 3.0 | 22.0 | 0.00 | 0.00 | 0.00 | 58 | 1001.6 |
| 20260509171417 | 66 | 197 | 8.0 | 22.0 | 0.00 | 0.00 | 0.00 | 59 | 1001.6 |
| 20260509171311 | 66 | 205 | 6.0 | 22.0 | 0.00 | 0.00 | 0.00 | 59 | 1001.6 |
| 20260509171256 | 66 | 167 | 10.0 | 22.0 | 0.00 | 0.00 | 0.00 | 58 | 1001.6 |
| 20260509171206 | 67 | 192 | 12.0 | 22.0 | 0.00 | 0.00 | 0.00 | 58 | 1002.0 |
| 20260509171101 | 67 | 95 | 9.0 | 22.0 | 0.00 | 0.00 | 0.00 | 58 | 1002.0 |
| 20260509170955 | 67 | 157 | 7.0 | 18.0 | 0.00 | 0.00 | 0.00 | 58 | 1002.0 |
| 20260509170850 | 66 | 223 | 5.0 | 18.0 | 0.00 | 0.00 | 0.00 | 57 | 1002.0 |
| 20260509170749 | 66 | 181 | 4.0 | 18.0 | 0.00 | 0.00 | 0.00 | 59 | 1002.0 |
| 20260509170743 | 66 | 234 | 4.0 | 18.0 | 0.00 | 0.00 | 0.00 | 58 | 1002.0 |
| 20260509170638 | 66 | 231 | 6.0 | 18.0 | 0.00 | 0.00 | 0.00 | 58 | 1002.0 |
| 20260509170532 | 67 | 240 | 11.0 | 19.0 | 0.00 | 0.00 | 0.00 | 58 | 1002.3 |
| 20260509170426 | 67 | 141 | 8.0 | 19.0 | 0.00 | 0.00 | 0.00 | 58 | 1002.3 |
| 20260509170320 | 67 | 278 | 7.0 | 19.0 | 0.00 | 0.00 | 0.00 | 57 | 1002.0 |
| 20260509170244 | 66 | 228 | 9.0 | 19.0 | 0.00 | 0.00 | 0.00 | 58 | 1002.0 |
| 20260509170215 | 66 | 227 | 6.0 | 19.0 | 0.00 | 0.00 | 0.00 | 58 | 1002.0 |
| 20260509170110 | 66 | 227 | 6.0 | 19.0 | 0.00 | 0.00 | 0.00 | 58 | 1002.0 |
| 20260509170005 | 67 | 186 | 9.0 | 21.0 | 0.00 | 0.00 | 0.00 | 57 | 1002.3 |
| 20260509165859 | 66 | 174 | 5.0 | 21.0 | 0.00 | 0.00 | 0.00 | 57 | 1001.6 |
| 20260509165753 | 67 | 231 | 3.0 | 21.0 | 0.00 | 0.00 | 0.00 | 58 | 1002.3 |
| 20260509165737 | 67 | 231 | 3.0 | 21.0 | 0.00 | 0.00 | 0.00 | 58 | 1001.6 |
| 20260509165646 | 67 | 178 | 13.0 | 21.0 | 0.00 | 0.00 | 0.00 | 57 | 1002.0 |
| 20260509165541 | 66 | 208 | 6.0 | 21.0 | 0.00 | 0.00 | 0.00 | 57 | 1002.0 |
| 20260509165435 | 66 | 187 | 4.0 | 21.0 | 0.00 | 0.00 | 0.00 | 59 | 1002.0 |
| 20260509165330 | 66 | 219 | 5.0 | 21.0 | 0.00 | 0.00 | 0.00 | 58 | 1002.0 |
| 20260509165230 | 66 | 125 | 6.0 | 21.0 | 0.00 | 0.00 | 0.00 | 57 | 1002.0 |
| 20260509165224 | 66 | 171 | 12.0 | 21.0 | 0.00 | 0.00 | 0.00 | 57 | 1002.0 |
| 20260509165118 | 67 | 168 | 11.0 | 21.0 | 0.00 | 0.00 | 0.00 | 57 | 1002.0 |
| 20260509165014 | 67 | 208 | 9.0 | 19.0 | 0.00 | 0.00 | 0.00 | 56 | 1002.3 |
| 20260509164907 | 67 | 207 | 4.0 | 23.0 | 0.00 | 0.00 | 0.00 | 57 | 1002.3 |
| 20260509164835 | 62 | 172 | 4.0 | 13.0 | 0.00 | 0.00 | 0.00 | 66 | 1002.8 |
| 20260509164831 | 64 | 211 | 12.0 | 15.0 | 0.00 | 0.00 | 0.00 | 61 | 1002.0 |
| 20260509164827 | 67 | 224 | 11.0 | 23.0 | 0.00 | 0.00 | 0.00 | 55 | 1002.0 |
| 20260509164817 | 67 | 145 | 9.0 | 23.0 | 0.00 | 0.00 | 0.00 | 56 | 1002.0 |
| 20260509164812 | 67 | 154 | 6.0 | 23.0 | 0.00 | 0.00 | 0.00 | 56 | 1002.0 |
| 20260509164551 | 66 | 183 | 6.0 | 23.0 | 0.00 | 0.00 | 0.00 | 59 | 1002.0 |
| 20260509164542 | 65 | 134 | 6.0 | 23.0 | 0.00 | 0.00 | 0.00 | 59 | 1002.0 |
| 20260509164538 | 65 | 253 | 4.0 | 23.0 | 0.00 | 0.00 | 0.00 | 58 | 1002.3 |
| 20260509164529 | 65 | 189 | 5.0 | 23.0 | 0.00 | 0.00 | 0.00 | 58 | 1002.0 |
| 20260509164521 | 65 | 220 | 2.0 | 23.0 | 0.00 | 0.00 | 0.00 | 59 | 1002.0 |
| 20260509164255 | 65 | 268 | 12.0 | 23.0 | 0.00 | 0.00 | 0.00 | 57 | 1002.0 |
| 20260509164035 | 65 | 203 | 6.0 | 16.0 | 0.00 | 0.00 | 0.00 | 60 | 1002.3 |
| 20260509164031 | 65 | 204 | 11.0 | 23.0 | 0.00 | 0.00 | 0.00 | 58 | 1002.0 |
| 20260509164022 | 65 | 181 | 10.0 | 23.0 | 0.00 | 0.00 | 0.00 | 58 | 1002.0 |
| 20260509164013 | 65 | 226 | 9.0 | 19.0 | 0.00 | 0.00 | 0.00 | 58 | 1002.3 |
| 20260509163751 | 65 | 223 | 6.0 | 16.0 | 0.00 | 0.00 | 0.00 | 60 | 1002.3 |
| 20260509163744 | 65 | 207 | 10.0 | 16.0 | 0.00 | 0.00 | 0.00 | 59 | 1002.3 |
| 20260509163520 | 65 | 188 | 8.0 | 15.0 | 0.00 | 0.00 | 0.00 | 59 | 1002.3 |
| 20260509163516 | 65 | 208 | 13.0 | 15.0 | 0.00 | 0.00 | 0.00 | 60 | 1002.3 |
| 20260509163507 | 65 | 181 | 12.0 | 15.0 | 0.00 | 0.00 | 0.00 | 60 | 1002.3 |
| 20260509163459 | 65 | 196 | 7.0 | 15.0 | 0.00 | 0.00 | 0.00 | 60 | 1002.3 |
| 20260509163223 | 65 | 203 | 6.0 | 15.0 | 0.00 | 0.00 | 0.00 | 60 | 1002.3 |
| 20260509163215 | 65 | 182 | 10.0 | 15.0 | 0.00 | 0.00 | 0.00 | 60 | 1002.3 |
| 20260509162955 | 63 | 222 | 4.0 | 16.0 | 0.00 | 0.00 | 0.00 | 65 | 1002.8 |
| 20260509162951 | 65 | 236 | 4.0 | 15.0 | 0.00 | 0.00 | 0.00 | 62 | 1002.3 |
| 20260509162942 | 64 | 229 | 5.0 | 15.0 | 0.00 | 0.00 | 0.00 | 62 | 1002.3 |
| 20260509162934 | 64 | 211 | 12.0 | 15.0 | 0.00 | 0.00 | 0.00 | 61 | 1002.0 |
| 20260509162712 | 64 | 247 | 2.0 | 15.0 | 0.00 | 0.00 | 0.00 | 64 | 1002.0 |
| 20260509162703 | 63 | 211 | 7.0 | 15.0 | 0.00 | 0.00 | 0.00 | 63 | 1002.3 |
| 20260509162439 | 63 | 192 | 11.0 | 16.0 | 0.00 | 0.00 | 0.00 | 64 | 1002.3 |
| 20260509162431 | 63 | 188 | 6.0 | 16.0 | 0.00 | 0.00 | 0.00 | 64 | 1002.8 |
| 20260509162209 | 63 | 220 | 4.0 | 16.0 | 0.00 | 0.00 | 0.00 | 65 | 1002.8 |
| 20260509162201 | 63 | 177 | 4.0 | 16.0 | 0.00 | 0.00 | 0.00 | 64 | 1002.8 |
| 20260509161940 | 63 | 187 | 6.0 | 16.0 | 0.00 | 0.00 | 0.00 | 65 | 1002.8 |
| 20260509161936 | 63 | 203 | 5.0 | 16.0 | 0.00 | 0.00 | 0.00 | 65 | 1002.8 |
| 20260509161928 | 63 | 205 | 4.0 | 16.0 | 0.00 | 0.00 | 0.00 | 64 | 1002.8 |
| 20260509161919 | 63 | 214 | 7.0 | 16.0 | 0.00 | 0.00 | 0.00 | 65 | 1002.8 |
| 20260509161654 | 63 | 244 | 4.0 | 16.0 | 0.00 | 0.00 | 0.00 | 65 | 1002.3 |
| 20260509161633 | 63 | 224 | 10.0 | 16.0 | 0.00 | 0.00 | 0.00 | 64 | 1002.8 |
| 20260509161413 | 63 | 240 | 7.0 | 13.0 | 0.00 | 0.00 | 0.00 | 65 | 1002.8 |
| 20260509161405 | 62 | 184 | 10.0 | 13.0 | 0.00 | 0.00 | 0.00 | 66 | 1002.8 |
| 20260509161356 | 62 | 236 | 3.0 | 13.0 | 0.00 | 0.00 | 0.00 | 66 | 1002.8 |
| 20260509161047 | 62 | 223 | 5.0 | 13.0 | 0.00 | 0.00 | 0.00 | 66 | 1002.8 |
| 20260509160941 | 62 | 129 | 5.0 | 13.0 | 0.00 | 0.00 | 0.00 | 66 | 1002.8 |
| 20260509160904 | 62 | 186 | 9.0 | 13.0 | 0.00 | 0.00 | 0.00 | 66 | 1002.8 |
| 20260509160859 | 62 | 201 | 5.0 | 13.0 | 0.00 | 0.00 | 0.00 | 66 | 1002.8 |
| 20260509160850 | 62 | 180 | 7.0 | 13.0 | 0.00 | 0.00 | 0.00 | 67 | 1002.8 |
| 20260509160625 | 62 | 186 | 7.0 | 13.0 | 0.00 | 0.00 | 0.00 | 66 | 1002.8 |
| 20260509160519 | 62 | 216 | 7.0 | 15.0 | 0.00 | 0.00 | 0.00 | 66 | 1002.8 |
| 20260509160413 | 62 | 218 | 3.0 | 15.0 | 0.00 | 0.00 | 0.00 | 65 | 1002.8 |
| 20260509160307 | 62 | 218 | 6.0 | 16.0 | 0.00 | 0.00 | 0.00 | 65 | 1002.8 |
| 20260509160201 | 63 | 187 | 4.0 | 16.0 | 0.00 | 0.00 | 0.00 | 65 | 1002.8 |
| 20260509160123 | 63 | 149 | 5.0 | 16.0 | 0.00 | 0.00 | 0.00 | 65 | 1002.8 |
| 20260509160109 | 63 | 138 | 6.0 | 16.0 | 0.00 | 0.00 | 0.00 | 65 | 1002.8 |
| 20260509155951 | 63 | 191 | 6.0 | 16.0 | 0.00 | 0.00 | 0.00 | 65 | 1002.8 |
| 20260509155844 | 62 | 235 | 6.0 | 16.0 | 0.00 | 0.00 | 0.00 | 65 | 1002.8 |
| 20260509155738 | 62 | 195 | 4.0 | 16.0 | 0.00 | 0.00 | 0.00 | 65 | 1002.8 |
| 20260509155616 | 63 | 204 | 9.0 | 16.0 | 0.00 | 0.00 | 0.00 | 65 | 1002.8 |
| 20260509155526 | 63 | 206 | 9.0 | 16.0 | 0.00 | 0.00 | 0.00 | 65 | 1002.8 |
| 20260509155420 | 63 | 193 | 14.0 | 16.0 | 0.00 | 0.00 | 0.00 | 65 | 1002.8 |
| 20260509155315 | 63 | 204 | 9.0 | 15.0 | 0.00 | 0.00 | 0.00 | 65 | 1002.8 |
| 20260509155210 | 63 | 207 | 6.0 | 15.0 | 0.00 | 0.00 | 0.00 | 67 | 1002.8 |
| 20260509155110 | 63 | 177 | 6.0 | 15.0 | 0.00 | 0.00 | 0.00 | 66 | 1002.8 |
| 20260509155104 | 63 | 235 | 7.0 | 15.0 | 0.00 | 0.00 | 0.00 | 66 | 1002.8 |
| 20260509154956 | 63 | 178 | 12.0 | 15.0 | 0.00 | 0.00 | 0.00 | 66 | 1002.8 |
| 20260509154851 | 63 | 209 | 6.0 | 14.0 | 0.00 | 0.00 | 0.00 | 66 | 1002.8 |
| 20260509154745 | 63 | 198 | 6.0 | 14.0 | 0.00 | 0.00 | 0.00 | 66 | 1002.8 |
| 20260509154640 | 63 | 228 | 7.0 | 14.0 | 0.00 | 0.00 | 0.00 | 66 | 1002.8 |
| 20260509154601 | 63 | 175 | 6.0 | 14.0 | 0.00 | 0.00 | 0.00 | 66 | 1002.8 |
| 20260509154533 | 63 | 206 | 9.0 | 14.0 | 0.00 | 0.00 | 0.00 | 65 | 1002.8 |
| 20260509154428 | 63 | 199 | 3.0 | 13.0 | 0.00 | 0.00 | 0.00 | 67 | 1002.8 |
| 20260509154323 | 63 | 200 | 3.0 | 13.0 | 0.00 | 0.00 | 0.00 | 66 | 1002.8 |
| 20260509154218 | 64 | 176 | 4.0 | 15.0 | 0.00 | 0.00 | 0.00 | 66 | 1002.8 |
| 20260509154111 | 64 | 219 | 7.0 | 15.0 | 0.00 | 0.00 | 0.00 | 66 | 1002.8 |
| 20260509154056 | 64 | 207 | 6.0 | 15.0 | 0.00 | 0.00 | 0.00 | 66 | 1002.8 |
| 20260509154005 | 63 | 164 | 4.0 | 15.0 | 0.00 | 0.00 | 0.00 | 67 | 1002.8 |
| 20260509153829 | 63 | 200 | 3.0 | 15.0 | 0.00 | 0.00 | 0.00 | 67 | 1002.8 |
| 20260509153723 | 62 | 191 | 7.0 | 15.0 | 0.00 | 0.00 | 0.00 | 66 | 1002.8 |
| 20260509153618 | 62 | 217 | 3.0 | 15.0 | 0.00 | 0.00 | 0.00 | 67 | 1002.8 |
| 20260509153551 | 62 | 205 | 4.0 | 15.0 | 0.00 | 0.00 | 0.00 | 66 | 1002.8 |
| 20260509153512 | 62 | 186 | 6.0 | 15.0 | 0.00 | 0.00 | 0.00 | 66 | 1003.1 |
| 20260509153406 | 62 | 168 | 7.0 | 15.0 | 0.00 | 0.00 | 0.00 | 66 | 1002.8 |
| 20260509153301 | 62 | 172 | 5.0 | 17.0 | 0.00 | 0.00 | 0.00 | 68 | 1003.1 |
| 20260509153156 | 62 | 130 | 3.0 | 17.0 | 0.00 | 0.00 | 0.00 | 69 | 1003.1 |
| 20260509153049 | 61 | 170 | 6.0 | 17.0 | 0.00 | 0.00 | 0.00 | 69 | 1002.8 |
| 20260509152943 | 61 | 233 | 8.0 | 17.0 | 0.00 | 0.00 | 0.00 | 69 | 1003.4 |
| 20260509152838 | 61 | 219 | 7.0 | 17.0 | 0.00 | 0.00 | 0.00 | 69 | 1003.1 |
| 20260509152732 | 61 | 200 | 6.0 | 17.0 | 0.00 | 0.00 | 0.00 | 69 | 1003.1 |
| 20260509152627 | 61 | 186 | 9.0 | 17.0 | 0.00 | 0.00 | 0.00 | 68 | 1003.1 |
| 20260509152538 | 61 | 192 | 9.0 | 17.0 | 0.00 | 0.00 | 0.00 | 68 | 1003.1 |
| 20260509152521 | 61 | 157 | 5.0 | 17.0 | 0.00 | 0.00 | 0.00 | 68 | 1003.1 |
| 20260509152415 | 61 | 143 | 5.0 | 17.0 | 0.00 | 0.00 | 0.00 | 69 | 1003.4 |
| 20260509152309 | 61 | 169 | 6.0 | 13.0 | 0.00 | 0.00 | 0.00 | 70 | 1003.4 |
| 20260509152203 | 61 | 201 | 8.0 | 13.0 | 0.00 | 0.00 | 0.00 | 69 | 1003.1 |
| 20260509152057 | 62 | 227 | 5.0 | 11.0 | 0.00 | 0.00 | 0.00 | 69 | 1003.1 |
| 20260509152031 | 62 | 147 | 8.0 | 11.0 | 0.00 | 0.00 | 0.00 | 70 | 1003.1 |
| 20260509151952 | 62 | 226 | 6.0 | 11.0 | 0.00 | 0.00 | 0.00 | 69 | 1003.1 |
| 20260509151846 | 62 | 195 | 6.0 | 11.0 | 0.00 | 0.00 | 0.00 | 69 | 1003.1 |
| 20260509151740 | 62 | 195 | 6.0 | 11.0 | 0.00 | 0.00 | 0.00 | 69 | 1003.1 |
| 20260509151635 | 61 | 110 | 3.0 | 11.0 | 0.00 | 0.00 | 0.00 | 69 | 1003.4 |
| 20260509151530 | 61 | 180 | 4.0 | 11.0 | 0.00 | 0.00 | 0.00 | 70 | 1003.1 |
| 20260509151424 | 61 | 157 | 3.0 | 14.0 | 0.00 | 0.00 | 0.00 | 70 | 1003.1 |
| 20260509151318 | 61 | 205 | 8.0 | 14.0 | 0.00 | 0.00 | 0.00 | 70 | 1003.4 |
| 20260509151212 | 60 | 224 | 10.0 | 14.0 | 0.00 | 0.00 | 0.00 | 70 | 1003.4 |
| 20260509151107 | 60 | 144 | 2.0 | 14.0 | 0.00 | 0.00 | 0.00 | 70 | 1003.4 |
| 20260509151019 | 60 | 163 | 9.0 | 14.0 | 0.00 | 0.00 | 0.00 | 71 | 1003.4 |
| 20260509151002 | 60 | 193 | 5.0 | 14.0 | 0.00 | 0.00 | 0.00 | 72 | 1003.4 |
| 20260509150855 | 60 | 218 | 6.0 | 14.0 | 0.00 | 0.00 | 0.00 | 71 | 1003.1 |
| 20260509150750 | 60 | 221 | 6.0 | 14.0 | 0.00 | 0.00 | 0.00 | 71 | 1003.4 |
| 20260509150644 | 60 | 143 | 8.0 | 14.0 | 0.00 | 0.00 | 0.00 | 72 | 1003.4 |
| 20260509150538 | 60 | 200 | 7.0 | 14.0 | 0.00 | 0.00 | 0.00 | 72 | 1003.4 |
| 20260509150512 | 60 | 196 | 9.0 | 14.0 | 0.00 | 0.00 | 0.00 | 72 | 1003.4 |
| 20260509150433 | 60 | 209 | 7.0 | 11.0 | 0.00 | 0.00 | 0.00 | 72 | 1003.4 |
| 20260509150327 | 60 | 164 | 6.0 | 11.0 | 0.00 | 0.00 | 0.00 | 72 | 1003.4 |
| 20260509150221 | 60 | 210 | 4.0 | 11.0 | 0.00 | 0.00 | 0.00 | 73 | 1003.4 |
| 20260509150129 | 60 | 186 | 3.0 | 13.0 | 0.00 | 0.00 | 0.00 | 73 | 1003.4 |
| 20260509150010 | 60 | 222 | 6.0 | 13.0 | 0.00 | 0.00 | 0.00 | 73 | 1003.4 |
| 20260509145904 | 60 | 120 | 2.0 | 13.0 | 0.00 | 0.00 | 0.00 | 73 | 1003.4 |
| 20260509145758 | 60 | 154 | 3.0 | 13.0 | 0.00 | 0.00 | 0.00 | 73 | 1003.4 |
| 20260509145654 | 60 | 199 | 7.0 | 13.0 | 0.00 | 0.00 | 0.00 | 72 | 1003.4 |
| 20260509145545 | 60 | 215 | 4.0 | 13.0 | 0.00 | 0.00 | 0.00 | 72 | 1003.8 |
| 20260509145457 | 60 | 213 | 6.0 | 13.0 | 0.00 | 0.00 | 0.00 | 72 | 1003.8 |
| 20260509145439 | 60 | 175 | 6.0 | 13.0 | 0.00 | 0.00 | 0.00 | 73 | 1003.1 |
| 20260509145334 | 60 | 188 | 8.0 | 13.0 | 0.00 | 0.00 | 0.00 | 73 | 1003.1 |
| 20260509145228 | 60 | 132 | 4.0 | 13.0 | 0.00 | 0.00 | 0.00 | 73 | 1003.1 |
| 20260509145123 | 60 | 113 | 7.0 | 11.0 | 0.00 | 0.00 | 0.00 | 73 | 1003.4 |
| 20260509145017 | 60 | 215 | 7.0 | 11.0 | 0.00 | 0.00 | 0.00 | 74 | 1003.4 |
| 20260509144950 | 60 | 172 | 9.0 | 11.0 | 0.00 | 0.00 | 0.00 | 74 | 1003.4 |
| 20260509144910 | 60 | 207 | 5.0 | 11.0 | 0.00 | 0.00 | 0.00 | 74 | 1003.4 |
| 20260509144804 | 60 | 227 | 5.0 | 11.0 | 0.00 | 0.00 | 0.00 | 74 | 1003.4 |
| 20260509144659 | 60 | 228 | 7.0 | 11.0 | 0.00 | 0.00 | 0.00 | 74 | 1003.4 |
| 20260509144552 | 60 | 227 | 7.0 | 13.0 | 0.00 | 0.00 | 0.00 | 74 | 1003.4 |
| 20260509144446 | 59 | 207 | 6.0 | 13.0 | 0.00 | 0.00 | 0.00 | 75 | 1003.4 |
| 20260509144341 | 59 | 201 | 4.0 | 13.0 | 0.00 | 0.00 | 0.00 | 75 | 1003.4 |
| 20260509144235 | 59 | 175 | 4.0 | 13.0 | 0.00 | 0.00 | 0.00 | 75 | 1003.4 |
| 20260509144129 | 59 | 216 | 7.0 | 13.0 | 0.00 | 0.00 | 0.00 | 75 | 1003.4 |
| 20260509144023 | 59 | 163 | 2.0 | 13.0 | 0.00 | 0.00 | 0.00 | 76 | 1003.4 |
| 20260509143935 | 59 | 160 | 6.0 | 13.0 | 0.00 | 0.00 | 0.00 | 75 | 1003.4 |
| 20260509143918 | 59 | 160 | 3.0 | 13.0 | 0.00 | 0.00 | 0.00 | 75 | 1003.4 |
| 20260509143812 | 59 | 121 | 4.0 | 13.0 | 0.00 | 0.00 | 0.00 | 75 | 1003.4 |
| 20260509143706 | 59 | 191 | 6.0 | 15.0 | 0.00 | 0.00 | 0.00 | 75 | 1003.4 |
| 20260509143559 | 59 | 177 | 4.0 | 15.0 | 0.00 | 0.00 | 0.00 | 75 | 1003.4 |
| 20260509143454 | 59 | 234 | 6.0 | 15.0 | 0.00 | 0.00 | 0.00 | 76 | 1003.4 |
| 20260509143428 | 59 | 220 | 4.0 | 15.0 | 0.00 | 0.00 | 0.00 | 76 | 1003.4 |
| 20260509143349 | 58 | 232 | 2.0 | 15.0 | 0.00 | 0.00 | 0.00 | 77 | 1003.4 |
| 20260509143244 | 58 | 216 | 3.0 | 15.0 | 0.00 | 0.00 | 0.00 | 76 | 1003.8 |
| 20260509143137 | 58 | 221 | 6.0 | 15.0 | 0.00 | 0.00 | 0.00 | 76 | 1003.8 |
| 20260509143032 | 58 | 162 | 5.0 | 15.0 | 0.00 | 0.00 | 0.00 | 76 | 1003.8 |
| 20260509142926 | 57 | 139 | 2.0 | 15.0 | 0.00 | 0.00 | 0.00 | 78 | 1003.8 |
| 20260509142820 | 57 | 180 | 3.0 | 15.0 | 0.00 | 0.00 | 0.00 | 78 | 1003.8 |
| 20260509142715 | 57 | 202 | 8.0 | 13.0 | 0.00 | 0.00 | 0.00 | 78 | 1003.4 |
| 20260509142609 | 57 | 213 | 6.0 | 11.0 | 0.00 | 0.00 | 0.00 | 79 | 1003.8 |
| 20260509142503 | 57 | 225 | 6.0 | 16.0 | 0.00 | 0.00 | 0.00 | 79 | 1003.8 |
| 20260509142414 | 57 | 164 | 8.0 | 16.0 | 0.00 | 0.00 | 0.00 | 78 | 1003.8 |
| 20260509142357 | 57 | 219 | 8.0 | 16.0 | 0.00 | 0.00 | 0.00 | 79 | 1003.8 |
| 20260509142251 | 57 | 242 | 5.0 | 16.0 | 0.00 | 0.00 | 0.00 | 79 | 1003.8 |
| 20260509142147 | 57 | 178 | 4.0 | 16.0 | 0.00 | 0.00 | 0.00 | 79 | 1003.8 |
| 20260509142041 | 57 | 192 | 4.0 | 16.0 | 0.00 | 0.00 | 0.00 | 80 | 1003.8 |
| 20260509141935 | 57 | 190 | 4.0 | 16.0 | 0.00 | 0.00 | 0.00 | 80 | 1003.8 |
| 20260509141908 | 57 | 206 | 5.0 | 16.0 | 0.00 | 0.00 | 0.00 | 79 | 1003.8 |
| 20260509141829 | 57 | 156 | 4.0 | 16.0 | 0.00 | 0.00 | 0.00 | 80 | 1003.4 |
| 20260509141723 | 56 | 211 | 8.0 | 16.0 | 0.00 | 0.00 | 0.00 | 80 | 1003.4 |
| 20260509141617 | 56 | 216 | 9.0 | 16.0 | 0.00 | 0.00 | 0.00 | 80 | 1003.8 |
| 20260509141512 | 56 | 159 | 3.0 | 14.0 | 0.00 | 0.00 | 0.00 | 82 | 1003.8 |
| 20260509141407 | 56 | 207 | 11.0 | 14.0 | 0.00 | 0.00 | 0.00 | 81 | 1003.8 |
| 20260509141301 | 56 | 168 | 10.0 | 14.0 | 0.00 | 0.00 | 0.00 | 82 | 1004.1 |
| 20260509141155 | 56 | 199 | 6.0 | 13.0 | 0.00 | 0.00 | 0.00 | 83 | 1003.8 |
| 20260509141049 | 55 | 167 | 1.0 | 13.0 | 0.00 | 0.00 | 0.00 | 83 | 1003.8 |
| 20260509140944 | 55 | 201 | 2.0 | 13.0 | 0.00 | 0.00 | 0.00 | 83 | 1003.8 |
| 20260509140855 | 55 | 166 | 11.0 | 13.0 | 0.00 | 0.00 | 0.00 | 83 | 1003.8 |
| 20260509140839 | 55 | 206 | 11.0 | 13.0 | 0.00 | 0.00 | 0.00 | 83 | 1003.8 |
| 20260509140734 | 55 | 181 | 3.0 | 11.0 | 0.00 | 0.00 | 0.00 | 84 | 1003.8 |
| 20260509140627 | 55 | 206 | 6.0 | 11.0 | 0.00 | 0.00 | 0.00 | 83 | 1003.8 |
| 20260509140521 | 55 | 160 | 3.0 | 11.0 | 0.00 | 0.00 | 0.00 | 84 | 1003.8 |
| 20260509140416 | 55 | 105 | 2.0 | 11.0 | 0.00 | 0.00 | 0.00 | 84 | 1003.8 |
| 20260509140349 | 55 | 216 | 5.0 | 11.0 | 0.00 | 0.00 | 0.00 | 84 | 1003.8 |
| 20260509140309 | 55 | 206 | 5.0 | 10.0 | 0.00 | 0.00 | 0.00 | 84 | 1004.1 |
| 20260509140204 | 55 | 179 | 2.0 | 11.0 | 0.00 | 0.00 | 0.00 | 84 | 1004.1 |
| 20260509140105 | 55 | 193 | 7.0 | 11.0 | 0.00 | 0.00 | 0.00 | 84 | 1004.1 |
| 20260509135953 | 54 | 215 | 4.0 | 11.0 | 0.00 | 0.00 | 0.00 | 86 | 1004.1 |
| 20260509135847 | 54 | 138 | 3.0 | 11.0 | 0.00 | 0.00 | 0.00 | 86 | 1003.8 |
| 20260509135741 | 54 | 212 | 6.0 | 11.0 | 0.00 | 0.00 | 0.00 | 86 | 1003.8 |
| 20260509135635 | 54 | 213 | 10.0 | 11.0 | 0.00 | 0.00 | 0.00 | 86 | 1004.1 |
| 20260509135531 | 54 | 193 | 6.0 | 11.0 | 0.00 | 0.00 | 0.00 | 86 | 1004.1 |
| 20260509135425 | 54 | 193 | 8.0 | 11.0 | 0.00 | 0.00 | 0.00 | 86 | 1004.1 |
| 20260509135336 | 54 | 178 | 8.0 | 11.0 | 0.00 | 0.00 | 0.00 | 86 | 1004.1 |
| 20260509135319 | 54 | 216 | 9.0 | 11.0 | 0.00 | 0.00 | 0.00 | 86 | 1004.1 |
| 20260509135213 | 54 | 197 | 4.0 | 9.0 | 0.00 | 0.00 | 0.00 | 86 | 1004.1 |
| 20260509135108 | 54 | 188 | 3.0 | 9.0 | 0.00 | 0.00 | 0.00 | 86 | 1004.1 |
| 20260509135002 | 54 | 196 | 2.0 | 9.0 | 0.00 | 0.00 | 0.00 | 87 | 1004.5 |
| 20260509134856 | 53 | 212 | 6.0 | 9.0 | 0.00 | 0.00 | 0.00 | 87 | 1004.1 |
| 20260509134830 | 53 | 179 | 4.0 | 9.0 | 0.00 | 0.00 | 0.00 | 87 | 1004.1 |
| 20260509134751 | 53 | 194 | 4.0 | 9.0 | 0.00 | 0.00 | 0.00 | 87 | 1004.1 |
| 20260509134645 | 53 | 198 | 4.0 | 9.0 | 0.00 | 0.00 | 0.00 | 87 | 1004.5 |
| 20260509134539 | 53 | 160 | 1.0 | 9.0 | 0.00 | 0.00 | 0.00 | 87 | 1004.5 |
| 20260509134434 | 53 | 188 | 6.0 | 9.0 | 0.00 | 0.00 | 0.00 | 87 | 1004.5 |
| 20260509134328 | 53 | 225 | 4.0 | 9.0 | 0.00 | 0.00 | 0.00 | 87 | 1004.5 |
| 20260509134222 | 53 | 198 | 6.0 | 9.0 | 0.00 | 0.00 | 0.00 | 87 | 1004.5 |
| 20260509134117 | 53 | 151 | 1.0 | 9.0 | 0.00 | 0.00 | 0.00 | 88 | 1004.5 |
| 20260509134010 | 53 | 228 | 4.0 | 9.0 | 0.00 | 0.00 | 0.00 | 88 | 1004.5 |
| 20260509133905 | 53 | 233 | 6.0 | 9.0 | 0.00 | 0.00 | 0.00 | 88 | 1004.1 |
| 20260509133817 | 53 | 100 | 5.0 | 8.0 | 0.00 | 0.00 | 0.00 | 88 | 1004.5 |
| 20260509133800 | 53 | 200 | 7.0 | 8.0 | 0.00 | 0.00 | 0.00 | 87 | 1004.5 |
| 20260509133654 | 53 | 158 | 4.0 | 10.0 | 0.00 | 0.00 | 0.00 | 88 | 1004.5 |
| 20260509133548 | 53 | 226 | 5.0 | 10.0 | 0.00 | 0.00 | 0.00 | 88 | 1004.1 |
| 20260509133443 | 53 | 154 | 3.0 | 10.0 | 0.00 | 0.00 | 0.00 | 88 | 1004.8 |
| 20260509133337 | 53 | 185 | 4.0 | 10.0 | 0.00 | 0.00 | 0.00 | 88 | 1004.8 |
| 20260509133310 | 53 | 230 | 5.0 | 10.0 | 0.00 | 0.00 | 0.00 | 88 | 1004.8 |
| 20260509133231 | 53 | 212 | 2.0 | 10.0 | 0.00 | 0.00 | 0.00 | 88 | 1004.5 |
| 20260509133125 | 53 | 193 | 4.0 | 10.0 | 0.00 | 0.00 | 0.00 | 88 | 1004.5 |
| 20260509133021 | 53 | 196 | 3.0 | 10.0 | 0.00 | 0.00 | 0.00 | 88 | 1004.5 |
| 20260509132914 | 53 | 162 | 3.0 | 10.0 | 0.00 | 0.00 | 0.00 | 89 | 1004.8 |
| 20260509132808 | 53 | 172 | 9.0 | 10.0 | 0.00 | 0.00 | 0.00 | 88 | 1004.8 |
| 20260509132703 | 53 | 226 | 8.0 | 10.0 | 0.00 | 0.00 | 0.00 | 89 | 1004.5 |
| 20260509132549 | 53 | 226 | 7.0 | 10.0 | 0.00 | 0.00 | 0.00 | 89 | 1004.5 |
| 20260509132444 | 52 | 163 | 4.0 | 10.0 | 0.00 | 0.00 | 0.00 | 89 | 1004.8 |
| 20260509132338 | 52 | 209 | 6.0 | 8.0 | 0.00 | 0.00 | 0.00 | 89 | 1004.8 |
| 20260509132300 | 52 | 181 | 8.0 | 8.0 | 0.00 | 0.00 | 0.00 | 89 | 1004.8 |
| 20260509132231 | 52 | 202 | 7.0 | 8.0 | 0.00 | 0.00 | 0.00 | 89 | 1004.8 |
| 20260509132126 | 52 | 204 | 5.0 | 10.0 | 0.00 | 0.00 | 0.00 | 89 | 1004.8 |
| 20260509132021 | 52 | 149 | 7.0 | 10.0 | 0.00 | 0.00 | 0.00 | 89 | 1004.8 |
| 20260509131915 | 53 | 189 | 4.0 | 13.0 | 0.00 | 0.00 | 0.00 | 89 | 1004.8 |
| 20260509131809 | 52 | 143 | 1.0 | 13.0 | 0.00 | 0.00 | 0.00 | 90 | 1004.5 |
| 20260509131753 | 52 | 143 | 1.0 | 13.0 | 0.00 | 0.00 | 0.00 | 90 | 1004.5 |
| 20260509131716 | 52 | 218 | 3.0 | 13.0 | 0.00 | 0.00 | 0.00 | 90 | 1004.8 |
| 20260509131558 | 52 | 162 | 1.0 | 13.0 | 0.00 | 0.00 | 0.00 | 90 | 1004.5 |
| 20260509131505 | 52 | 183 | 5.0 | 13.0 | 0.00 | 0.00 | 0.00 | 90 | 1004.5 |
| 20260509131346 | 52 | 218 | 4.0 | 13.0 | 0.00 | 0.00 | 0.00 | 91 | 1004.5 |
| 20260509131257 | 52 | 185 | 4.0 | 13.0 | 0.00 | 0.00 | 0.00 | 91 | 1004.5 |
| 20260509131253 | 52 | 191 | 5.0 | 13.0 | 0.00 | 0.00 | 0.00 | 91 | 1004.5 |
| 20260509131135 | 51 | 222 | 9.0 | 13.0 | 0.00 | 0.00 | 0.00 | 91 | 1004.5 |
| 20260509131030 | 51 | 161 | 4.0 | 13.0 | 0.00 | 0.00 | 0.00 | 92 | 1004.5 |
| 20260509130924 | 51 | 193 | 4.0 | 10.0 | 0.00 | 0.00 | 0.00 | 92 | 1004.8 |
| 20260509130818 | 51 | 161 | 5.0 | 10.0 | 0.00 | 0.00 | 0.00 | 92 | 1004.5 |
| 20260509130741 | 51 | 197 | 5.0 | 10.0 | 0.00 | 0.00 | 0.00 | 93 | 1004.5 |
| 20260509130713 | 51 | 142 | 4.0 | 10.0 | 0.00 | 0.00 | 0.00 | 93 | 1004.5 |
| 20260509130606 | 51 | 195 | 4.0 | 10.0 | 0.00 | 0.00 | 0.00 | 93 | 1004.8 |
| 20260509130512 | 51 | 213 | 4.0 | 10.0 | 0.00 | 0.00 | 0.00 | 93 | 1004.8 |
| 20260509130353 | 51 | 221 | 7.0 | 10.0 | 0.00 | 0.00 | 0.00 | 94 | 1004.8 |
| 20260509130250 | 51 | 192 | 4.0 | 10.0 | 0.00 | 0.00 | 0.00 | 94 | 1004.5 |
| 20260509130234 | 51 | 235 | 6.0 | 10.0 | 0.00 | 0.00 | 0.00 | 94 | 1004.5 |
| 20260509130144 | 51 | 160 | 2.0 | 10.0 | 0.00 | 0.00 | 0.00 | 94 | 1004.8 |
| 20260509130039 | 50 | 199 | 5.0 | 10.0 | 0.00 | 0.00 | 0.00 | 94 | 1004.8 |
| 20260509125933 | 50 | 145 | 2.0 | 10.0 | 0.00 | 0.00 | 0.00 | 94 | 1004.5 |
| 20260509125827 | 50 | 223 | 8.0 | 10.0 | 0.00 | 0.00 | 0.00 | 95 | 1004.8 |
| 20260509125722 | 50 | 159 | 4.0 | 10.0 | 0.00 | 0.00 | 0.00 | 95 | 1004.8 |
| 20260509125616 | 50 | 205 | 6.0 | 10.0 | 0.00 | 0.00 | 0.00 | 95 | 1004.8 |
| 20260509125511 | 50 | 208 | 1.0 | 9.0 | 0.00 | 0.00 | 0.00 | 95 | 1005.1 |
| 20260509125406 | 50 | 200 | 8.0 | 9.0 | 0.00 | 0.00 | 0.00 | 95 | 1004.8 |
| 20260509125300 | 50 | 100 | 2.0 | 9.0 | 0.00 | 0.00 | 0.00 | 96 | 1004.8 |
| 20260509125222 | 50 | 148 | 2.0 | 9.0 | 0.00 | 0.00 | 0.00 | 96 | 1004.8 |
| 20260509125153 | 50 | 161 | 1.0 | 9.0 | 0.00 | 0.00 | 0.00 | 96 | 1004.8 |
| 20260509125048 | 50 | 235 | 3.0 | 9.0 | 0.00 | 0.00 | 0.00 | 96 | 1005.1 |
| 20260509124942 | 50 | 172 | 5.0 | 9.0 | 0.00 | 0.00 | 0.00 | 96 | 1004.8 |
| 20260509124836 | 50 | 204 | 4.0 | 8.0 | 0.00 | 0.00 | 0.00 | 96 | 1004.8 |
| 20260509124730 | 50 | 225 | 6.0 | 9.0 | 0.00 | 0.00 | 0.00 | 96 | 1004.8 |
| 20260509124715 | 50 | 191 | 6.0 | 9.0 | 0.00 | 0.00 | 0.00 | 96 | 1004.8 |
| 20260509124625 | 49 | 213 | 4.0 | 9.0 | 0.00 | 0.00 | 0.00 | 96 | 1004.8 |
| 20260509124519 | 49 | 186 | 4.0 | 9.0 | 0.00 | 0.00 | 0.00 | 96 | 1004.8 |
| 20260509124413 | 49 | 207 | 5.0 | 9.0 | 0.00 | 0.00 | 0.00 | 96 | 1004.8 |
| 20260509124308 | 49 | 200 | 4.0 | 9.0 | 0.00 | 0.00 | 0.00 | 96 | 1004.8 |
| 20260509124208 | 49 | 203 | 3.0 | 9.0 | 0.00 | 0.00 | 0.00 | 96 | 1004.8 |
| 20260509124202 | 49 | 184 | 4.0 | 9.0 | 0.00 | 0.00 | 0.00 | 96 | 1004.8 |
| 20260509124056 | 49 | 168 | 6.0 | 9.0 | 0.00 | 0.00 | 0.00 | 96 | 1004.5 |
| 20260509123950 | 49 | 200 | 1.0 | 9.0 | 0.00 | 0.00 | 0.00 | 96 | 1004.8 |
| 20260509123845 | 49 | 218 | 6.0 | 9.0 | 0.00 | 0.00 | 0.00 | 96 | 1004.8 |
| 20260509123739 | 49 | 185 | 6.0 | 9.0 | 0.00 | 0.00 | 0.00 | 96 | 1004.8 |
| 20260509123701 | 49 | 195 | 2.0 | 7.0 | 0.00 | 0.00 | 0.00 | 97 | 1004.8 |
| 20260509123633 | 49 | 222 | 2.0 | 7.0 | 0.00 | 0.00 | 0.00 | 97 | 1004.8 |
| 20260509123527 | 49 | 211 | 1.0 | 7.0 | 0.00 | 0.00 | 0.00 | 97 | 1004.5 |
| 20260509123423 | 49 | 228 | 2.0 | 7.0 | 0.00 | 0.00 | 0.00 | 97 | 1004.8 |
| 20260509123317 | 49 | 215 | 3.0 | 7.0 | 0.00 | 0.00 | 0.00 | 97 | 1004.8 |
| 20260509123211 | 49 | 179 | 3.0 | 7.0 | 0.00 | 0.00 | 0.00 | 97 | 1004.8 |
| 20260509123155 | 49 | 159 | 3.0 | 7.0 | 0.00 | 0.00 | 0.00 | 97 | 1004.8 |
| 20260509123106 | 49 | 178 | 4.0 | 7.0 | 0.00 | 0.00 | 0.00 | 97 | 1004.8 |
| 20260509123000 | 49 | 191 | 3.0 | 7.0 | 0.00 | 0.00 | 0.00 | 97 | 1004.8 |
| 20260509122854 | 49 | 195 | 4.0 | 7.0 | 0.00 | 0.00 | 0.00 | 97 | 1004.8 |
| 20260509122748 | 49 | 210 | 2.0 | 6.0 | 0.00 | 0.00 | 0.00 | 97 | 1004.8 |
| 20260509122650 | 49 | 206 | 3.0 | 6.0 | 0.00 | 0.00 | 0.00 | 97 | 1004.8 |
| 20260509122642 | 49 | 206 | 3.0 | 6.0 | 0.00 | 0.00 | 0.00 | 97 | 1004.5 |
| 20260509122538 | 48 | 183 | 2.0 | 7.0 | 0.00 | 0.00 | 0.00 | 97 | 1004.5 |
| 20260509122432 | 48 | 199 | 2.0 | 7.0 | 0.00 | 0.00 | 0.00 | 97 | 1004.8 |
| 20260509122326 | 48 | 189 | 4.0 | 7.0 | 0.00 | 0.00 | 0.00 | 97 | 1004.8 |
| 20260509122220 | 48 | 220 | 3.0 | 7.0 | 0.00 | 0.00 | 0.00 | 97 | 1004.8 |
| 20260509122143 | 48 | 233 | 4.0 | 7.0 | 0.00 | 0.00 | 0.00 | 97 | 1004.8 |
| 20260509122114 | 48 | 206 | 4.0 | 7.0 | 0.00 | 0.00 | 0.00 | 97 | 1004.8 |
| 20260509122009 | 48 | 201 | 1.0 | 7.0 | 0.00 | 0.00 | 0.00 | 97 | 1005.1 |
| 20260509121903 | 48 | 175 | 3.0 | 7.0 | 0.00 | 0.00 | 0.00 | 97 | 1004.8 |
| 20260509121758 | 48 | 213 | 3.0 | 7.0 | 0.00 | 0.00 | 0.00 | 97 | 1004.8 |
| 20260509121652 | 48 | 167 | 3.0 | 7.0 | 0.00 | 0.00 | 0.00 | 97 | 1004.8 |
| 20260509121636 | 48 | 201 | 6.0 | 7.0 | 0.00 | 0.00 | 0.00 | 97 | 1004.8 |
| 20260509121558 | 48 | 218 | 2.0 | 9.0 | 0.00 | 0.00 | 0.00 | 97 | 1004.5 |
| 20260509121441 | 48 | 167 | 4.0 | 9.0 | 0.00 | 0.00 | 0.00 | 97 | 1004.8 |
| 20260509121335 | 48 | 221 | 3.0 | 9.0 | 0.00 | 0.00 | 0.00 | 97 | 1004.5 |
| 20260509121229 | 48 | 211 | 1.0 | 9.0 | 0.00 | 0.00 | 0.00 | 97 | 1004.8 |
| 20260509121129 | 48 | 206 | 3.0 | 9.0 | 0.00 | 0.00 | 0.00 | 97 | 1004.8 |
| 20260509121123 | 48 | 210 | 2.0 | 9.0 | 0.00 | 0.00 | 0.00 | 97 | 1004.8 |
| 20260509121017 | 48 | 219 | 3.0 | 9.0 | 0.00 | 0.00 | 0.00 | 97 | 1004.8 |
| 20260509120912 | 48 | 201 | 3.0 | 9.0 | 0.00 | 0.00 | 0.00 | 97 | 1004.8 |
| 20260509120807 | 48 | 168 | 5.0 | 9.0 | 0.00 | 0.00 | 0.00 | 97 | 1004.8 |
| 20260509120701 | 48 | 183 | 3.0 | 9.0 | 0.00 | 0.00 | 0.00 | 97 | 1004.8 |
| 20260509120623 | 48 | 203 | 7.0 | 9.0 | 0.00 | 0.00 | 0.00 | 97 | 1004.8 |
| 20260509120555 | 48 | 230 | 4.0 | 9.0 | 0.00 | 0.00 | 0.00 | 97 | 1004.8 |
| 20260509120450 | 48 | 212 | 3.0 | 9.0 | 0.00 | 0.00 | 0.00 | 97 | 1004.5 |
| 20260509120344 | 48 | 187 | 4.0 | 9.0 | 0.00 | 0.00 | 0.00 | 97 | 1004.8 |
| 20260509120238 | 48 | 236 | 6.0 | 9.0 | 0.00 | 0.00 | 0.00 | 96 | 1004.8 |
| 20260509120133 | 48 | 224 | 3.0 | 9.0 | 0.00 | 0.00 | 0.00 | 97 | 1004.5 |
| 20260509120117 | 48 | 208 | 3.0 | 9.0 | 0.00 | 0.00 | 0.00 | 96 | 1004.5 |
| 20260509120024 | 48 | 239 | 5.0 | 9.0 | 0.00 | 0.00 | 0.00 | 96 | 1004.8 |
| 20260509115920 | 48 | 218 | 4.0 | 9.0 | 0.00 | 0.00 | 0.00 | 96 | 1004.5 |
| 20260509115814 | 48 | 174 | 6.0 | 9.0 | 0.00 | 0.00 | 0.00 | 96 | 1004.8 |
| 20260509115708 | 48 | 177 | 7.0 | 9.0 | 0.00 | 0.00 | 0.00 | 96 | 1004.5 |
| 20260509115608 | 47 | 202 | 4.0 | 8.0 | 0.00 | 0.00 | 0.00 | 96 | 1004.8 |
| 20260509115602 | 47 | 202 | 4.0 | 8.0 | 0.00 | 0.00 | 0.00 | 96 | 1004.8 |
| 20260509115456 | 47 | 188 | 3.0 | 8.0 | 0.00 | 0.00 | 0.00 | 96 | 1004.5 |
| 20260509115351 | 47 | 206 | 4.0 | 8.0 | 0.00 | 0.00 | 0.00 | 96 | 1004.5 |
| 20260509115245 | 47 | 184 | 6.0 | 7.0 | 0.00 | 0.00 | 0.00 | 96 | 1004.5 |
| 20260509115140 | 47 | 181 | 5.0 | 7.0 | 0.00 | 0.00 | 0.00 | 96 | 1004.5 |
| 20260509115103 | 47 | 179 | 2.0 | 7.0 | 0.00 | 0.00 | 0.00 | 96 | 1004.5 |
| 20260509115034 | 47 | 118 | 1.0 | 8.0 | 0.00 | 0.00 | 0.00 | 96 | 1004.5 |
| 20260509114929 | 47 | 170 | 2.0 | 8.0 | 0.00 | 0.00 | 0.00 | 96 | 1004.8 |
| 20260509114823 | 47 | 208 | 4.0 | 8.0 | 0.00 | 0.00 | 0.00 | 96 | 1004.8 |
| 20260509114717 | 47 | 162 | 4.0 | 8.0 | 0.00 | 0.00 | 0.00 | 96 | 1004.8 |
| 20260509114611 | 47 | 196 | 4.0 | 8.0 | 0.00 | 0.00 | 0.00 | 96 | 1004.8 |
| 20260509114555 | 47 | 207 | 3.0 | 8.0 | 0.00 | 0.00 | 0.00 | 96 | 1004.8 |
| 20260509114506 | 47 | 190 | 5.0 | 8.0 | 0.00 | 0.00 | 0.00 | 96 | 1004.8 |
| 20260509114400 | 47 | 159 | 2.0 | 8.0 | 0.00 | 0.00 | 0.00 | 96 | 1004.8 |
| 20260509114254 | 47 | 207 | 4.0 | 8.0 | 0.00 | 0.00 | 0.00 | 96 | 1005.1 |
| 20260509114149 | 46 | 185 | 6.0 | 8.0 | 0.00 | 0.00 | 0.00 | 96 | 1005.1 |
| 20260509114050 | 46 | 208 | 4.0 | 7.0 | 0.00 | 0.00 | 0.00 | 96 | 1005.1 |
| 20260509114043 | 46 | 179 | 4.0 | 7.0 | 0.00 | 0.00 | 0.00 | 96 | 1004.8 |
| 20260509113938 | 46 | 207 | 6.0 | 7.0 | 0.00 | 0.00 | 0.00 | 96 | 1005.1 |
| 20260509113832 | 47 | 221 | 3.0 | 7.0 | 0.00 | 0.00 | 0.00 | 96 | 1005.1 |
| 20260509113726 | 47 | 216 | 4.0 | 7.0 | 0.00 | 0.00 | 0.00 | 96 | 1005.1 |
| 20260509113618 | 47 | 220 | 3.0 | 7.0 | 0.00 | 0.00 | 0.00 | 96 | 1005.1 |
| 20260509113541 | 47 | 167 | 4.0 | 7.0 | 0.00 | 0.00 | 0.00 | 96 | 1005.1 |
| 20260509113513 | 47 | 149 | 4.0 | 7.0 | 0.00 | 0.00 | 0.00 | 96 | 1005.1 |
| 20260509113407 | 47 | 207 | 5.0 | 6.0 | 0.00 | 0.00 | 0.00 | 96 | 1005.1 |
| 20260509113302 | 47 | 183 | 2.0 | 6.0 | 0.00 | 0.00 | 0.00 | 96 | 1005.1 |
| 20260509113156 | 47 | 175 | 3.0 | 6.0 | 0.00 | 0.00 | 0.00 | 96 | 1005.1 |
| 20260509113051 | 47 | 203 | 4.0 | 6.0 | 0.00 | 0.00 | 0.00 | 96 | 1004.8 |
| 20260509113035 | 47 | 179 | 5.0 | 6.0 | 0.00 | 0.00 | 0.00 | 96 | 1005.1 |
| 20260509112946 | 47 | 187 | 3.0 | 4.0 | 0.00 | 0.00 | 0.00 | 96 | 1005.1 |
| 20260509112840 | 47 | 208 | 4.0 | 4.0 | 0.00 | 0.00 | 0.00 | 96 | 1004.8 |
| 20260509112734 | 47 | 205 | 4.0 | 4.0 | 0.00 | 0.00 | 0.00 | 96 | 1004.8 |
| 20260509112628 | 47 | 216 | 4.0 | 4.0 | 0.00 | 0.00 | 0.00 | 96 | 1005.1 |
| 20260509112523 | 47 | 210 | 3.0 | 4.0 | 0.00 | 0.00 | 0.00 | 96 | 1004.8 |
| 20260509112416 | 47 | 226 | 3.0 | 4.0 | 0.00 | 0.00 | 0.00 | 96 | 1005.1 |
| 20260509112310 | 47 | 194 | 3.0 | 4.0 | 0.00 | 0.00 | 0.00 | 96 | 1005.1 |
| 20260509112204 | 47 | 207 | 2.0 | 4.0 | 0.00 | 0.00 | 0.00 | 96 | 1005.1 |
| 20260509112059 | 47 | 204 | 3.0 | 4.0 | 0.00 | 0.00 | 0.00 | 96 | 1004.8 |
| 20260509112022 | 47 | 199 | 4.0 | 4.0 | 0.00 | 0.00 | 0.00 | 96 | 1004.8 |
| 20260509111953 | 47 | 206 | 2.0 | 4.0 | 0.00 | 0.00 | 0.00 | 96 | 1004.8 |
| 20260509111848 | 47 | 197 | 3.0 | 4.0 | 0.00 | 0.00 | 0.00 | 96 | 1005.1 |
| 20260509111743 | 47 | 202 | 2.0 | 4.0 | 0.00 | 0.00 | 0.00 | 96 | 1004.8 |
| 20260509111637 | 47 | 197 | 2.0 | 4.0 | 0.00 | 0.00 | 0.00 | 96 | 1004.8 |
| 20260509111531 | 47 | 187 | 2.0 | 4.0 | 0.00 | 0.00 | 0.00 | 96 | 1004.8 |
| 20260509111515 | 47 | 195 | 2.0 | 4.0 | 0.00 | 0.00 | 0.00 | 96 | 1004.8 |
| 20260509111426 | 47 | 187 | 2.0 | 4.0 | 0.00 | 0.00 | 0.00 | 96 | 1004.8 |
| 20260509111319 | 47 | 203 | 3.0 | 4.0 | 0.00 | 0.00 | 0.00 | 96 | 1005.1 |
| 20260509111214 | 47 | 197 | 3.0 | 4.0 | 0.00 | 0.00 | 0.00 | 96 | 1004.8 |
| 20260509111108 | 47 | 191 | 3.0 | 4.0 | 0.00 | 0.00 | 0.00 | 96 | 1004.8 |
| 20260509111009 | 46 | 218 | 2.0 | 4.0 | 0.00 | 0.00 | 0.00 | 96 | 1004.5 |
| 20260509111003 | 46 | 211 | 3.0 | 4.0 | 0.00 | 0.00 | 0.00 | 96 | 1004.5 |
| 20260509110857 | 46 | 208 | 2.0 | 4.0 | 0.00 | 0.00 | 0.00 | 96 | 1004.8 |
| 20260509110751 | 46 | 201 | 2.0 | 4.0 | 0.00 | 0.00 | 0.00 | 96 | 1005.1 |
| 20260509110645 | 46 | 186 | 2.0 | 4.0 | 0.00 | 0.00 | 0.00 | 96 | 1005.1 |
| 20260509110541 | 46 | 197 | 2.0 | 4.0 | 0.00 | 0.00 | 0.00 | 96 | 1004.8 |
| 20260509110503 | 46 | 193 | 3.0 | 4.0 | 0.00 | 0.00 | 0.00 | 96 | 1004.8 |
| 20260509110435 | 46 | 200 | 3.0 | 4.0 | 0.00 | 0.00 | 0.00 | 96 | 1004.8 |
| 20260509110328 | 46 | 201 | 4.0 | 4.0 | 0.00 | 0.00 | 0.00 | 96 | 1004.8 |
| 20260509110223 | 46 | 189 | 3.0 | 4.0 | 0.00 | 0.00 | 0.00 | 96 | 1005.1 |
| 20260509110117 | 46 | 213 | 4.0 | 4.0 | 0.00 | 0.00 | 0.00 | 96 | 1004.8 |
| 20260509110012 | 46 | 193 | 2.0 | 4.0 | 0.00 | 0.00 | 0.00 | 96 | 1004.8 |
| 20260509105956 | 46 | 195 | 3.0 | 4.0 | 0.00 | 0.00 | 0.00 | 96 | 1004.8 |
| 20260509105906 | 46 | 198 | 3.0 | 4.0 | 0.00 | 0.00 | 0.00 | 96 | 1004.8 |
| 20260509105807 | 46 | 201 | 2.0 | 4.0 | 0.00 | 0.00 | 0.00 | 96 | 1005.1 |
| 20260509105701 | 46 | 220 | 2.0 | 4.0 | 0.00 | 0.00 | 0.00 | 96 | 1005.1 |
| 20260509105556 | 46 | 200 | 3.0 | 4.0 | 0.00 | 0.00 | 0.00 | 96 | 1005.1 |
| 20260509105457 | 46 | 197 | 2.0 | 4.0 | 0.00 | 0.00 | 0.00 | 96 | 1005.1 |
| 20260509105450 | 46 | 209 | 2.0 | 4.0 | 0.00 | 0.00 | 0.00 | 96 | 1005.1 |
| 20260509105345 | 46 | 202 | 3.0 | 4.0 | 0.00 | 0.00 | 0.00 | 96 | 1004.8 |
| 20260509105239 | 46 | 207 | 2.0 | 4.0 | 0.00 | 0.00 | 0.00 | 96 | 1004.8 |
| 20260509105133 | 46 | 198 | 2.0 | 3.0 | 0.00 | 0.00 | 0.00 | 96 | 1005.1 |
| 20260509105027 | 46 | 203 | 2.0 | 3.0 | 0.00 | 0.00 | 0.00 | 96 | 1004.8 |
| 20260509104950 | 46 | 207 | 2.0 | 3.0 | 0.00 | 0.00 | 0.00 | 96 | 1004.8 |
| 20260509104922 | 46 | 190 | 2.0 | 3.0 | 0.00 | 0.00 | 0.00 | 96 | 1004.8 |
| 20260509104816 | 46 | 203 | 2.0 | 3.0 | 0.00 | 0.00 | 0.00 | 96 | 1004.8 |
| 20260509104710 | 46 | 177 | 2.0 | 3.0 | 0.00 | 0.00 | 0.00 | 96 | 1004.8 |
| 20260509104604 | 45 | 191 | 2.0 | 3.0 | 0.00 | 0.00 | 0.00 | 96 | 1005.1 |
| 20260509104457 | 45 | 205 | 3.0 | 3.0 | 0.00 | 0.00 | 0.00 | 96 | 1004.8 |
| 20260509104442 | 45 | 203 | 2.0 | 3.0 | 0.00 | 0.00 | 0.00 | 96 | 1004.8 |
| 20260509104352 | 44 | 192 | 2.0 | 2.0 | 0.00 | 0.00 | 0.00 | 96 | 1004.8 |
| 20260509104246 | 44 | 215 | 0.0 | 0.0 | 0.00 | 0.00 | 0.00 | 96 | 1005.1 |
| 20260509104140 | 44 | 198 | 0.0 | 0.0 | 0.00 | 0.00 | 0.00 | 96 | 1004.8 |
| 20260509104035 | 44 | 193 | 0.0 | 0.0 | 0.00 | 0.00 | 0.00 | 95 | 1004.8 |
| 20260509103936 | 44 | 187 | 0.0 | 0.0 | 0.00 | 0.00 | 0.00 | 95 | 1005.1 |
| 20260509103929 | 44 | 181 | 0.0 | 0.0 | 0.00 | 0.00 | 0.00 | 95 | 1005.1 |
| 20260509103824 | 44 | 185 | 0.0 | 0.0 | 0.00 | 0.00 | 0.00 | 95 | 1004.8 |
| 20260509103718 | 44 | 181 | 0.0 | 0.0 | 0.00 | 0.00 | 0.00 | 95 | 1004.5 |
| 20260509103610 | 44 | 176 | 0.0 | 0.0 | 0.00 | 0.00 | 0.00 | 95 | 1004.8 |
| 20260509103504 | 44 | 184 | 0.0 | 0.0 | 0.00 | 0.00 | 0.00 | 95 | 1004.8 |
| 20260509103426 | 44 | 186 | 0.0 | 0.0 | 0.00 | 0.00 | 0.00 | 95 | 1005.1 |
| 20260509103358 | 44 | 186 | 0.0 | 0.0 | 0.00 | 0.00 | 0.00 | 95 | 1005.1 |
| 20260509103252 | 44 | 189 | 0.0 | 0.0 | 0.00 | 0.00 | 0.00 | 95 | 1005.1 |
| 20260509103147 | 44 | 186 | 0.0 | 0.0 | 0.00 | 0.00 | 0.00 | 95 | 1005.1 |
| 20260509103041 | 44 | 187 | 0.0 | 0.0 | 0.00 | 0.00 | 0.00 | 95 | 1004.8 |
| 20260509102920 | 44 | 186 | 0.0 | 0.0 | 0.00 | 0.00 | 0.00 | 95 | 1005.1 |
| 20260509102830 | 44 | 186 | 0.0 | 0.0 | 0.00 | 0.00 | 0.00 | 95 | 1004.8 |
| 20260509102724 | 44 | 186 | 0.0 | 0.0 | 0.00 | 0.00 | 0.00 | 95 | 1004.8 |
| 20260509102617 | 44 | 187 | 0.0 | 0.0 | 0.00 | 0.00 | 0.00 | 95 | 1005.1 |
| 20260509102512 | 44 | 187 | 0.0 | 0.0 | 0.00 | 0.00 | 0.00 | 95 | 1005.1 |
| 20260509102406 | 44 | 187 | 0.0 | 0.0 | 0.00 | 0.00 | 0.00 | 95 | 1005.1 |
| 20260509102300 | 44 | 187 | 0.0 | 0.0 | 0.00 | 0.00 | 0.00 | 95 | 1005.1 |
| 20260509102155 | 43 | 158 | 0.0 | 0.0 | 0.00 | 0.00 | 0.00 | 95 | 1005.1 |
| 20260509102049 | 43 | 146 | 0.0 | 0.0 | 0.00 | 0.00 | 0.00 | 95 | 1005.1 |
| 20260509101944 | 43 | 146 | 0.0 | 0.0 | 0.00 | 0.00 | 0.00 | 95 | 1005.1 |
| 20260509101907 | 43 | 146 | 0.0 | 0.0 | 0.00 | 0.00 | 0.00 | 95 | 1005.1 |
| 20260509101838 | 43 | 146 | 0.0 | 0.0 | 0.00 | 0.00 | 0.00 | 94 | 1004.8 |
| 20260509101733 | 44 | 144 | 0.0 | 0.0 | 0.00 | 0.00 | 0.00 | 94 | 1005.1 |
| 20260509101627 | 44 | 144 | 0.0 | 0.0 | 0.00 | 0.00 | 0.00 | 94 | 1004.8 |
| 20260509101521 | 44 | 144 | 0.0 | 0.0 | 0.00 | 0.00 | 0.00 | 94 | 1004.8 |
| 20260509101416 | 44 | 144 | 0.0 | 0.0 | 0.00 | 0.00 | 0.00 | 94 | 1005.1 |
| 20260509101401 | 44 | 144 | 0.0 | 0.0 | 0.00 | 0.00 | 0.00 | 94 | 1005.1 |
| 20260509101311 | 44 | 144 | 0.0 | 0.0 | 0.00 | 0.00 | 0.00 | 94 | 1005.1 |
| 20260509101205 | 44 | 144 | 0.0 | 0.0 | 0.00 | 0.00 | 0.00 | 94 | 1005.1 |
| 20260509101100 | 44 | 143 | 0.0 | 0.0 | 0.00 | 0.00 | 0.00 | 94 | 1005.1 |
| 20260509100954 | 44 | 143 | 0.0 | 0.0 | 0.00 | 0.00 | 0.00 | 94 | 1005.1 |
| 20260509100847 | 44 | 143 | 0.0 | 0.0 | 0.00 | 0.00 | 0.00 | 94 | 1005.1 |
| 20260509100742 | 44 | 143 | 0.0 | 0.0 | 0.00 | 0.00 | 0.00 | 94 | 1005.1 |
| 20260509100636 | 44 | 143 | 0.0 | 0.0 | 0.00 | 0.00 | 0.00 | 94 | 1005.1 |
| 20260509100530 | 44 | 143 | 0.0 | 0.0 | 0.00 | 0.00 | 0.00 | 94 | 1005.1 |
| 20260509100424 | 44 | 142 | 0.0 | 0.0 | 0.00 | 0.00 | 0.00 | 95 | 1004.8 |
| 20260509100348 | 44 | 140 | 0.0 | 0.0 | 0.00 | 0.00 | 0.00 | 94 | 1004.8 |
| 20260509100319 | 44 | 139 | 0.0 | 0.0 | 0.00 | 0.00 | 0.00 | 94 | 1005.1 |
| 20260509100214 | 44 | 129 | 0.0 | 0.0 | 0.00 | 0.00 | 0.00 | 94 | 1005.5 |
| 20260509100108 | 43 | 127 | 0.0 | 0.0 | 0.00 | 0.00 | 0.00 | 94 | 1005.1 |
| 20260509100004 | 43 | 127 | 0.0 | 0.0 | 0.00 | 0.00 | 0.00 | 94 | 1005.1 |
| 20260509095929 | 44 | 183 | 0.0 | 0.0 | 0.00 | 0.00 | 0.00 | 92 | 1005.1 |
| 20260509095925 | 43 | 183 | 0.0 | 0.0 | 0.00 | 0.00 | 0.00 | 93 | 1005.1 |
| 20260509095910 | 43 | 127 | 0.0 | 0.0 | 0.00 | 0.00 | 0.00 | 93 | 1005.1 |
| 20260509095906 | 43 | 127 | 0.0 | 0.0 | 0.00 | 0.00 | 0.00 | 93 | 1005.1 |
| 20260509095857 | 43 | 127 | 0.0 | 0.0 | 0.00 | 0.00 | 0.00 | 93 | 1005.5 |
| 20260509095633 | 44 | 127 | 0.0 | 0.0 | 0.00 | 0.00 | 0.00 | 93 | 1005.1 |
| 20260509095629 | 43 | 127 | 0.0 | 0.0 | 0.00 | 0.00 | 0.00 | 93 | 1005.1 |
| 20260509095621 | 44 | 127 | 0.0 | 0.0 | 0.00 | 0.00 | 0.00 | 93 | 1005.1 |
| 20260509095359 | 44 | 127 | 0.0 | 0.0 | 0.00 | 0.00 | 0.00 | 93 | 1005.1 |
| 20260509095350 | 44 | 127 | 0.0 | 0.0 | 0.00 | 0.00 | 0.00 | 93 | 1005.1 |
| 20260509095128 | 44 | 127 | 0.0 | 0.0 | 0.00 | 0.00 | 0.00 | 93 | 1004.8 |
| 20260509095120 | 44 | 127 | 0.0 | 0.0 | 0.00 | 0.00 | 0.00 | 93 | 1005.1 |
| 20260509095111 | 44 | 127 | 0.0 | 0.0 | 0.00 | 0.00 | 0.00 | 94 | 1004.8 |
| 20260509094850 | 44 | 127 | 0.0 | 0.0 | 0.00 | 0.00 | 0.00 | 93 | 1005.1 |
| 20260509094846 | 44 | 127 | 0.0 | 0.0 | 0.00 | 0.00 | 0.00 | 93 | 1005.1 |
| 20260509094838 | 44 | 169 | 0.0 | 0.0 | 0.00 | 0.00 | 0.00 | 94 | 1005.1 |
| 20260509094616 | 43 | 182 | 0.0 | 0.0 | 0.00 | 0.00 | 0.00 | 93 | 1005.1 |
| 20260509094607 | 43 | 182 | 0.0 | 0.0 | 0.00 | 0.00 | 0.00 | 93 | 1005.1 |
| 20260509094558 | 43 | 183 | 0.0 | 0.0 | 0.00 | 0.00 | 0.00 | 93 | 1005.1 |
| 20260509094324 | 43 | 183 | 0.0 | 0.0 | 0.00 | 0.00 | 0.00 | 93 | 1005.1 |
| 20260509094315 | 43 | 183 | 0.0 | 0.0 | 0.00 | 0.00 | 0.00 | 92 | 1005.1 |
| 20260509094050 | 43 | 183 | 0.0 | 0.0 | 0.00 | 0.00 | 0.00 | 92 | 1005.1 |
| 20260509094041 | 43 | 183 | 0.0 | 0.0 | 0.00 | 0.00 | 0.00 | 92 | 1005.1 |
| 20260509093815 | 43 | 183 | 0.0 | 0.0 | 0.00 | 0.00 | 0.00 | 93 | 1005.1 |
| 20260509093807 | 43 | 183 | 0.0 | 0.0 | 0.00 | 0.00 | 0.00 | 92 | 1005.1 |
| 20260509093758 | 44 | 183 | 0.0 | 0.0 | 0.00 | 0.00 | 0.00 | 92 | 1005.1 |
| 20260509093535 | 44 | 183 | 0.0 | 0.0 | 0.00 | 0.00 | 0.00 | 92 | 1005.1 |
| 20260509093526 | 44 | 183 | 0.0 | 0.0 | 0.00 | 0.00 | 0.00 | 92 | 1005.1 |
| 20260509093240 | 44 | 183 | 0.0 | 0.0 | 0.00 | 0.00 | 0.00 | 92 | 1005.1 |
| 20260509093134 | 44 | 183 | 0.0 | 0.0 | 0.00 | 0.00 | 0.00 | 92 | 1005.1 |
| 20260509093036 | 44 | 181 | 0.0 | 0.0 | 0.00 | 0.00 | 0.00 | 92 | 1004.8 |
| 20260509093027 | 44 | 181 | 0.0 | 0.0 | 0.00 | 0.00 | 0.00 | 92 | 1005.1 |
| 20260509093019 | 44 | 181 | 0.0 | 0.0 | 0.00 | 0.00 | 0.00 | 92 | 1005.1 |
| 20260509092711 | 44 | 181 | 0.0 | 0.0 | 0.00 | 0.00 | 0.00 | 91 | 1005.1 |
| 20260509092606 | 44 | 181 | 0.0 | 0.0 | 0.00 | 0.00 | 0.00 | 91 | 1005.1 |
| 20260509092542 | 44 | 181 | 0.0 | 0.0 | 0.00 | 0.00 | 0.00 | 91 | 1005.1 |
| 20260509092538 | 44 | 181 | 0.0 | 0.0 | 0.00 | 0.00 | 0.00 | 91 | 1005.1 |
| 20260509092530 | 44 | 181 | 0.0 | 0.0 | 0.00 | 0.00 | 0.00 | 91 | 1005.1 |
| 20260509092249 | 44 | 191 | 0.0 | 0.0 | 0.00 | 0.00 | 0.00 | 91 | 1005.1 |
| 20260509092143 | 44 | 190 | 0.0 | 0.0 | 0.00 | 0.00 | 0.00 | 91 | 1005.1 |
| 20260509092037 | 44 | 191 | 0.0 | 0.0 | 0.00 | 0.00 | 0.00 | 91 | 1005.5 |
| 20260509092026 | 45 | 193 | 0.0 | 0.0 | 0.00 | 0.00 | 0.00 | 91 | 1005.1 |
| 20260509092020 | 45 | 193 | 0.0 | 0.0 | 0.00 | 0.00 | 0.00 | 91 | 1005.1 |
| 20260509092011 | 45 | 193 | 0.0 | 0.0 | 0.00 | 0.00 | 0.00 | 91 | 1005.1 |
| 20260509091720 | 45 | 191 | 0.0 | 0.0 | 0.00 | 0.00 | 0.00 | 91 | 1005.1 |
| 20260509091614 | 45 | 191 | 0.0 | 0.0 | 0.00 | 0.00 | 0.00 | 91 | 1005.1 |
| 20260509091520 | 45 | 191 | 0.0 | 0.0 | 0.00 | 0.00 | 0.00 | 91 | 1005.1 |
| 20260509091403 | 45 | 190 | 0.0 | 0.0 | 0.00 | 0.00 | 0.00 | 91 | 1005.5 |
| 20260509091257 | 45 | 191 | 0.0 | 0.0 | 0.00 | 0.00 | 0.00 | 91 | 1005.1 |
| 20260509091241 | 45 | 190 | 0.0 | 0.0 | 0.00 | 0.00 | 0.00 | 90 | 1005.1 |
| 20260509091151 | 45 | 189 | 0.0 | 0.0 | 0.00 | 0.00 | 0.00 | 90 | 1005.1 |
| 20260509091058 | 45 | 191 | 0.0 | 0.0 | 0.00 | 0.00 | 0.00 | 90 | 1005.1 |
| 20260509090940 | 45 | 190 | 0.0 | 0.0 | 0.00 | 0.00 | 0.00 | 91 | 1005.1 |
| 20260509090833 | 45 | 189 | 0.0 | 0.0 | 0.00 | 0.00 | 0.00 | 90 | 1005.1 |
| 20260509090735 | 45 | 189 | 0.0 | 0.0 | 0.00 | 0.00 | 0.00 | 91 | 1005.5 |
| 20260509090728 | 45 | 193 | 0.0 | 0.0 | 0.00 | 0.00 | 0.00 | 91 | 1005.5 |
| 20260509090622 | 45 | 192 | 0.0 | 0.0 | 0.00 | 0.00 | 0.00 | 91 | 1005.1 |
| 20260509090517 | 45 | 205 | 0.0 | 0.0 | 0.00 | 0.00 | 0.00 | 91 | 1005.1 |
| 20260509090411 | 45 | 200 | 0.0 | 0.0 | 0.00 | 0.00 | 0.00 | 91 | 1005.1 |
| 20260509090305 | 45 | 200 | 0.0 | 1.0 | 0.00 | 0.00 | 0.00 | 91 | 1005.1 |
| 20260509090228 | 45 | 197 | 0.0 | 1.0 | 0.00 | 0.00 | 0.00 | 91 | 1005.1 |
| 20260509090200 | 45 | 196 | 0.0 | 1.0 | 0.00 | 0.00 | 0.00 | 91 | 1005.1 |
| 20260509090106 | 45 | 191 | 0.0 | 1.0 | 0.00 | 0.00 | 0.00 | 91 | 1005.1 |
| 20260509085948 | 45 | 187 | 0.0 | 1.0 | 0.00 | 0.00 | 0.00 | 91 | 1005.5 |
| 20260509085842 | 45 | 193 | 0.0 | 2.0 | 0.00 | 0.00 | 0.00 | 90 | 1005.1 |
| 20260509085721 | 45 | 184 | 0.0 | 2.0 | 0.00 | 0.00 | 0.00 | 90 | 1005.5 |
| 20260509085631 | 45 | 181 | 0.0 | 2.0 | 0.00 | 0.00 | 0.00 | 91 | 1005.1 |
| 20260509085526 | 45 | 183 | 0.0 | 2.0 | 0.00 | 0.00 | 0.00 | 91 | 1005.1 |
| 20260509085420 | 45 | 184 | 0.0 | 2.0 | 0.00 | 0.00 | 0.00 | 90 | 1005.1 |
| 20260509085315 | 45 | 184 | 0.0 | 2.0 | 0.00 | 0.00 | 0.00 | 90 | 1005.1 |
| 20260509085216 | 45 | 181 | 1.0 | 2.0 | 0.00 | 0.00 | 0.00 | 90 | 1005.1 |
| 20260509085209 | 45 | 178 | 0.0 | 2.0 | 0.00 | 0.00 | 0.00 | 90 | 1005.1 |
| 20260509085102 | 45 | 168 | 0.0 | 2.0 | 0.00 | 0.00 | 0.00 | 90 | 1005.5 |
| 20260509084957 | 45 | 168 | 1.0 | 2.0 | 0.00 | 0.00 | 0.00 | 90 | 1005.5 |
| 20260509084851 | 45 | 178 | 1.0 | 3.0 | 0.00 | 0.00 | 0.00 | 90 | 1005.1 |
| 20260509084746 | 45 | 207 | 1.0 | 3.0 | 0.00 | 0.00 | 0.00 | 90 | 1005.1 |
| 20260509084708 | 45 | 217 | 0.0 | 3.0 | 0.00 | 0.00 | 0.00 | 90 | 1005.1 |
| 20260509084639 | 45 | 217 | 1.0 | 3.0 | 0.00 | 0.00 | 0.00 | 90 | 1005.5 |
| 20260509084533 | 45 | 206 | 1.0 | 3.0 | 0.00 | 0.00 | 0.00 | 90 | 1005.5 |
| 20260509084429 | 45 | 177 | 2.0 | 3.0 | 0.00 | 0.00 | 0.00 | 90 | 1005.1 |
| 20260509084323 | 45 | 177 | 1.0 | 6.0 | 0.00 | 0.00 | 0.00 | 90 | 1005.5 |
| 20260509084217 | 45 | 178 | 0.0 | 6.0 | 0.00 | 0.00 | 0.00 | 90 | 1005.5 |
| 20260509084202 | 45 | 178 | 1.0 | 6.0 | 0.00 | 0.00 | 0.00 | 90 | 1005.5 |
| 20260509084110 | 45 | 185 | 1.0 | 6.0 | 0.00 | 0.00 | 0.00 | 90 | 1005.5 |
| 20260509084005 | 45 | 189 | 2.0 | 6.0 | 0.00 | 0.00 | 0.00 | 89 | 1005.5 |
| 20260509083859 | 45 | 179 | 2.0 | 6.0 | 0.00 | 0.00 | 0.00 | 90 | 1005.5 |
| 20260509083754 | 45 | 300 | 0.0 | 6.0 | 0.00 | 0.00 | 0.00 | 89 | 1005.5 |
| 20260509083654 | 45 | 301 | 0.0 | 6.0 | 0.00 | 0.00 | 0.00 | 89 | 1005.5 |
| 20260509083648 | 45 | 301 | 1.0 | 6.0 | 0.00 | 0.00 | 0.00 | 89 | 1005.5 |
| 20260509083542 | 45 | 310 | 1.0 | 6.0 | 0.00 | 0.00 | 0.00 | 89 | 1005.5 |
| 20260509083436 | 45 | 169 | 1.0 | 6.0 | 0.00 | 0.00 | 0.00 | 89 | 1005.5 |
| 20260509083331 | 46 | 187 | 2.0 | 4.0 | 0.00 | 0.00 | 0.00 | 87 | 1005.5 |
| 20260509083225 | 46 | 161 | 2.0 | 4.0 | 0.00 | 0.00 | 0.00 | 88 | 1005.5 |
| 20260509083148 | 46 | 172 | 1.0 | 4.0 | 0.00 | 0.00 | 0.00 | 88 | 1005.5 |
| 20260509083120 | 46 | 187 | 1.0 | 4.0 | 0.00 | 0.00 | 0.00 | 88 | 1005.1 |
| 20260509083013 | 46 | 188 | 0.0 | 4.0 | 0.00 | 0.00 | 0.00 | 88 | 1005.5 |
| 20260509082909 | 46 | 190 | 2.0 | 4.0 | 0.00 | 0.00 | 0.00 | 88 | 1005.1 |
| 20260509082803 | 46 | 211 | 2.0 | 3.0 | 0.00 | 0.00 | 0.00 | 87 | 1005.5 |
| 20260509082641 | 47 | 186 | 2.0 | 3.0 | 0.00 | 0.00 | 0.00 | 87 | 1005.5 |
| 20260509082551 | 47 | 201 | 2.0 | 3.0 | 0.00 | 0.00 | 0.00 | 87 | 1005.5 |
| 20260509082445 | 47 | 193 | 1.0 | 3.0 | 0.00 | 0.00 | 0.00 | 87 | 1005.1 |
| 20260509082340 | 47 | 184 | 2.0 | 3.0 | 0.00 | 0.00 | 0.00 | 88 | 1005.8 |
| 20260509082235 | 47 | 183 | 1.0 | 2.0 | 0.00 | 0.00 | 0.00 | 88 | 1005.5 |
| 20260509082135 | 46 | 180 | 2.0 | 3.0 | 0.00 | 0.00 | 0.00 | 87 | 1005.8 |
| 20260509082128 | 46 | 188 | 1.0 | 3.0 | 0.00 | 0.00 | 0.00 | 88 | 1005.8 |
| 20260509082022 | 46 | 188 | 0.0 | 3.0 | 0.00 | 0.00 | 0.00 | 88 | 1005.5 |
| 20260509081917 | 46 | 203 | 0.0 | 3.0 | 0.00 | 0.00 | 0.00 | 88 | 1005.1 |
| 20260509081812 | 46 | 189 | 0.0 | 3.0 | 0.00 | 0.00 | 0.00 | 87 | 1005.1 |
| 20260509081706 | 46 | 193 | 1.0 | 3.0 | 0.00 | 0.00 | 0.00 | 87 | 1005.1 |
| 20260509081628 | 46 | 188 | 1.0 | 3.0 | 0.00 | 0.00 | 0.00 | 87 | 1005.5 |
| 20260509081600 | 46 | 193 | 0.0 | 3.0 | 0.00 | 0.00 | 0.00 | 87 | 1005.5 |
| 20260509081455 | 46 | 191 | 1.0 | 3.0 | 0.00 | 0.00 | 0.00 | 88 | 1005.5 |
| 20260509081349 | 46 | 189 | 1.0 | 3.0 | 0.00 | 0.00 | 0.00 | 88 | 1005.5 |
| 20260509081244 | 46 | 198 | 2.0 | 3.0 | 0.00 | 0.00 | 0.00 | 88 | 1005.5 |
| 20260509081151 | 46 | 201 | 1.0 | 2.0 | 0.00 | 0.00 | 0.00 | 88 | 1005.5 |
| 20260509081123 | 46 | 213 | 2.0 | 2.0 | 0.00 | 0.00 | 0.00 | 88 | 1005.5 |
| 20260509081032 | 46 | 193 | 0.0 | 1.0 | 0.00 | 0.00 | 0.00 | 87 | 1005.1 |
| 20260509080927 | 46 | 195 | 1.0 | 1.0 | 0.00 | 0.00 | 0.00 | 88 | 1005.5 |
| 20260509080821 | 46 | 205 | 1.0 | 1.0 | 0.00 | 0.00 | 0.00 | 88 | 1005.5 |
| 20260509080715 | 46 | 189 | 1.0 | 1.0 | 0.00 | 0.00 | 0.00 | 88 | 1005.5 |
| 20260509080611 | 46 | 194 | 1.0 | 1.0 | 0.00 | 0.00 | 0.00 | 89 | 1005.5 |
| 20260509080504 | 45 | 173 | 1.0 | 1.0 | 0.00 | 0.00 | 0.00 | 89 | 1005.5 |
| 20260509080358 | 45 | 189 | 0.0 | 0.0 | 0.00 | 0.00 | 0.00 | 89 | 1005.5 |
| 20260509080253 | 45 | 194 | 0.0 | 0.0 | 0.00 | 0.00 | 0.00 | 89 | 1005.5 |
| 20260509080147 | 45 | 195 | 0.0 | 0.0 | 0.00 | 0.00 | 0.00 | 89 | 1005.5 |
| 20260509080109 | 45 | 194 | 0.0 | 0.0 | 0.00 | 0.00 | 0.00 | 89 | 1005.5 |
| 20260509080041 | 45 | 189 | 0.0 | 0.0 | 0.00 | 0.00 | 0.00 | 89 | 1005.5 |
| 20260509075935 | 45 | 188 | 0.0 | 0.0 | 0.00 | 0.00 | 0.00 | 89 | 1005.1 |
| 20260509075829 | 45 | 188 | 0.0 | 0.0 | 0.00 | 0.00 | 0.00 | 89 | 1005.5 |
| 20260509075723 | 45 | 188 | 0.0 | 0.0 | 0.00 | 0.00 | 0.00 | 89 | 1005.5 |
| 20260509075616 | 45 | 188 | 0.0 | 0.0 | 0.00 | 0.00 | 0.00 | 89 | 1005.1 |
| 20260509075600 | 45 | 188 | 0.0 | 0.0 | 0.00 | 0.00 | 0.00 | 89 | 1005.1 |
| 20260509075511 | 45 | 188 | 0.0 | 0.0 | 0.00 | 0.00 | 0.00 | 89 | 1005.5 |
| 20260509075405 | 45 | 189 | 0.0 | 0.0 | 0.00 | 0.00 | 0.00 | 89 | 1005.5 |
| 20260509075259 | 45 | 189 | 0.0 | 0.0 | 0.00 | 0.00 | 0.00 | 89 | 1005.5 |
| 20260509075153 | 45 | 188 | 0.0 | 0.0 | 0.00 | 0.00 | 0.00 | 89 | 1005.5 |
| 20260509075048 | 45 | 189 | 0.0 | 0.0 | 0.00 | 0.00 | 0.00 | 89 | 1005.5 |
| 20260509074942 | 45 | 188 | 0.0 | 0.0 | 0.00 | 0.00 | 0.00 | 89 | 1005.5 |
| 20260509074836 | 45 | 188 | 0.0 | 0.0 | 0.00 | 0.00 | 0.00 | 88 | 1005.5 |
| 20260509074732 | 45 | 189 | 0.0 | 0.0 | 0.00 | 0.00 | 0.00 | 88 | 1005.5 |
| 20260509074626 | 45 | 189 | 0.0 | 0.0 | 0.00 | 0.00 | 0.00 | 88 | 1005.5 |
| 20260509074519 | 45 | 189 | 0.0 | 0.0 | 0.00 | 0.00 | 0.00 | 88 | 1005.5 |
| 20260509074414 | 45 | 189 | 0.0 | 0.0 | 0.00 | 0.00 | 0.00 | 88 | 1005.5 |
| 20260509074308 | 45 | 189 | 0.0 | 0.0 | 0.00 | 0.00 | 0.00 | 88 | 1005.5 |
| 20260509074203 | 45 | 189 | 0.0 | 1.0 | 0.00 | 0.00 | 0.00 | 88 | 1005.5 |
| 20260509074058 | 45 | 189 | 0.0 | 1.0 | 0.00 | 0.00 | 0.00 | 88 | 1005.5 |
| 20260509074040 | 45 | 189 | 0.0 | 1.0 | 0.00 | 0.00 | 0.00 | 88 | 1005.8 |
| 20260509073950 | 45 | 189 | 0.0 | 1.0 | 0.00 | 0.00 | 0.00 | 88 | 1005.8 |
| 20260509073845 | 46 | 189 | 0.0 | 1.0 | 0.00 | 0.00 | 0.00 | 87 | 1005.5 |
| 20260509073739 | 46 | 188 | 0.0 | 1.0 | 0.00 | 0.00 | 0.00 | 87 | 1005.5 |
| 20260509073632 | 46 | 188 | 0.0 | 1.0 | 0.00 | 0.00 | 0.00 | 87 | 1005.8 |
| 20260509073526 | 46 | 189 | 0.0 | 1.0 | 0.00 | 0.00 | 0.00 | 87 | 1005.5 |
| 20260509073422 | 46 | 189 | 0.0 | 1.0 | 0.00 | 0.00 | 0.00 | 88 | 1005.8 |
| 20260509073315 | 46 | 188 | 0.0 | 1.0 | 0.00 | 0.00 | 0.00 | 88 | 1005.5 |
| 20260509073209 | 46 | 188 | 1.0 | 1.0 | 0.00 | 0.00 | 0.00 | 88 | 1005.8 |
| 20260509073104 | 46 | 194 | 0.0 | 1.0 | 0.00 | 0.00 | 0.00 | 87 | 1005.8 |
| 20260509073026 | 46 | 189 | 0.0 | 1.0 | 0.00 | 0.00 | 0.00 | 87 | 1005.8 |
| 20260509072958 | 46 | 188 | 0.0 | 1.0 | 0.00 | 0.00 | 0.00 | 87 | 1005.8 |
| 20260509072853 | 46 | 193 | 0.0 | 1.0 | 0.00 | 0.00 | 0.00 | 87 | 1005.8 |
| 20260509072747 | 46 | 194 | 0.0 | 1.0 | 0.00 | 0.00 | 0.00 | 87 | 1005.5 |
| 20260509072641 | 46 | 194 | 0.0 | 1.0 | 0.00 | 0.00 | 0.00 | 87 | 1005.8 |
| 20260509072520 | 46 | 194 | 0.0 | 1.0 | 0.00 | 0.00 | 0.00 | 87 | 1005.5 |
| 20260509072430 | 46 | 194 | 0.0 | 1.0 | 0.00 | 0.00 | 0.00 | 87 | 1005.8 |
| 20260509072324 | 46 | 194 | 0.0 | 1.0 | 0.00 | 0.00 | 0.00 | 87 | 1005.8 |
| 20260509072218 | 46 | 195 | 0.0 | 1.0 | 0.00 | 0.00 | 0.00 | 87 | 1005.5 |
| 20260509072113 | 46 | 190 | 0.0 | 1.0 | 0.00 | 0.00 | 0.00 | 87 | 1005.8 |
| 20260509072008 | 47 | 194 | 0.0 | 1.0 | 0.00 | 0.00 | 0.00 | 87 | 1005.8 |
| 20260509071902 | 47 | 195 | 0.0 | 1.0 | 0.00 | 0.00 | 0.00 | 87 | 1005.8 |
| 20260509071756 | 47 | 194 | 0.0 | 1.0 | 0.00 | 0.00 | 0.00 | 87 | 1005.8 |
| 20260509071650 | 47 | 189 | 1.0 | 1.0 | 0.00 | 0.00 | 0.00 | 87 | 1005.8 |
| 20260509071543 | 47 | 189 | 0.0 | 1.0 | 0.00 | 0.00 | 0.00 | 87 | 1005.5 |
| 20260509071505 | 47 | 189 | 1.0 | 1.0 | 0.00 | 0.00 | 0.00 | 87 | 1005.5 |
| 20260509071438 | 47 | 192 | 0.0 | 1.0 | 0.00 | 0.00 | 0.00 | 86 | 1005.8 |
| 20260509071332 | 47 | 193 | 0.0 | 1.0 | 0.00 | 0.00 | 0.00 | 87 | 1005.5 |
| 20260509071227 | 47 | 192 | 1.0 | 1.0 | 0.00 | 0.00 | 0.00 | 87 | 1005.5 |
| 20260509071121 | 47 | 190 | 1.0 | 1.0 | 0.00 | 0.00 | 0.00 | 87 | 1005.8 |
| 20260509071015 | 47 | 189 | 1.0 | 1.0 | 0.00 | 0.00 | 0.00 | 87 | 1005.8 |
| 20260509071000 | 47 | 191 | 1.0 | 1.0 | 0.00 | 0.00 | 0.00 | 87 | 1005.8 |
| 20260509070911 | 47 | 191 | 1.0 | 1.0 | 0.00 | 0.00 | 0.00 | 87 | 1005.8 |
| 20260509070804 | 47 | 190 | 1.0 | 1.0 | 0.00 | 0.00 | 0.00 | 87 | 1005.8 |
| 20260509070658 | 47 | 188 | 0.0 | 1.0 | 0.00 | 0.00 | 0.00 | 87 | 1005.8 |
| 20260509070553 | 47 | 183 | 0.0 | 2.0 | 0.00 | 0.00 | 0.00 | 86 | 1005.8 |
| 20260509070447 | 47 | 192 | 0.0 | 2.0 | 0.00 | 0.00 | 0.00 | 86 | 1005.8 |
| 20260509070342 | 47 | 191 | 0.0 | 2.0 | 0.00 | 0.00 | 0.00 | 86 | 1005.8 |
| 20260509070237 | 47 | 191 | 0.0 | 2.0 | 0.00 | 0.00 | 0.00 | 86 | 1005.8 |
| 20260509070129 | 47 | 191 | 0.0 | 3.0 | 0.00 | 0.00 | 0.00 | 85 | 1005.8 |
| 20260509070024 | 47 | 191 | 0.0 | 3.0 | 0.00 | 0.00 | 0.00 | 85 | 1005.8 |
| 20260509065919 | 47 | 191 | 0.0 | 3.0 | 0.00 | 0.00 | 0.00 | 85 | 1005.8 |
| 20260509065814 | 47 | 194 | 0.0 | 3.0 | 0.00 | 0.00 | 0.00 | 85 | 1005.8 |
| 20260509065710 | 47 | 199 | 1.0 | 3.0 | 0.00 | 0.00 | 0.00 | 86 | 1006.1 |
| 20260509065601 | 47 | 195 | 1.0 | 3.0 | 0.00 | 0.00 | 0.00 | 86 | 1005.8 |
| 20260509065455 | 47 | 193 | 1.0 | 3.0 | 0.00 | 0.00 | 0.00 | 86 | 1005.8 |
| 20260509065439 | 47 | 193 | 1.0 | 3.0 | 0.00 | 0.00 | 0.00 | 86 | 1006.1 |
| 20260509065350 | 47 | 185 | 1.0 | 3.0 | 0.00 | 0.00 | 0.00 | 86 | 1006.1 |
| 20260509065243 | 47 | 197 | 2.0 | 3.0 | 0.00 | 0.00 | 0.00 | 86 | 1005.8 |
| 20260509065138 | 47 | 200 | 2.0 | 2.0 | 0.00 | 0.00 | 0.00 | 87 | 1006.1 |
| 20260509065032 | 47 | 186 | 2.0 | 2.0 | 0.00 | 0.00 | 0.00 | 87 | 1006.1 |
| 20260509064926 | 47 | 187 | 1.0 | 2.0 | 0.00 | 0.00 | 0.00 | 87 | 1006.1 |
| 20260509064820 | 47 | 186 | 1.0 | 2.0 | 0.00 | 0.00 | 0.00 | 87 | 1005.8 |
| 20260509064726 | 47 | 182 | 0.0 | 0.0 | 0.00 | 0.00 | 0.00 | 87 | 1005.8 |
| 20260509064619 | 47 | 183 | 0.0 | 0.0 | 0.00 | 0.00 | 0.00 | 87 | 1006.1 |
| 20260509064513 | 47 | 183 | 0.0 | 0.0 | 0.00 | 0.00 | 0.00 | 87 | 1005.8 |
| 20260509064435 | 47 | 183 | 0.0 | 0.0 | 0.00 | 0.00 | 0.00 | 87 | 1005.8 |
| 20260509064408 | 47 | 184 | 0.0 | 0.0 | 0.00 | 0.00 | 0.00 | 87 | 1005.8 |
| 20260509064302 | 47 | 183 | 0.0 | 0.0 | 0.00 | 0.00 | 0.00 | 86 | 1006.1 |
| 20260509064156 | 47 | 184 | 0.0 | 0.0 | 0.00 | 0.00 | 0.00 | 87 | 1006.1 |
| 20260509064053 | 48 | 184 | 0.0 | 0.0 | 0.00 | 0.00 | 0.00 | 86 | 1006.1 |
| 20260509063948 | 48 | 191 | 0.0 | 0.0 | 0.00 | 0.00 | 0.00 | 86 | 1005.8 |
| 20260509063931 | 48 | 192 | 0.0 | 0.0 | 0.00 | 0.00 | 0.00 | 86 | 1005.8 |
| 20260509063841 | 48 | 189 | 0.0 | 0.0 | 0.00 | 0.00 | 0.00 | 86 | 1006.1 |
| 20260509063735 | 48 | 192 | 0.0 | 0.0 | 0.00 | 0.00 | 0.00 | 86 | 1005.8 |
| 20260509063631 | 48 | 188 | 0.0 | 0.0 | 0.00 | 0.00 | 0.00 | 86 | 1006.1 |
| 20260509063524 | 48 | 196 | 0.0 | 0.0 | 0.00 | 0.00 | 0.00 | 86 | 1006.1 |
| 20260509063419 | 48 | 199 | 0.0 | 0.0 | 0.00 | 0.00 | 0.00 | 86 | 1006.1 |
| 20260509063313 | 48 | 201 | 0.0 | 0.0 | 0.00 | 0.00 | 0.00 | 86 | 1006.1 |
| 20260509063209 | 48 | 195 | 0.0 | 0.0 | 0.00 | 0.00 | 0.00 | 86 | 1006.1 |
| 20260509063101 | 48 | 195 | 0.0 | 0.0 | 0.00 | 0.00 | 0.00 | 86 | 1006.1 |
| 20260509062957 | 48 | 196 | 0.0 | 0.0 | 0.00 | 0.00 | 0.00 | 86 | 1006.1 |
| 20260509062918 | 48 | 206 | 0.0 | 0.0 | 0.00 | 0.00 | 0.00 | 86 | 1006.1 |
| 20260509062851 | 48 | 190 | 0.0 | 0.0 | 0.00 | 0.00 | 0.00 | 87 | 1006.1 |
| 20260509062726 | 48 | 200 | 0.0 | 0.0 | 0.00 | 0.00 | 0.00 | 87 | 1006.1 |
| 20260509062619 | 47 | 195 | 0.0 | 0.0 | 0.00 | 0.00 | 0.00 | 87 | 1006.1 |
| 20260509062513 | 47 | 201 | 0.0 | 0.0 | 0.00 | 0.00 | 0.00 | 88 | 1006.1 |
| 20260509062419 | 47 | 198 | 0.0 | 0.0 | 0.00 | 0.00 | 0.00 | 88 | 1006.1 |
| 20260509062415 | 47 | 198 | 0.0 | 0.0 | 0.00 | 0.00 | 0.00 | 88 | 1006.1 |
| 20260509062306 | 47 | 193 | 0.0 | 0.0 | 0.00 | 0.00 | 0.00 | 88 | 1006.1 |
| 20260509062158 | 47 | 188 | 0.0 | 0.0 | 0.00 | 0.00 | 0.00 | 87 | 1006.1 |
| 20260509062103 | 47 | 188 | 0.0 | 0.0 | 0.00 | 0.00 | 0.00 | 87 | 1006.1 |
| 20260509061945 | 47 | 191 | 0.0 | 0.0 | 0.00 | 0.00 | 0.00 | 86 | 1006.1 |
| 20260509061840 | 47 | 191 | 0.0 | 0.0 | 0.00 | 0.00 | 0.00 | 86 | 1006.1 |
| 20260509061733 | 47 | 191 | 0.0 | 0.0 | 0.00 | 0.00 | 0.00 | 86 | 1006.1 |
| 20260509061628 | 47 | 191 | 0.0 | 0.0 | 0.00 | 0.00 | 0.00 | 86 | 1006.1 |
| 20260509061523 | 47 | 191 | 0.0 | 0.0 | 0.00 | 0.00 | 0.00 | 86 | 1006.1 |
| 20260509061416 | 47 | 192 | 0.0 | 0.0 | 0.00 | 0.00 | 0.00 | 87 | 1006.1 |
| 20260509061400 | 47 | 192 | 0.0 | 0.0 | 0.00 | 0.00 | 0.00 | 87 | 1006.1 |
| 20260509061311 | 47 | 192 | 0.0 | 0.0 | 0.00 | 0.00 | 0.00 | 87 | 1006.1 |
| 20260509061205 | 47 | 192 | 0.0 | 0.0 | 0.00 | 0.00 | 0.00 | 87 | 1006.1 |
| 20260509061101 | 47 | 190 | 0.0 | 0.0 | 0.00 | 0.00 | 0.00 | 86 | 1006.1 |
| 20260509060955 | 47 | 189 | 0.0 | 0.0 | 0.00 | 0.00 | 0.00 | 86 | 1006.1 |
| 20260509060849 | 47 | 184 | 0.0 | 0.0 | 0.00 | 0.00 | 0.00 | 85 | 1006.1 |
| 20260509060743 | 47 | 191 | 0.0 | 0.0 | 0.00 | 0.00 | 0.00 | 86 | 1006.1 |
| 20260509060636 | 47 | 191 | 0.0 | 0.0 | 0.00 | 0.00 | 0.00 | 85 | 1006.1 |
| 20260509060519 | 47 | 191 | 0.0 | 0.0 | 0.00 | 0.00 | 0.00 | 86 | 1006.1 |
| 20260509060413 | 47 | 191 | 0.0 | 0.0 | 0.00 | 0.00 | 0.00 | 85 | 1006.1 |
| 20260509060308 | 47 | 191 | 0.0 | 0.0 | 0.00 | 0.00 | 0.00 | 85 | 1006.1 |
| 20260509060203 | 47 | 191 | 0.0 | 0.0 | 0.00 | 0.00 | 0.00 | 85 | 1006.1 |
| 20260509055950 | 47 | 191 | 0.0 | 1.0 | 0.00 | 0.00 | 0.00 | 85 | 1006.6 |
| 20260509055830 | 47 | 191 | 0.0 | 1.0 | 0.00 | 0.00 | 0.00 | 85 | 1006.6 |
| 20260509055739 | 47 | 191 | 0.0 | 1.0 | 0.00 | 0.00 | 0.00 | 85 | 1006.1 |
| 20260509055635 | 48 | 191 | 0.0 | 1.0 | 0.00 | 0.00 | 0.00 | 84 | 1006.6 |
| 20260509055529 | 48 | 191 | 0.0 | 1.0 | 0.00 | 0.00 | 0.00 | 84 | 1006.1 |
| 20260509055423 | 48 | 189 | 0.0 | 1.0 | 0.00 | 0.00 | 0.00 | 84 | 1006.6 |
| 20260509055323 | 48 | 191 | 0.0 | 1.0 | 0.00 | 0.00 | 0.00 | 84 | 1006.1 |
| 20260509055316 | 48 | 191 | 0.0 | 2.0 | 0.00 | 0.00 | 0.00 | 84 | 1006.1 |
| 20260509055212 | 48 | 191 | 1.0 | 2.0 | 0.00 | 0.00 | 0.00 | 84 | 1006.1 |
| 20260509055106 | 48 | 191 | 0.0 | 2.0 | 0.00 | 0.00 | 0.00 | 83 | 1006.1 |
| 20260509054959 | 48 | 189 | 0.0 | 2.0 | 0.00 | 0.00 | 0.00 | 83 | 1006.1 |
| 20260509054853 | 48 | 189 | 0.0 | 2.0 | 0.00 | 0.00 | 0.00 | 83 | 1006.1 |
| 20260509054817 | 48 | 191 | 0.0 | 2.0 | 0.00 | 0.00 | 0.00 | 83 | 1006.6 |
| 20260509054749 | 48 | 188 | 0.0 | 2.0 | 0.00 | 0.00 | 0.00 | 83 | 1006.6 |
| 20260509054642 | 48 | 191 | 1.0 | 2.0 | 0.00 | 0.00 | 0.00 | 83 | 1006.6 |
| 20260509054537 | 49 | 192 | 1.0 | 2.0 | 0.00 | 0.00 | 0.00 | 83 | 1006.9 |
| 20260509054432 | 48 | 186 | 1.0 | 2.0 | 0.00 | 0.00 | 0.00 | 83 | 1006.6 |
| 20260509054310 | 48 | 183 | 1.0 | 2.0 | 0.00 | 0.00 | 0.00 | 83 | 1006.6 |
| 20260509054220 | 49 | 192 | 1.0 | 2.0 | 0.00 | 0.00 | 0.00 | 82 | 1006.6 |
| 20260509054115 | 49 | 192 | 1.0 | 2.0 | 0.00 | 0.00 | 0.00 | 83 | 1006.6 |
| 20260509054010 | 48 | 194 | 1.0 | 2.0 | 0.00 | 0.00 | 0.00 | 82 | 1006.6 |
| 20260509053904 | 48 | 193 | 1.0 | 2.0 | 0.00 | 0.00 | 0.00 | 82 | 1006.9 |
| 20260509053814 | 48 | 191 | 1.0 | 2.0 | 0.00 | 0.00 | 0.00 | 82 | 1006.6 |
| 20260509053810 | 48 | 191 | 1.0 | 2.0 | 0.00 | 0.00 | 0.00 | 82 | 1006.6 |
| 20260509053655 | 49 | 194 | 1.0 | 2.0 | 0.00 | 0.00 | 0.00 | 81 | 1006.6 |
| 20260509053553 | 49 | 193 | 1.0 | 2.0 | 0.00 | 0.00 | 0.00 | 82 | 1006.6 |
| 20260509053441 | 49 | 191 | 1.0 | 2.0 | 0.00 | 0.00 | 0.00 | 82 | 1006.9 |
| 20260509053336 | 49 | 189 | 1.0 | 2.0 | 0.00 | 0.00 | 0.00 | 82 | 1006.9 |
| 20260509053257 | 49 | 194 | 1.0 | 2.0 | 0.00 | 0.00 | 0.00 | 82 | 1006.9 |
| 20260509053229 | 49 | 195 | 1.0 | 2.0 | 0.00 | 0.00 | 0.00 | 81 | 1006.9 |
| 20260509053124 | 49 | 195 | 1.0 | 2.0 | 0.00 | 0.00 | 0.00 | 82 | 1006.9 |
| 20260509053018 | 49 | 196 | 1.0 | 2.0 | 0.00 | 0.00 | 0.00 | 82 | 1006.6 |
| 20260509052913 | 49 | 195 | 1.0 | 1.0 | 0.00 | 0.00 | 0.00 | 81 | 1006.6 |
| 20260509052807 | 49 | 196 | 1.0 | 2.0 | 0.00 | 0.00 | 0.00 | 81 | 1006.6 |
| 20260509052751 | 49 | 195 | 0.0 | 2.0 | 0.00 | 0.00 | 0.00 | 81 | 1006.6 |
| 20260509052701 | 49 | 195 | 0.0 | 2.0 | 0.00 | 0.00 | 0.00 | 81 | 1006.9 |
| 20260509052556 | 49 | 196 | 1.0 | 2.0 | 0.00 | 0.00 | 0.00 | 80 | 1006.6 |
| 20260509052450 | 49 | 196 | 1.0 | 2.0 | 0.00 | 0.00 | 0.00 | 80 | 1006.9 |
| 20260509052344 | 49 | 196 | 1.0 | 2.0 | 0.00 | 0.00 | 0.00 | 80 | 1006.9 |
| 20260509052244 | 49 | 196 | 1.0 | 2.0 | 0.00 | 0.00 | 0.00 | 80 | 1006.9 |
| 20260509052239 | 49 | 195 | 1.0 | 2.0 | 0.00 | 0.00 | 0.00 | 80 | 1006.9 |
| 20260509052133 | 49 | 195 | 1.0 | 2.0 | 0.00 | 0.00 | 0.00 | 80 | 1006.9 |
| 20260509052027 | 49 | 195 | 1.0 | 2.0 | 0.00 | 0.00 | 0.00 | 79 | 1006.9 |
| 20260509051935 | 49 | 184 | 1.0 | 2.0 | 0.00 | 0.00 | 0.00 | 79 | 1006.9 |
| 20260509051818 | 50 | 206 | 0.0 | 2.0 | 0.00 | 0.00 | 0.00 | 79 | 1006.9 |
| 20260509051711 | 50 | 206 | 1.0 | 2.0 | 0.00 | 0.00 | 0.00 | 79 | 1006.9 |
| 20260509051605 | 50 | 204 | 2.0 | 2.0 | 0.00 | 0.00 | 0.00 | 79 | 1006.9 |
| 20260509051500 | 50 | 199 | 1.0 | 2.0 | 0.00 | 0.00 | 0.00 | 79 | 1006.9 |
| 20260509051355 | 49 | 199 | 2.0 | 2.0 | 0.00 | 0.00 | 0.00 | 79 | 1006.9 |
| 20260509051232 | 49 | 194 | 2.0 | 2.0 | 0.00 | 0.00 | 0.00 | 78 | 1006.9 |
| 20260509051142 | 49 | 199 | 2.0 | 2.0 | 0.00 | 0.00 | 0.00 | 78 | 1007.3 |
| 20260509051035 | 49 | 205 | 1.0 | 2.0 | 0.00 | 0.00 | 0.00 | 78 | 1006.9 |
| 20260509051025 | 47 | 270 | 1.0 | 2.0 | 0.00 | 0.00 | 0.00 | 75 | 1007.3 |
| 20260509051021 | 47 | 283 | 1.0 | 1.0 | 0.00 | 0.00 | 0.00 | 76 | 1007.3 |
| 20260509051016 | 50 | 195 | 1.0 | 2.0 | 0.00 | 0.00 | 0.00 | 70 | 1007.3 |
| 20260509051012 | 48 | 179 | 1.0 | 3.0 | 0.00 | 0.00 | 0.00 | 77 | 1007.3 |
| 20260509051008 | 47 | 205 | 2.0 | 2.0 | 0.00 | 0.00 | 0.00 | 79 | 1007.3 |
| 20260509051002 | 48 | 195 | 0.0 | 2.0 | 0.00 | 0.00 | 0.00 | 76 | 1006.9 |
| 20260509050958 | 48 | 189 | 1.0 | 2.0 | 0.00 | 0.00 | 0.00 | 76 | 1006.9 |
| 20260509050952 | 47 | 195 | 0.0 | 1.0 | 0.00 | 0.00 | 0.00 | 76 | 1007.3 |
| 20260509050947 | 48 | 195 | 0.0 | 1.0 | 0.00 | 0.00 | 0.00 | 75 | 1007.3 |
| 20260509050943 | 48 | 195 | 0.0 | 1.0 | 0.00 | 0.00 | 0.00 | 74 | 1007.3 |
| 20260509050937 | 49 | 178 | 0.0 | 1.0 | 0.00 | 0.00 | 0.00 | 72 | 1007.3 |
| 20260509050933 | 49 | 197 | 2.0 | 2.0 | 0.00 | 0.00 | 0.00 | 78 | 1006.9 |
| 20260509050923 | 50 | 198 | 0.0 | 1.0 | 0.00 | 0.00 | 0.00 | 71 | 1007.3 |
| 20260509050919 | 50 | 200 | 0.0 | 2.0 | 0.00 | 0.00 | 0.00 | 70 | 1007.3 |
| 20260509050914 | 50 | 201 | 1.0 | 2.0 | 0.00 | 0.00 | 0.00 | 70 | 1007.3 |
| 20260509050910 | 49 | 199 | 2.0 | 2.0 | 0.00 | 0.00 | 0.00 | 78 | 1006.9 |
| 20260509050855 | 49 | 206 | 1.0 | 2.0 | 0.00 | 0.00 | 0.00 | 78 | 1006.9 |
| 20260509050635 | 48 | 200 | 2.0 | 2.0 | 0.00 | 0.00 | 0.00 | 78 | 1007.3 |
| 20260509050626 | 48 | 189 | 2.0 | 2.0 | 0.00 | 0.00 | 0.00 | 79 | 1007.3 |
| 20260509050618 | 48 | 186 | 2.0 | 2.0 | 0.00 | 0.00 | 0.00 | 78 | 1006.9 |
| 20260509050608 | 48 | 175 | 0.0 | 2.0 | 0.00 | 0.00 | 0.00 | 77 | 1006.9 |
| 20260509050343 | 49 | 180 | 0.0 | 3.0 | 0.00 | 0.00 | 0.00 | 77 | 1007.3 |
| 20260509050122 | 48 | 206 | 1.0 | 3.0 | 0.00 | 0.00 | 0.00 | 76 | 1007.3 |
| 20260509050117 | 49 | 180 | 1.0 | 3.0 | 0.00 | 0.00 | 0.00 | 77 | 1007.3 |
| 20260509050104 | 49 | 184 | 0.0 | 3.0 | 0.00 | 0.00 | 0.00 | 75 | 1006.9 |
| 20260509045837 | 49 | 198 | 1.0 | 3.0 | 0.00 | 0.00 | 0.00 | 76 | 1007.3 |
| 20260509045828 | 49 | 205 | 0.0 | 3.0 | 0.00 | 0.00 | 0.00 | 76 | 1006.9 |
| 20260509045818 | 49 | 205 | 0.0 | 3.0 | 0.00 | 0.00 | 0.00 | 77 | 1006.9 |
| 20260509045814 | 49 | 205 | 0.0 | 3.0 | 0.00 | 0.00 | 0.00 | 76 | 1007.3 |
| 20260509045446 | 48 | 205 | 1.0 | 3.0 | 0.00 | 0.00 | 0.00 | 77 | 1007.3 |
| 20260509045436 | 47 | 201 | 2.0 | 3.0 | 0.00 | 0.00 | 0.00 | 78 | 1007.3 |
| 20260509045215 | 47 | 208 | 2.0 | 2.0 | 0.00 | 0.00 | 0.00 | 79 | 1007.3 |
| 20260509045207 | 47 | 210 | 1.0 | 2.0 | 0.00 | 0.00 | 0.00 | 78 | 1007.3 |
| 20260509045158 | 47 | 177 | 1.0 | 2.0 | 0.00 | 0.00 | 0.00 | 78 | 1007.3 |
| 20260509045150 | 48 | 177 | 1.0 | 2.0 | 0.00 | 0.00 | 0.00 | 77 | 1007.3 |
| 20260509045139 | 48 | 195 | 0.0 | 2.0 | 0.00 | 0.00 | 0.00 | 76 | 1006.9 |
| 20260509044841 | 48 | 195 | 0.0 | 2.0 | 0.00 | 0.00 | 0.00 | 76 | 1006.9 |
| 20260509044617 | 48 | 196 | 0.0 | 2.0 | 0.00 | 0.00 | 0.00 | 75 | 1006.9 |
| 20260509044608 | 49 | 193 | 0.0 | 2.0 | 0.00 | 0.00 | 0.00 | 75 | 1006.9 |
| 20260509044558 | 49 | 188 | 0.0 | 2.0 | 0.00 | 0.00 | 0.00 | 75 | 1007.3 |
| 20260509044548 | 48 | 189 | 1.0 | 2.0 | 0.00 | 0.00 | 0.00 | 76 | 1006.9 |
| 20260509044112 | 48 | 186 | 2.0 | 2.0 | 0.00 | 0.00 | 0.00 | 76 | 1007.3 |
| 20260509044104 | 47 | 196 | 2.0 | 2.0 | 0.00 | 0.00 | 0.00 | 77 | 1006.9 |
| 20260509044056 | 47 | 193 | 0.0 | 1.0 | 0.00 | 0.00 | 0.00 | 76 | 1007.3 |
| 20260509044045 | 47 | 195 | 0.0 | 1.0 | 0.00 | 0.00 | 0.00 | 76 | 1007.3 |
| 20260509043801 | 47 | 195 | 0.0 | 1.0 | 0.00 | 0.00 | 0.00 | 76 | 1007.3 |
| 20260509043538 | 47 | 195 | 0.0 | 1.0 | 0.00 | 0.00 | 0.00 | 75 | 1007.3 |
| 20260509043530 | 48 | 196 | 0.0 | 1.0 | 0.00 | 0.00 | 0.00 | 75 | 1007.3 |
| 20260509043522 | 48 | 195 | 0.0 | 0.0 | 0.00 | 0.00 | 0.00 | 75 | 1007.3 |
| 20260509043513 | 48 | 195 | 0.0 | 0.0 | 0.00 | 0.00 | 0.00 | 75 | 1007.3 |
| 20260509043248 | 48 | 195 | 0.0 | 1.0 | 0.00 | 0.00 | 0.00 | 75 | 1007.3 |
| 20260509043026 | 48 | 195 | 0.0 | 1.0 | 0.00 | 0.00 | 0.00 | 75 | 1007.3 |
| 20260509043018 | 48 | 195 | 0.0 | 1.0 | 0.00 | 0.00 | 0.00 | 75 | 1007.3 |
| 20260509043010 | 48 | 195 | 0.0 | 1.0 | 0.00 | 0.00 | 0.00 | 74 | 1007.3 |
| 20260509043001 | 48 | 195 | 0.0 | 1.0 | 0.00 | 0.00 | 0.00 | 75 | 1007.3 |
| 20260509042739 | 48 | 195 | 0.0 | 1.0 | 0.00 | 0.00 | 0.00 | 74 | 1007.3 |
| 20260509042514 | 48 | 195 | 0.0 | 1.0 | 0.00 | 0.00 | 0.00 | 73 | 1007.3 |
| 20260509042503 | 49 | 195 | 0.0 | 1.0 | 0.00 | 0.00 | 0.00 | 73 | 1007.3 |
| 20260509042452 | 49 | 195 | 0.0 | 1.0 | 0.00 | 0.00 | 0.00 | 72 | 1007.3 |
| 20260509042201 | 49 | 178 | 0.0 | 1.0 | 0.00 | 0.00 | 0.00 | 72 | 1007.3 |
| 20260509042153 | 50 | 178 | 0.0 | 1.0 | 0.00 | 0.00 | 0.00 | 72 | 1007.3 |
| 20260509041929 | 50 | 178 | 0.0 | 1.0 | 0.00 | 0.00 | 0.00 | 72 | 1007.3 |
| 20260509041918 | 50 | 178 | 0.0 | 1.0 | 0.00 | 0.00 | 0.00 | 72 | 1007.3 |
| 20260509041908 | 50 | 198 | 0.0 | 1.0 | 0.00 | 0.00 | 0.00 | 71 | 1007.3 |
| 20260509041644 | 50 | 199 | 0.0 | 1.0 | 0.00 | 0.00 | 0.00 | 71 | 1007.3 |
| 20260509041635 | 50 | 202 | 0.0 | 2.0 | 0.00 | 0.00 | 0.00 | 70 | 1007.3 |
| 20260509041415 | 50 | 204 | 0.0 | 2.0 | 0.00 | 0.00 | 0.00 | 70 | 1007.3 |
| 20260509041404 | 50 | 200 | 0.0 | 2.0 | 0.00 | 0.00 | 0.00 | 70 | 1007.3 |
| 20260509041356 | 50 | 200 | 0.0 | 2.0 | 0.00 | 0.00 | 0.00 | 70 | 1007.3 |
| 20260509041132 | 50 | 200 | 1.0 | 2.0 | 0.00 | 0.00 | 0.00 | 70 | 1007.3 |
| 20260509041123 | 50 | 200 | 0.0 | 2.0 | 0.00 | 0.00 | 0.00 | 70 | 1007.3 |
| 20260509040900 | 50 | 200 | 0.0 | 2.0 | 0.00 | 0.00 | 0.00 | 70 | 1007.3 |
| 20260509040851 | 50 | 201 | 1.0 | 2.0 | 0.00 | 0.00 | 0.00 | 70 | 1007.3 |
| 20260509040627 | 50 | 201 | 1.0 | 2.0 | 0.00 | 0.00 | 0.00 | 70 | 1007.3 |
| 20260509040617 | 49 | 197 | 1.0 | 2.0 | 0.00 | 0.00 | 0.00 | 70 | 1007.3 |
| 20260509040356 | 49 | 198 | 2.0 | 2.0 | 0.00 | 0.00 | 0.00 | 70 | 1007.6 |
| 20260509040348 | 49 | 194 | 1.0 | 2.0 | 0.00 | 0.00 | 0.00 | 70 | 1007.3 |
| 20260509040339 | 50 | 195 | 2.0 | 2.0 | 0.00 | 0.00 | 0.00 | 70 | 1007.3 |
| 20260509040116 | 50 | 195 | 1.0 | 3.0 | 0.00 | 0.00 | 0.00 | 70 | 1007.3 |
| 20260509035834 | 51 | 195 | 1.0 | 3.0 | 0.00 | 0.00 | 0.00 | 68 | 1007.3 |
| 20260509035825 | 51 | 195 | 1.0 | 3.0 | 0.00 | 0.00 | 0.00 | 67 | 1007.3 |
| 20260509035604 | 51 | 196 | 1.0 | 3.0 | 0.00 | 0.00 | 0.00 | 67 | 1007.3 |
| 20260509035554 | 51 | 197 | 1.0 | 3.0 | 0.00 | 0.00 | 0.00 | 67 | 1007.3 |
| 20260509035550 | 50 | 197 | 1.0 | 3.0 | 0.00 | 0.00 | 0.00 | 67 | 1007.3 |
| 20260509035541 | 50 | 210 | 1.0 | 3.0 | 0.00 | 0.00 | 0.00 | 67 | 1007.3 |
| 20260509035321 | 50 | 204 | 0.0 | 3.0 | 0.00 | 0.00 | 0.00 | 68 | 1007.3 |
| 20260509035313 | 50 | 200 | 2.0 | 3.0 | 0.00 | 0.00 | 0.00 | 67 | 1007.3 |
| 20260509035050 | 49 | 201 | 3.0 | 3.0 | 0.00 | 0.00 | 0.00 | 68 | 1007.3 |
| 20260509035046 | 49 | 247 | 1.0 | 3.0 | 0.00 | 0.00 | 0.00 | 70 | 1007.3 |
| 20260509035037 | 49 | 257 | 2.0 | 3.0 | 0.00 | 0.00 | 0.00 | 70 | 1007.3 |
| 20260509035029 | 48 | 265 | 1.0 | 2.0 | 0.00 | 0.00 | 0.00 | 72 | 1007.3 |
| 20260509034805 | 47 | 266 | 1.0 | 2.0 | 0.00 | 0.00 | 0.00 | 74 | 1007.3 |
| 20260509034757 | 47 | 270 | 1.0 | 2.0 | 0.00 | 0.00 | 0.00 | 75 | 1007.3 |
| 20260509034535 | 47 | 271 | 1.0 | 2.0 | 0.00 | 0.00 | 0.00 | 76 | 1007.3 |
| 20260509034527 | 47 | 275 | 1.0 | 2.0 | 0.00 | 0.00 | 0.00 | 76 | 1007.3 |
| 20260509034307 | 47 | 276 | 1.0 | 2.0 | 0.00 | 0.00 | 0.00 | 76 | 1007.3 |
| 20260509034259 | 47 | 283 | 1.0 | 1.0 | 0.00 | 0.00 | 0.00 | 76 | 1007.3 |
| 20260509034250 | 47 | 283 | 1.0 | 1.0 | 0.00 | 0.00 | 0.00 | 76 | 1007.3 |
| 20260509034027 | 47 | 284 | 0.0 | 0.0 | 0.00 | 0.00 | 0.00 | 76 | 1007.3 |
| 20260509034023 | 47 | 283 | 1.0 | 1.0 | 0.00 | 0.00 | 0.00 | 76 | 1007.3 |
| 20260509034015 | 47 | 283 | 1.0 | 1.0 | 0.00 | 0.00 | 0.00 | 77 | 1007.3 |
| 20260509033751 | 47 | 284 | 0.0 | 0.0 | 0.00 | 0.00 | 0.00 | 76 | 1007.6 |
| 20260509033743 | 47 | 284 | 0.0 | 0.0 | 0.00 | 0.00 | 0.00 | 76 | 1007.3 |
| 20260509033516 | 47 | 284 | 0.0 | 0.0 | 0.00 | 0.00 | 0.00 | 76 | 1007.3 |
| 20260509033410 | 48 | 284 | 0.0 | 0.0 | 0.00 | 0.00 | 0.00 | 76 | 1007.3 |
| 20260509033333 | 48 | 284 | 0.0 | 0.0 | 0.00 | 0.00 | 0.00 | 76 | 1007.3 |
| 20260509033325 | 48 | 284 | 0.0 | 0.0 | 0.00 | 0.00 | 0.00 | 75 | 1007.3 |
| 20260509033104 | 48 | 284 | 0.0 | 0.0 | 0.00 | 0.00 | 0.00 | 75 | 1007.3 |
| 20260509033054 | 48 | 284 | 0.0 | 0.0 | 0.00 | 0.00 | 0.00 | 75 | 1007.6 |
| 20260509033050 | 48 | 284 | 0.0 | 0.0 | 0.00 | 0.00 | 0.00 | 75 | 1007.6 |
| 20260509033041 | 48 | 284 | 0.0 | 0.0 | 0.00 | 0.00 | 0.00 | 75 | 1007.3 |
| 20260509032821 | 48 | 284 | 0.0 | 0.0 | 0.00 | 0.00 | 0.00 | 75 | 1007.3 |
| 20260509032813 | 48 | 284 | 0.0 | 0.0 | 0.00 | 0.00 | 0.00 | 75 | 1007.3 |
| 20260509032538 | 49 | 284 | 0.0 | 0.0 | 0.00 | 0.00 | 0.00 | 74 | 1007.3 |
| 20260509032534 | 49 | 284 | 0.0 | 0.0 | 0.00 | 0.00 | 0.00 | 74 | 1007.6 |
| 20260509032313 | 49 | 284 | 0.0 | 0.0 | 0.00 | 0.00 | 0.00 | 74 | 1007.6 |
| 20260509032306 | 49 | 284 | 0.0 | 0.0 | 0.00 | 0.00 | 0.00 | 73 | 1007.6 |
| 20260509032255 | 49 | 284 | 0.0 | 1.0 | 0.00 | 0.00 | 0.00 | 73 | 1007.3 |
| 20260509032029 | 49 | 284 | 0.0 | 1.0 | 0.00 | 0.00 | 0.00 | 73 | 1007.3 |
| 20260509032025 | 49 | 284 | 0.0 | 1.0 | 0.00 | 0.00 | 0.00 | 73 | 1007.3 |
| 20260509032017 | 49 | 284 | 0.0 | 1.0 | 0.00 | 0.00 | 0.00 | 73 | 1007.3 |
| 20260509031755 | 49 | 284 | 0.0 | 1.0 | 0.00 | 0.00 | 0.00 | 72 | 1007.6 |
| 20260509031746 | 50 | 284 | 0.0 | 1.0 | 0.00 | 0.00 | 0.00 | 72 | 1007.3 |
| 20260509031738 | 50 | 284 | 0.0 | 1.0 | 0.00 | 0.00 | 0.00 | 72 | 1007.3 |
| 20260509031508 | 50 | 284 | 0.0 | 1.0 | 0.00 | 0.00 | 0.00 | 72 | 1007.3 |
| 20260509031459 | 50 | 284 | 0.0 | 1.0 | 0.00 | 0.00 | 0.00 | 72 | 1007.3 |
| 20260509031239 | 50 | 284 | 0.0 | 1.0 | 0.00 | 0.00 | 0.00 | 71 | 1007.3 |
| 20260509031230 | 50 | 284 | 0.0 | 1.0 | 0.00 | 0.00 | 0.00 | 72 | 1007.3 |
| 20260509030957 | 50 | 284 | 0.0 | 1.0 | 0.00 | 0.00 | 0.00 | 72 | 1007.3 |
| 20260509030953 | 50 | 284 | 1.0 | 1.0 | 0.00 | 0.00 | 0.00 | 72 | 1007.6 |
| 20260509030944 | 50 | 284 | 0.0 | 1.0 | 0.00 | 0.00 | 0.00 | 72 | 1007.6 |
| 20260509030708 | 50 | 284 | 0.0 | 1.0 | 0.00 | 0.00 | 0.00 | 72 | 1007.6 |
| 20260509030659 | 50 | 284 | 0.0 | 1.0 | 0.00 | 0.00 | 0.00 | 72 | 1007.6 |
| 20260509030435 | 49 | 284 | 0.0 | 1.0 | 0.00 | 0.00 | 0.00 | 72 | 1007.6 |
| 20260509030330 | 49 | 284 | 0.0 | 1.0 | 0.00 | 0.00 | 0.00 | 72 | 1007.3 |
| 20260509030225 | 49 | 284 | 0.0 | 1.0 | 0.00 | 0.00 | 0.00 | 71 | 1007.3 |
| 20260509030119 | 49 | 284 | 0.0 | 1.0 | 0.00 | 0.00 | 0.00 | 70 | 1007.6 |
| 20260509030013 | 49 | 284 | 0.0 | 1.0 | 0.00 | 0.00 | 0.00 | 70 | 1007.6 |
| 20260509025907 | 49 | 284 | 0.0 | 1.0 | 0.00 | 0.00 | 0.00 | 70 | 1007.6 |
| 20260509025801 | 49 | 284 | 1.0 | 1.0 | 0.00 | 0.00 | 0.00 | 70 | 1007.3 |
| 20260509025655 | 49 | 284 | 0.0 | 1.0 | 0.00 | 0.00 | 0.00 | 70 | 1007.6 |
| 20260509025550 | 49 | 284 | 0.0 | 1.0 | 0.00 | 0.00 | 0.00 | 70 | 1007.3 |
| 20260509025429 | 50 | 284 | 0.0 | 1.0 | 0.00 | 0.00 | 0.00 | 70 | 1007.6 |
| 20260509025339 | 50 | 284 | 0.0 | 1.0 | 0.00 | 0.00 | 0.00 | 70 | 1007.6 |
| 20260509025233 | 50 | 284 | 0.0 | 1.0 | 0.00 | 0.00 | 0.00 | 70 | 1007.6 |
| 20260509025129 | 50 | 284 | 1.0 | 1.0 | 0.00 | 0.00 | 0.00 | 69 | 1007.6 |
| 20260509025022 | 50 | 284 | 1.0 | 1.0 | 0.00 | 0.00 | 0.00 | 69 | 1007.6 |
| 20260509024917 | 50 | 284 | 0.0 | 1.0 | 0.00 | 0.00 | 0.00 | 68 | 1007.3 |
| 20260509024811 | 50 | 284 | 0.0 | 1.0 | 0.00 | 0.00 | 0.00 | 68 | 1007.6 |
| 20260509024705 | 50 | 284 | 1.0 | 1.0 | 0.00 | 0.00 | 0.00 | 68 | 1007.6 |
| 20260509024557 | 50 | 284 | 1.0 | 1.0 | 0.00 | 0.00 | 0.00 | 68 | 1007.6 |
| 20260509024452 | 50 | 284 | 0.0 | 0.0 | 0.00 | 0.00 | 0.00 | 68 | 1007.6 |
| 20260509024416 | 51 | 284 | 0.0 | 0.0 | 0.00 | 0.00 | 0.00 | 67 | 1007.6 |
| 20260509024346 | 51 | 284 | 0.0 | 0.0 | 0.00 | 0.00 | 0.00 | 67 | 1007.6 |
| 20260509024240 | 51 | 284 | 0.0 | 0.0 | 0.00 | 0.00 | 0.00 | 67 | 1007.3 |
| 20260509024135 | 51 | 284 | 0.0 | 0.0 | 0.00 | 0.00 | 0.00 | 66 | 1007.6 |
| 20260509024029 | 51 | 284 | 0.0 | 1.0 | 0.00 | 0.00 | 0.00 | 66 | 1007.3 |
| 20260509023909 | 51 | 284 | 0.0 | 1.0 | 0.00 | 0.00 | 0.00 | 65 | 1007.6 |
| 20260509023818 | 51 | 284 | 0.0 | 1.0 | 0.00 | 0.00 | 0.00 | 66 | 1007.6 |
| 20260509023713 | 51 | 284 | 0.0 | 1.0 | 0.00 | 0.00 | 0.00 | 66 | 1007.6 |
| 20260509023606 | 52 | 284 | 0.0 | 1.0 | 0.00 | 0.00 | 0.00 | 65 | 1007.6 |
| 20260509023500 | 52 | 284 | 0.0 | 1.0 | 0.00 | 0.00 | 0.00 | 64 | 1007.3 |
| 20260509023402 | 52 | 284 | 0.0 | 1.0 | 0.00 | 0.00 | 0.00 | 64 | 1007.3 |
| 20260509023355 | 52 | 284 | 0.0 | 1.0 | 0.00 | 0.00 | 0.00 | 64 | 1007.3 |
| 20260509023249 | 52 | 284 | 0.0 | 1.0 | 0.00 | 0.00 | 0.00 | 65 | 1007.3 |
| 20260509023144 | 52 | 284 | 0.0 | 1.0 | 0.00 | 0.00 | 0.00 | 63 | 1007.3 |